[[{"header":{"parameterUnit":"m.s-1","parameterCategory":1,"la1":31.0,"la2":29.5877,"lo1":-88.7671,"lo2":-86.6584,"dy":0.0162,"dx":0.0185,"nx":115,"ny":88,"refTime":"2023-06-06T12:00:00:Z","depth":0,"parameterNumber":2,"parameterNumberName":"U-component_of_WINDS"},"data":[0.0,0.0,0.0,0.0,0.0,0.0,0.0,0.0,0.0,0.0,0.0,0.0,0.0,0.0,0.0,0.0,0.0,0.0,0.0,0.0,0.0,0.0,0.0,0.0,0.0,0.0,0.0,0.0,0.0,0.0,0.0,0.0,0.0,0.0,0.0,0.0,0.0,0.0,0.0,0.0,0.0,0.0,0.0,0.0,0.0,0.0,0.0,0.0,0.0,0.0,0.0,0.0,0.0,0.0,0.0,0.0,0.0,0.0,0.0,0.0,0.0,0.0,0.0,0.0,0.0,0.0,0.0,0.0,0.0,0.0,0.0,0.0,0.0,0.0,0.0,0.0,0.0,0.0,0.0,0.0,0.0,0.0,0.0,0.0,0.0,0.0,0.0,0.0,0.0,0.0,0.0,0.0,0.0,0.0,0.0,0.0,0.0,0.0,0.0,0.0,0.0,0.0,0.0,0.0,0.0,0.0,0.0,0.0,0.0,0.0,0.0,0.0,0.0,0.0,0.0,0.0,0.0,0.0,0.0,0.0,0.0,0.0,0.0,0.0,0.0,0.0,0.0,0.0,0.0,0.0,0.0,0.0,0.0,0.0,0.0,0.0,0.0,0.0,0.0,0.0,0.0,0.0,0.0,0.0,0.0,0.0,0.0,0.0,0.0,0.0,0.0,0.0,0.0,0.0,0.0,0.0,0.0,0.0,0.0,0.0,0.0,0.0,0.0,0.0,0.0,0.0,0.0,0.0,0.0,0.0,0.0,0.0,0.0,0.0,0.0,0.0,0.0,0.0,0.0,0.0,0.0,0.0,0.0,0.0,0.0,0.0,0.0,0.0,0.0,0.0,0.0,0.0,0.0,0.0,0.0,0.0,0.0,0.0,0.0,0.0,0.0,0.0,0.0,0.0,0.0,0.0,0.0,0.0,0.0,0.0,0.0,0.0,0.0,0.0,0.0,0.0,0.0,0.0,0.0,0.0,0.0,0.0,0.0,0.0,0.0,0.0,0.0,0.0,0.0,0.0,0.0,0.0,0.0,0.0,0.0,0.0,0.0,0.0,0.0,0.0,0.0,0.0,0.0,0.0,0.0,0.0,0.0,0.0,0.0,0.0,0.0,0.0,0.0,0.0,0.0,0.0,0.0,0.0,0.0,0.0,0.0,0.0,0.0,0.0,0.0,0.0,0.0,0.0,0.0,0.0,0.0,0.0,0.0,0.0,0.0,0.0,0.0,0.0,0.0,0.0,0.0,0.0,0.0,0.0,0.0,0.0,0.0,0.0,0.0,0.0,0.0,0.0,0.0,0.0,0.0,0.0,0.0,0.0,0.0,0.0,0.0,0.0,0.0,0.0,0.0,0.0,0.0,0.0,0.0,0.0,0.0,0.0,0.0,0.0,0.0,0.0,0.0,0.0,0.0,0.0,0.0,0.0,0.0,0.0,0.0,0.0,0.0,0.0,0.0,0.0,0.0,0.0,0.0,0.0,0.0,0.0,0.0,0.0,0.0,0.0,0.0,0.0,0.0,0.0,0.0,0.0,0.0,0.0,0.0,0.0,0.0,0.0,0.0,0.0,0.0,0.0,0.0,0.0,0.0,0.0,0.0,0.0,0.0,0.0,0.0,0.0,0.0,0.0,0.0,0.0,0.0,0.0,0.0,0.0,0.0,0.0,0.0,0.0,0.0,0.0,0.0,0.0,0.0,0.0,0.0,0.0,0.0,0.0,0.0,0.0,0.0,0.0,0.0,0.0,0.0,0.0,0.0,0.0,0.0,0.0,0.0,0.0,0.0,0.0,0.0,0.0,0.0,0.0,0.0,0.0,0.0,0.0,0.0,0.0,0.0,0.0,0.0,0.0,0.0,0.0,0.0,0.0,0.0,0.0,0.0,0.0,0.0,0.0,0.0,0.0,0.0,0.0,0.0,0.0,0.0,0.0,0.0,0.0,0.0,0.0,0.0,0.0,0.0,0.0,0.0,0.0,0.0,0.0,0.0,0.0,0.0,0.0,0.0,0.0,0.0,0.0,0.0,0.0,0.0,0.0,0.0,0.0,0.0,0.0,0.0,0.0,0.0,0.0,0.0,0.0,0.0,0.0,0.0,0.0,0.0,0.0,0.0,0.0,0.0,0.0,0.0,0.0,0.0,0.0,0.0,0.0,0.0,0.0,0.0,0.0,0.0,0.0,0.0,0.0,0.0,0.0,0.0,0.0,0.0,0.0,0.0,0.0,0.0,0.0,0.0,0.0,0.0,0.0,0.0,0.0,0.0,0.0,0.0,0.0,0.0,0.0,0.0,0.0,0.0,0.0,0.0,0.0,0.0,0.0,0.0,0.0,0.0,0.0,0.0,0.0,0.0,0.0,0.0,0.0,0.0,0.0,0.0,0.0,0.0,0.0,0.0,0.0,0.0,0.0,0.0,0.0,0.0,0.0,0.0,0.0,0.0,0.0,0.0,0.0,0.0,0.0,0.0,0.0,0.0,0.0,0.0,0.0,0.0,0.0,0.0,0.0,0.0,0.0,0.0,0.0,0.0,0.0,0.0,0.0,0.0,0.0,0.0,0.0,0.0,0.0,0.0,0.0,0.0,0.0,0.0,0.0,0.0,0.0,0.0,0.0,0.0,0.0,0.0,0.0,0.0,0.0,0.0,0.0,0.0,0.0,0.0,0.0,0.0,0.0,0.0,0.0,0.0,0.0,0.0,0.0,0.0,0.0,0.0,0.0,0.0,0.0,0.0,0.0,0.0,0.0,0.0,0.0,0.0,0.0,0.0,0.0,0.0,0.0,0.0,0.0,0.0,0.0,0.0,0.0,0.0,0.0,0.0,0.0,0.0,0.0,0.0,0.0,0.0,0.0,0.0,0.0,0.0,0.0,0.0,0.0,0.0,0.0,0.0,0.0,0.0,0.0,0.0,0.0,0.0,0.0,0.0,0.0,0.0,0.0,0.0,0.0,0.0,0.0,0.0,0.0,0.0,0.0,0.0,0.0,0.0,0.0,0.0,0.0,0.0,0.0,0.0,0.0,0.0,0.0,0.0,0.0,0.0,0.0,0.0,0.0,0.0,0.0,0.0,0.0,0.0,0.0,0.0,0.0,0.0,0.0,0.0,0.0,0.0,0.0,0.0,0.0,0.0,0.0,0.0,0.0,0.0,0.0,0.0,0.0,0.0,0.0,0.0,0.0,0.0,0.0,0.0,0.0,0.0,0.0,0.0,0.0,0.0,0.0,0.0,0.0,0.0,0.0,0.0,0.0,0.0,0.0,0.0,0.0,0.0,0.0,0.0,0.0,0.0,0.0,0.0,0.0,0.0,0.0,0.0,0.0,0.0,0.0,0.0,0.0,0.0,0.0,0.0,0.0,0.0,0.0,0.0,0.0,0.0,0.0,0.0,0.0,0.0,0.0,0.0,0.0,0.0,0.0,0.0,0.0,0.0,0.0,0.0,0.0,0.0,0.0,0.0,0.0,0.0,0.0,0.0,0.0,0.0,0.0,0.0,0.0,0.0,0.0,0.0,0.0,0.0,0.0,0.0,0.0,0.0,0.0,0.0,0.0,0.0,0.0,0.0,0.0,0.0,0.0,0.0,0.0,0.0,0.0,0.0,0.0,0.0,0.0,0.0,0.0,0.0,0.0,0.0,0.0,0.0,0.0,0.0,0.0,0.0,0.0,0.0,0.0,0.0,0.0,0.0,0.0,0.0,0.0,0.0,0.0,0.0,0.0,0.0,0.0,0.0,0.0,0.0,0.0,0.0,0.0,0.0,0.0,0.0,0.0,0.0,0.0,0.0,0.0,0.0,0.0,0.0,0.0,0.0,0.0,0.0,0.0,0.0,0.0,0.0,0.0,0.0,0.0,0.0,0.0,0.0,0.0,0.0,0.0,0.0,0.0,0.0,0.0,0.0,0.0,0.0,0.0,0.0,0.0,0.0,0.0,0.0,0.0,0.0,0.0,0.0,0.0,0.0,0.0,0.0,0.0,0.0,0.0,0.0,0.0,0.0,0.0,0.0,0.0,0.0,0.0,0.0,0.0,0.0,0.0,0.0,0.0,0.0,0.0,0.0,0.0,0.0,0.0,0.0,0.0,0.0,0.0,0.0,0.0,0.0,0.0,0.0,0.0,0.0,0.0,0.0,0.0,0.0,0.0,0.0,0.0,0.0,0.0,0.0,0.0,0.0,0.0,0.0,0.0,0.0,0.0,0.0,0.0,0.0,0.0,0.0,0.0,0.0,0.0,0.0,0.0,0.0,0.0,0.0,0.0,0.0,0.0,0.0,0.0,1.4808,0.0,0.0,0.0,0.0,0.0,0.0,0.0,0.0,0.0,0.0,0.0,0.0,0.0,0.0,0.0,0.0,0.0,0.0,0.0,0.0,0.0,0.0,0.0,0.0,0.0,0.0,0.0,0.0,0.0,0.0,0.0,0.0,0.0,0.0,0.0,0.0,0.0,0.0,0.0,0.0,0.0,0.0,0.0,0.0,0.0,0.0,0.0,0.0,0.0,0.0,0.0,0.0,0.0,0.0,0.0,0.0,0.0,0.0,0.0,0.0,0.0,0.0,0.0,0.0,0.0,0.0,0.0,0.0,0.0,0.0,0.0,0.0,0.0,0.0,0.0,0.0,0.0,0.0,0.0,0.0,0.0,0.0,0.0,0.0,0.0,0.0,0.0,0.0,0.0,0.0,0.0,0.0,0.0,0.0,0.0,0.0,0.0,0.0,0.0,0.0,0.0,0.0,0.0,0.0,0.0,0.0,0.0,0.0,0.0,0.0,1.4746,1.4808,1.4808,1.4808,1.4808,0.0,0.0,0.0,0.0,0.0,0.0,0.0,0.0,0.0,0.0,0.0,0.0,0.0,0.0,0.0,0.0,0.0,0.0,0.0,0.0,0.0,0.0,0.0,0.0,0.0,0.0,0.0,0.0,0.0,0.0,0.0,0.0,0.0,0.0,0.0,0.0,0.0,0.0,0.0,0.0,0.0,0.0,0.0,0.0,0.0,0.0,0.0,0.0,0.0,0.0,0.0,0.0,0.0,0.0,0.0,0.0,0.0,0.0,0.0,0.0,0.0,0.0,0.0,0.0,0.0,0.0,0.0,0.0,0.0,0.0,0.0,0.0,0.0,0.0,0.0,0.0,0.0,0.0,0.0,0.0,0.0,0.0,0.0,0.0,0.0,0.0,0.0,0.0,0.0,0.0,0.0,0.0,0.0,0.0,0.0,0.0,0.0,0.0,0.0,0.0,0.0,0.0,0.0,0.0,0.0,0.0,0.0,0.0,0.0,0.0,0.0,0.0,1.4808,1.4808,1.4856,0.0,0.0,0.0,0.0,0.0,0.0,0.0,0.0,0.0,0.0,0.0,0.0,0.0,0.0,0.0,0.0,0.0,0.0,0.0,0.0,0.0,0.0,0.0,0.0,0.0,0.0,0.0,0.0,0.0,0.0,0.0,0.0,0.0,0.0,0.0,0.0,0.0,0.0,0.0,0.0,0.0,0.0,0.0,0.0,0.0,0.0,0.0,0.0,0.0,0.0,0.0,0.0,0.0,0.0,0.0,0.0,0.0,0.0,0.0,0.0,0.0,0.0,0.0,0.0,0.0,0.0,0.0,0.0,0.0,0.0,0.0,0.0,0.0,0.0,0.0,0.0,0.0,0.0,0.0,0.0,0.0,0.0,0.0,0.0,0.0,0.0,0.0,0.0,0.0,0.0,0.0,0.0,0.0,0.0,0.0,0.0,0.0,0.0,0.0,0.0,0.0,0.0,0.0,0.0,0.0,0.0,0.0,0.0,0.0,0.0,1.4746,1.4808,1.4808,0.0,1.4982,0.0,0.0,0.0,0.0,0.0,0.0,0.0,0.0,0.0,0.0,0.0,0.0,0.0,0.0,0.0,0.0,0.0,0.0,0.0,0.0,0.0,0.0,0.0,0.0,0.0,0.0,0.0,0.0,0.0,0.0,0.0,0.0,0.0,0.0,0.0,0.0,0.0,0.0,0.0,0.0,0.0,0.0,0.0,0.0,0.0,0.0,0.0,0.0,0.0,0.0,0.0,0.0,0.0,0.0,0.0,0.0,0.0,0.0,0.0,0.0,0.0,0.0,0.0,0.0,0.0,0.0,0.0,0.0,0.0,0.0,0.0,0.0,0.0,0.0,0.0,0.0,0.0,0.0,0.0,0.0,0.0,0.0,0.0,0.0,0.0,0.0,0.0,0.0,0.0,0.0,0.0,0.0,0.0,0.0,0.0,0.0,0.0,0.0,0.0,0.0,0.0,0.0,0.0,0.0,0.0,0.0,0.0,0.0,0.0,0.0,1.4763,1.4808,1.4825,1.4949,0.0,0.0,0.0,0.0,0.0,0.0,0.0,0.0,0.0,0.0,0.0,0.0,0.0,0.0,0.0,0.0,0.0,0.0,0.0,0.0,0.0,0.0,0.0,0.0,0.0,0.0,0.0,0.0,0.0,0.0,0.0,0.0,0.0,0.0,0.0,0.0,0.0,0.0,0.0,0.0,0.0,0.0,0.0,0.0,0.0,0.0,0.0,0.0,0.0,0.0,0.0,0.0,0.0,0.0,0.0,0.0,0.0,0.0,0.0,0.0,0.0,0.0,0.0,0.0,0.0,0.0,0.0,0.0,0.0,0.0,0.0,0.0,0.0,0.0,0.0,0.0,0.0,0.0,0.0,0.0,0.0,0.0,0.0,0.0,0.0,0.0,0.0,0.0,0.0,0.0,0.0,0.0,0.0,0.0,0.0,0.0,0.0,0.0,0.0,0.0,0.0,0.0,0.0,0.0,0.0,0.0,0.0,0.0,0.0,0.0,1.4794,1.4825,1.4856,1.4932,1.5056,1.5178,0.0,0.0,0.0,0.0,0.0,0.0,0.0,0.0,0.0,0.0,0.0,0.0,0.0,0.0,0.0,0.0,0.0,0.0,0.0,0.0,0.0,0.0,0.0,0.0,0.0,0.0,0.0,0.0,0.0,0.0,0.0,0.0,0.0,0.0,0.0,0.0,0.0,0.0,0.0,0.0,0.0,0.0,0.0,0.0,0.0,0.0,0.0,0.0,0.0,0.0,0.0,0.0,0.0,0.0,0.0,0.0,0.0,0.0,0.0,0.0,0.0,0.0,0.0,0.0,0.0,0.0,0.0,0.0,0.0,0.0,0.0,0.0,0.0,0.0,0.0,0.0,0.0,0.0,0.0,0.0,0.0,0.0,0.0,0.0,0.0,0.0,0.0,0.0,0.0,0.0,0.0,0.0,0.0,0.0,0.0,0.0,0.0,0.0,0.0,0.0,0.0,0.0,0.0,0.0,0.0,0.0,0.0,0.0,1.4808,1.4871,1.4918,1.4982,1.5102,1.5192,0.0,0.0,0.0,0.0,0.0,0.0,0.0,0.0,0.0,0.0,0.0,0.0,0.0,0.0,0.0,0.0,0.0,0.0,0.0,0.0,0.0,0.0,0.0,0.0,0.0,0.0,0.0,0.0,0.0,0.0,0.0,0.0,0.0,0.0,0.0,0.0,0.0,0.0,0.0,0.0,0.0,0.0,0.0,0.0,0.0,0.0,0.0,0.0,0.0,0.0,0.0,0.0,0.0,0.0,0.0,0.0,0.0,0.0,0.0,0.0,0.0,0.0,0.0,0.0,0.0,0.0,0.0,0.0,0.0,0.0,0.0,0.0,0.0,0.0,0.0,0.0,0.0,0.0,0.0,0.0,0.0,0.0,0.0,0.0,0.0,0.0,0.0,0.0,0.0,0.0,0.0,0.0,0.0,0.0,0.0,0.0,0.0,0.0,0.0,0.0,0.0,0.0,0.0,0.0,0.0,0.0,0.0,0.0,0.0,1.4856,1.4935,1.5027,1.5133,1.5178,1.5222,0.0,0.0,0.0,0.0,0.0,0.0,0.0,0.0,0.0,0.0,0.0,0.0,0.0,0.0,0.0,0.0,0.0,0.0,0.0,0.0,0.0,0.0,0.0,0.0,0.0,0.0,0.0,0.0,0.0,0.0,0.0,0.0,0.0,0.0,0.0,0.0,0.0,0.0,0.0,0.0,0.0,0.0,0.0,0.0,0.0,0.0,0.0,0.0,0.0,0.0,0.0,0.0,0.0,0.0,0.0,0.0,0.0,0.0,0.0,0.0,0.0,0.0,0.0,0.0,0.0,0.0,0.0,0.0,0.0,0.0,0.0,0.0,0.0,0.0,0.0,0.0,0.0,0.0,0.0,0.0,0.0,0.0,0.0,0.0,0.0,0.0,0.0,0.0,0.0,0.0,0.0,0.0,0.0,0.0,0.0,0.0,0.0,0.0,0.0,0.0,0.0,0.0,0.0,0.0,0.0,0.0,0.0,0.0,0.0,1.4994,0.0,1.5102,0.0,1.5222,1.5253,0.0,0.0,0.0,0.0,0.0,0.0,0.0,0.0,0.0,0.0,0.0,0.0,0.0,0.0,0.0,0.0,0.0,0.0,0.0,0.0,0.0,0.0,0.0,0.0,0.0,0.0,0.0,0.0,0.0,0.0,0.0,0.0,0.0,0.0,0.0,0.0,0.0,0.0,0.0,0.0,0.0,0.0,0.0,0.0,0.0,0.0,0.0,0.0,0.0,0.0,0.0,0.0,0.0,0.0,0.0,0.0,0.0,0.0,0.0,0.0,0.0,0.0,0.0,0.0,0.0,0.0,0.0,0.0,0.0,0.0,0.0,0.0,0.0,0.0,0.0,0.0,0.0,0.0,0.0,0.0,0.0,0.0,0.0,0.0,0.0,0.0,0.0,0.0,0.0,0.0,0.0,0.0,0.0,0.0,0.0,0.0,0.0,0.0,0.0,0.0,0.0,0.0,0.0,0.0,0.0,0.0,0.0,0.0,1.5023,1.5178,1.5178,1.5253,1.5298,1.5313,1.5313,0.0,0.0,0.0,0.0,0.0,0.0,0.0,0.0,0.0,0.0,0.0,0.0,0.0,0.0,0.0,0.0,0.0,0.0,0.0,0.0,0.0,0.0,0.0,0.0,0.0,0.0,0.0,0.0,0.0,0.0,0.0,0.0,0.0,0.0,0.0,0.0,0.0,0.0,0.0,0.0,0.0,0.0,0.0,0.0,0.0,0.0,0.0,0.0,0.0,0.0,0.0,0.0,0.0,0.0,0.0,0.0,0.0,0.0,0.0,0.0,0.0,0.0,0.0,0.0,0.0,0.0,0.0,0.0,0.0,0.0,0.0,0.0,0.0,0.0,0.0,0.0,0.0,0.0,0.0,0.0,0.0,0.0,0.0,0.0,0.0,0.0,0.0,0.0,0.0,0.0,0.0,0.0,0.0,0.0,0.0,0.0,0.0,0.0,0.0,0.0,0.0,0.0,0.0,0.0,0.0,0.0,0.0,0.0,0.0,1.5343,1.5344,1.5374,1.5448,1.5403,1.5374,0.0,0.0,0.0,0.0,0.0,0.0,0.0,0.0,0.0,0.0,0.0,0.0,0.0,0.0,0.0,0.0,0.0,0.0,0.0,0.0,0.0,0.0,0.0,0.0,0.0,0.0,0.0,0.0,0.0,0.0,0.0,0.0,0.0,0.0,0.0,0.0,0.0,0.0,0.0,0.0,0.0,0.0,0.0,0.0,0.0,0.0,0.0,0.0,0.0,0.0,0.0,0.0,0.0,0.0,0.0,0.0,0.0,0.0,0.0,0.0,0.0,0.0,0.0,0.0,0.0,0.0,0.0,0.0,0.0,0.0,0.0,0.0,0.0,0.0,0.0,0.0,0.0,0.0,0.0,0.0,0.0,0.0,0.0,0.0,0.0,0.0,0.0,0.0,0.0,0.0,0.0,0.0,0.0,0.0,0.0,0.0,0.0,0.0,0.0,0.0,0.0,0.0,0.0,0.0,0.0,0.0,0.0,0.0,0.0,1.6195,1.6151,1.6182,1.6259,1.6213,1.6151,1.6136,0.0,0.0,0.0,0.0,0.0,0.0,0.0,0.0,0.0,0.0,0.0,0.0,0.0,0.0,0.0,0.0,0.0,0.0,0.0,0.0,0.0,0.0,0.0,0.0,0.0,0.0,0.0,0.0,0.0,0.0,0.0,0.0,0.0,0.0,0.0,0.0,0.0,0.0,0.0,0.0,0.0,0.0,0.0,0.0,0.0,0.0,0.0,0.0,0.0,0.0,0.0,0.0,0.0,0.0,0.0,0.0,0.0,0.0,0.0,0.0,0.0,0.0,0.0,0.0,0.0,0.0,0.0,0.0,0.0,0.0,0.0,0.0,0.0,0.0,0.0,0.0,0.0,0.0,0.0,0.0,0.0,0.0,0.0,0.0,0.0,0.0,0.0,0.0,0.0,0.0,0.0,0.0,0.0,0.0,0.0,0.0,0.0,0.0,0.0,0.0,0.0,0.0,0.0,0.0,0.0,0.0,0.0,0.0,1.76,1.7533,1.7489,1.75,1.75,1.7449,0.0,0.0,0.0,0.0,0.0,0.0,0.0,0.0,0.0,0.0,0.0,0.0,0.0,0.0,0.0,0.0,0.0,0.0,0.0,0.0,0.0,0.0,0.0,0.0,0.0,0.0,0.0,0.0,0.0,0.0,0.0,0.0,0.0,0.0,0.0,0.0,0.0,0.0,0.0,0.0,0.0,0.0,0.0,0.0,0.0,0.0,0.0,0.0,0.0,0.0,0.0,0.0,0.0,0.0,0.0,0.0,0.0,0.0,0.0,0.0,0.0,0.0,0.0,0.0,0.0,0.0,0.0,0.0,0.0,0.0,0.0,0.0,0.0,0.0,0.0,0.0,0.0,0.0,0.0,0.0,0.0,0.0,0.0,0.0,0.0,0.0,0.0,0.0,0.0,0.0,0.0,0.0,0.0,0.0,0.0,0.0,0.0,0.0,0.0,0.0,0.0,0.0,0.0,0.0,0.0,0.0,0.0,0.0,0.0,1.8789,1.8876,1.8475,1.7691,1.7599,1.7533,0.0,0.0,0.0,0.0,0.0,0.0,0.0,0.0,0.0,0.0,0.0,0.0,0.0,0.0,0.0,0.0,0.0,0.0,0.0,0.0,0.0,0.0,0.0,0.0,0.0,0.0,0.0,0.0,0.0,0.0,0.0,0.0,0.0,0.0,0.0,0.0,0.0,0.0,0.0,0.0,0.0,0.0,0.0,0.0,0.0,0.0,0.0,0.0,0.0,0.0,0.0,0.0,0.0,0.0,0.0,0.0,0.0,0.0,0.0,0.0,0.0,0.0,0.0,0.0,0.0,0.0,0.0,0.0,0.0,0.0,0.0,0.0,0.0,0.0,0.0,0.0,0.0,0.0,0.0,0.0,0.0,0.0,0.0,0.0,0.0,0.0,0.0,0.0,0.0,0.0,0.0,0.0,0.0,0.0,0.0,0.0,0.0,0.0,0.0,0.0,0.0,0.0,0.0,0.0,0.0,0.0,0.0,0.0,1.8912,1.9228,1.9302,1.9059,1.8446,1.8416,1.8397,0.0,0.0,0.0,0.0,0.0,0.0,0.0,0.0,0.0,0.0,0.0,0.0,0.0,0.0,0.0,0.0,0.0,0.0,0.0,0.0,0.0,0.0,0.0,0.0,0.0,0.0,0.0,0.0,0.0,0.0,0.0,0.0,0.0,0.0,0.0,0.0,0.0,0.0,0.0,0.0,0.0,0.0,0.0,0.0,0.0,0.0,0.0,0.0,0.0,0.0,0.0,0.0,0.0,0.0,0.0,0.0,0.0,0.0,0.0,0.0,0.0,0.0,0.0,0.0,0.0,0.0,0.0,0.0,0.0,0.0,0.0,0.0,0.0,0.0,0.0,0.0,0.0,0.0,0.0,0.0,0.0,0.0,0.0,0.0,0.0,0.0,0.0,0.0,0.0,0.0,0.0,0.0,0.0,0.0,0.0,0.0,0.0,0.0,0.0,0.0,0.0,0.0,0.0,0.0,0.0,0.0,0.0,0.0,1.8912,1.9165,1.9351,1.9463,1.9442,1.9531,1.9538,0.0,0.0,0.0,0.0,0.0,0.0,0.0,0.0,0.0,0.0,0.0,0.0,0.0,0.0,0.0,0.0,0.0,0.0,0.0,0.0,0.0,0.0,0.0,0.0,0.0,0.0,0.0,0.0,0.0,0.0,0.0,0.0,0.0,0.0,0.0,0.0,0.0,0.0,0.0,0.0,0.0,0.0,0.0,0.0,0.0,0.0,0.0,0.0,0.0,0.0,0.0,0.0,0.0,0.0,0.0,0.0,0.0,0.0,0.0,0.0,0.0,0.0,0.0,0.0,0.0,0.0,0.0,0.0,0.0,0.0,0.0,0.0,0.0,0.0,0.0,0.0,0.0,0.0,0.0,0.0,0.0,0.0,0.0,0.0,0.0,0.0,0.0,0.0,0.0,0.0,0.0,0.0,0.0,0.0,0.0,0.0,0.0,0.0,0.0,0.0,0.0,0.0,0.0,0.0,0.0,0.0,0.0,0.0,1.9315,1.953,2.0122,2.0258,1.9821,1.9581,1.9413,0.0,0.0,0.0,0.0,0.0,0.0,0.0,0.0,0.0,0.0,0.0,0.0,0.0,0.0,0.0,0.0,0.0,0.0,0.0,0.0,0.0,0.0,0.0,0.0,0.0,0.0,0.0,0.0,0.0,0.0,0.0,0.0,0.0,0.0,0.0,0.0,0.0,0.0,0.0,0.0,0.0,0.0,0.0,0.0,0.0,0.0,0.0,0.0,1.1469,0.0,0.0,0.0,0.0,0.0,0.0,0.0,0.0,0.0,0.0,0.0,0.0,0.0,0.0,0.0,0.0,0.0,0.0,0.0,0.0,0.0,0.0,0.0,0.0,0.0,0.0,0.0,0.0,0.0,0.0,0.0,0.0,0.0,0.0,0.0,0.0,0.0,0.0,0.0,0.0,0.0,0.0,0.0,0.0,0.0,0.0,0.0,0.0,0.0,0.0,0.0,0.0,0.0,0.0,0.0,0.0,0.0,0.0,0.0,1.9225,1.9404,2.0203,2.0356,1.9715,1.9584,1.9382,0.0,0.0,0.0,0.0,0.0,0.0,0.0,0.0,0.0,0.0,0.0,0.0,0.0,0.0,0.0,0.0,0.0,0.0,0.0,0.0,0.0,0.0,0.0,0.0,0.0,0.0,0.0,0.0,0.0,0.0,0.0,0.0,0.0,0.0,0.0,0.0,0.0,0.0,0.0,0.0,0.0,0.0,0.0,0.0,0.0,0.0,0.0,0.0,0.0,0.0,0.0,0.0,0.0,0.0,0.0,0.0,0.0,0.0,0.0,0.0,0.0,0.0,0.0,0.0,0.0,0.0,0.0,0.0,0.0,0.0,0.0,0.0,0.0,0.0,0.0,0.0,0.0,0.0,0.0,0.0,0.0,0.0,0.0,0.0,0.0,0.0,0.0,0.0,0.0,0.0,0.0,0.0,0.0,0.0,0.0,0.0,0.0,0.0,0.0,0.0,0.0,0.0,0.0,0.0,0.0,0.0,0.0,1.849,1.9068,1.9249,2.0187,2.0274,1.9557,1.9598,1.9355,1.8855,0.0,0.0,0.0,0.0,0.0,0.0,0.0,0.0,0.0,0.0,0.0,0.0,0.0,0.0,0.0,0.0,0.0,0.0,0.0,0.0,0.0,0.0,0.0,0.0,0.0,0.0,0.0,0.0,0.0,0.0,0.0,0.0,0.0,0.0,0.0,0.0,0.0,0.0,1.0597,1.0904,0.0,0.0,0.0,0.0,0.0,0.0,0.0,0.0,1.0845,0.0,0.0,0.0,0.0,0.0,0.0,0.0,0.0,0.0,0.0,0.0,0.0,0.0,0.0,0.0,0.0,0.0,0.0,0.0,0.0,0.0,0.0,0.0,0.0,0.0,0.0,0.0,0.0,0.0,0.0,0.0,0.0,0.0,0.0,0.0,0.0,0.0,0.0,0.0,0.0,0.0,0.0,0.0,0.0,0.0,0.0,0.0,0.0,0.0,0.0,0.0,0.0,0.0,0.0,0.0,0.0,1.7655,1.8689,1.9476,1.9926,2.0813,2.0781,1.9814,1.9645,1.9167,1.8244,0.0,0.0,0.0,0.0,0.0,0.0,0.0,0.0,0.0,0.0,0.0,0.0,0.0,0.0,0.0,0.0,0.0,0.0,0.0,0.0,0.0,0.0,0.0,0.0,0.0,0.0,0.0,0.0,0.0,0.0,0.0,0.0,0.0,0.0,0.0,0.0,0.0,0.0,0.0,1.0951,1.1057,0.0,0.0,0.0,0.0,0.0,0.0,0.0,0.0,1.0518,0.0,0.0,0.0,0.0,0.0,0.0,0.0,0.0,0.0,0.0,0.0,0.0,0.0,0.0,0.0,0.0,0.0,0.0,0.0,0.0,0.0,0.0,0.0,0.0,0.0,0.0,0.0,0.0,0.0,0.0,0.0,0.0,0.0,0.0,0.0,0.0,0.0,0.0,0.0,0.0,0.0,0.0,0.0,0.0,0.0,0.0,0.0,0.0,0.0,0.0,0.0,0.0,0.0,0.0,0.0,1.7363,1.8325,1.9113,1.9747,2.0616,2.0569,1.949,1.9364,1.8846,0.0,0.0,0.0,0.0,0.0,0.0,0.0,0.0,0.0,0.0,0.0,0.0,0.0,0.0,0.0,0.0,0.0,0.0,0.0,0.0,0.0,0.0,0.0,0.0,0.0,0.0,0.0,0.0,0.0,0.0,0.0,0.0,0.0,0.0,0.0,0.0,0.0,0.0,0.0,0.0,1.0914,1.0972,1.0913,0.0,0.0,0.0,0.0,0.0,0.0,1.028,1.0236,0.0,0.0,0.0,0.0,0.0,0.0,0.0,0.0,0.0,0.0,0.0,0.0,0.0,0.0,0.0,0.0,0.0,0.0,0.0,0.0,0.0,0.0,0.0,0.0,0.0,0.0,0.0,0.0,0.0,0.0,0.0,0.0,0.0,0.0,0.0,0.0,0.0,0.0,0.0,0.0,0.0,0.0,0.0,0.0,0.0,0.0,0.0,0.0,0.0,0.0,0.0,0.0,0.0,0.0,0.0,1.6973,1.7852,1.8677,1.9344,2.0126,2.0025,1.8943,1.8911,1.8406,0.0,0.0,0.0,0.0,0.0,0.0,0.0,0.0,0.0,0.0,0.0,0.0,0.0,0.0,0.0,0.0,0.0,0.0,0.0,0.0,0.0,0.0,0.0,0.0,0.0,0.0,0.0,0.0,0.0,0.0,0.0,0.0,0.0,0.0,0.0,0.0,0.0,0.0,0.0,0.0,0.0,1.0718,1.0718,1.0514,0.0,0.0,0.0,0.0,0.9999,1.0053,0.0,0.0,0.0,0.0,0.0,0.0,0.0,0.0,0.0,0.0,0.0,0.0,0.0,0.0,0.0,0.0,0.0,0.0,0.0,0.0,0.0,0.0,0.0,0.0,0.0,0.0,0.0,0.0,0.0,0.0,0.0,0.0,0.0,0.0,0.0,0.0,0.0,0.0,0.0,0.0,0.0,0.0,0.0,0.0,0.0,0.0,0.0,0.0,0.0,0.0,0.0,0.0,0.0,0.0,0.0,0.0,1.6926,1.7721,1.8491,1.9221,1.9567,1.9233,1.8251,1.8286,1.7801,0.0,0.0,0.0,0.0,0.0,0.0,0.0,0.0,0.0,0.0,0.0,0.0,0.0,0.0,0.0,0.0,0.0,0.0,0.0,0.0,0.0,0.0,0.0,0.0,0.0,0.0,0.0,0.0,0.0,0.0,0.0,0.0,0.0,0.0,0.0,0.0,0.0,0.0,0.0,0.0,0.0,1.0102,1.0102,1.011,1.0051,0.0,0.0,0.9991,1.0007,1.0137,0.0,0.0,0.0,0.0,0.0,0.0,0.0,0.0,0.0,0.0,0.0,0.0,0.0,0.0,0.0,0.0,0.0,0.0,0.0,0.0,0.0,0.0,0.0,0.0,0.0,0.0,0.0,0.0,0.0,0.0,0.0,0.0,0.0,0.0,0.0,0.0,0.0,0.0,0.0,0.0,0.0,0.0,0.0,0.0,0.0,0.0,0.0,0.0,0.0,0.0,0.0,0.0,0.0,0.0,0.0,1.5676,1.6665,1.7191,1.7798,1.8566,1.8857,1.8666,1.7894,1.7654,1.7158,0.0,0.0,0.0,0.0,0.0,0.0,0.0,0.0,0.0,0.0,0.0,0.0,0.0,0.0,0.0,0.0,0.0,0.0,0.0,0.0,0.0,0.0,0.0,0.0,0.0,0.0,0.0,0.0,0.0,0.0,0.0,0.0,0.0,0.0,0.0,0.0,0.0,0.0,0.0,0.0,0.0,0.0,1.0037,1.0006,0.0,0.0,0.0,1.0053,1.0064,0.0,0.0,0.0,0.0,0.0,0.0,0.0,0.0,0.0,0.0,0.0,0.0,0.0,0.0,0.0,0.0,0.0,0.0,0.0,0.0,0.0,0.0,0.0,0.0,0.0,0.0,0.0,0.0,0.0,0.0,0.0,0.0,0.0,0.0,0.0,0.0,0.0,0.0,0.0,0.0,0.0,0.0,0.0,0.0,0.0,0.0,0.0,0.0,0.0,0.0,0.0,0.0,0.0,0.0,0.0,0.0,0.0,1.6181,1.6569,1.7081,1.7765,1.8061,1.7917,1.7358,1.703,0.0,0.0,0.0,0.0,0.0,0.0,0.0,0.0,0.0,0.0,0.0,0.0,0.0,0.0,0.0,0.0,0.0,0.0,0.0,0.0,0.0,0.0,0.0,0.0,0.0,0.0,0.0,1.0945,0.0,0.0,0.0,0.0,0.0,0.0,0.0,0.0,0.0,0.0,0.0,0.0,0.0,0.0,0.9904,1.0082,1.0,1.003,0.0,0.0,1.0122,1.0115,1.0203,1.022,0.0,0.0,0.0,0.0,0.0,0.0,0.0,0.0,0.0,0.0,0.0,0.0,0.0,0.0,0.0,0.0,0.0,0.0,0.0,0.0,0.0,0.0,0.0,0.0,0.0,0.0,0.0,0.0,0.0,0.0,0.0,0.0,0.0,0.0,0.0,0.0,0.0,0.0,0.0,0.0,0.0,0.0,0.0,0.0,0.0,0.0,0.0,0.0,0.0,0.0,0.0,0.0,0.0,0.0,0.0,1.5265,1.5997,1.6507,1.6864,1.7011,1.6829,1.6321,1.6406,1.6208,0.0,0.0,0.0,0.0,0.0,0.0,0.0,0.0,0.0,0.0,0.0,0.0,0.0,0.0,0.0,0.0,0.0,0.0,0.0,0.0,0.0,0.0,0.0,0.0,0.0,0.0,0.0,0.0,0.0,0.0,0.0,0.0,0.0,0.0,0.0,0.0,0.0,0.0,0.0,0.0,0.0,1.0072,1.0093,1.01,1.0107,0.0,0.0,1.0086,1.0128,1.0376,1.047,1.0309,0.0,0.0,0.0,0.0,0.0,0.0,0.0,0.0,0.0,0.0,0.0,0.0,0.0,0.0,0.0,0.0,0.0,0.0,0.0,0.0,0.0,0.0,0.0,0.0,0.0,0.0,0.0,0.0,0.0,0.0,0.0,0.0,0.0,0.0,0.0,0.0,0.0,0.0,0.0,0.0,0.0,0.0,0.0,0.0,0.0,0.0,0.0,0.0,0.0,0.0,0.0,0.0,0.0,1.4415,1.4754,1.5197,1.5575,1.5941,1.6083,1.6115,1.6017,1.5804,1.5577,0.0,0.0,0.0,0.0,0.0,0.0,0.0,0.0,0.0,0.0,0.0,0.0,0.0,0.0,0.0,0.0,0.0,0.0,0.0,0.0,0.0,0.0,0.0,0.0,0.0,0.0,0.0,0.0,1.0154,1.0007,0.9784,0.0,0.0,0.0,0.0,0.0,0.0,0.0,0.0,0.0,0.0,0.9681,0.9801,0.9768,0.0,0.0,1.0017,1.0017,1.003,1.0158,1.0199,1.0145,1.0166,0.0,0.0,0.0,0.0,0.0,0.0,0.0,0.0,0.0,0.0,0.0,0.0,0.0,0.0,0.0,0.0,0.0,0.0,0.0,0.0,0.0,0.0,0.0,0.0,0.0,0.0,0.0,0.0,0.0,0.0,0.0,0.0,0.0,0.0,0.0,0.0,0.0,0.0,0.0,0.0,0.0,0.0,0.0,0.0,0.0,0.0,0.0,0.0,0.0,0.0,0.0,0.0,1.3873,1.4291,1.4474,1.4781,1.5112,1.5098,1.5216,1.5332,1.5012,1.4867,0.0,0.0,0.0,0.0,0.0,0.0,0.0,0.0,0.0,0.0,0.0,0.0,0.0,0.0,0.0,0.0,0.0,0.0,0.0,0.0,0.0,0.0,0.0,0.0,0.0,0.0,0.0,0.0,0.9863,0.9707,0.9484,0.0,0.0,0.0,0.0,0.0,0.0,0.0,0.0,0.0,0.0,0.9471,0.9544,0.9569,0.9637,0.9901,0.997,0.9996,1.0091,1.0135,1.0108,1.0152,0.0,0.0,0.0,0.0,0.0,0.0,0.0,0.0,0.0,0.0,0.0,0.0,0.0,0.0,0.0,0.0,0.0,0.0,0.0,0.0,0.0,0.0,0.0,0.0,0.0,0.0,0.0,0.0,0.0,0.0,0.0,0.0,0.0,0.0,0.0,0.0,0.0,0.0,0.0,0.0,0.0,0.0,0.0,0.0,0.0,0.0,0.0,0.0,0.0,0.0,0.0,0.0,0.0,1.3293,1.3807,1.3856,1.4074,1.4462,1.4196,1.4019,1.4079,1.4061,1.4052,1.4052,0.0,0.0,0.0,0.0,0.0,0.0,0.0,0.0,0.0,0.0,0.0,0.0,0.0,0.0,0.0,0.0,0.0,0.0,0.0,0.0,0.0,0.0,0.0,0.0,0.0,0.0,0.9911,0.9812,0.9748,0.0,0.0,0.0,0.0,0.0,0.0,0.0,0.0,0.0,0.0,0.9481,0.95,0.9512,0.9518,0.96,0.9823,0.9798,0.9943,1.0284,1.0336,1.0393,0.0,0.0,0.0,0.0,0.0,0.0,0.0,0.0,0.0,0.0,0.0,0.0,0.0,0.0,0.0,0.0,0.0,0.0,0.0,0.0,0.0,0.0,0.0,0.0,0.0,0.0,0.0,0.0,1.1224,0.0,0.0,0.0,0.0,0.0,0.0,0.0,0.0,0.0,0.0,0.0,1.0461,1.0692,0.0,0.0,0.0,0.0,0.0,0.0,0.0,0.0,0.0,0.0,0.0,0.0,1.3103,1.3278,1.3502,1.3745,1.4047,1.3938,1.3819,1.3701,1.3701,1.3583,1.3329,0.0,0.0,0.0,0.0,0.0,0.0,0.0,0.0,0.0,0.0,0.0,0.0,0.0,0.0,0.0,0.0,0.0,0.0,0.0,0.0,0.0,0.0,0.0,0.0,0.0,0.9855,0.0,0.0,0.0,0.0,0.0,0.0,0.0,0.0,0.0,0.0,0.0,0.9277,0.915,0.9297,0.946,0.946,0.9545,0.9655,0.0,0.0,0.0,0.0,0.0,0.0,0.0,0.0,0.0,0.0,0.0,0.0,0.0,0.0,0.8638,0.8569,0.8513,0.8379,0.8044,0.0,0.0,0.0,0.0,0.0,0.0,0.0,0.0,0.0,0.0,0.0,0.0,0.0,0.0,0.0,0.0,1.1067,0.0,0.0,0.0,0.0,0.0,0.0,0.0,0.0,1.0231,1.0313,1.0325,1.0568,1.073,0.0,1.0785,1.0953,0.0,0.0,0.0,0.0,0.0,0.0,0.0,0.0,1.2705,1.2809,1.2983,1.3245,1.3481,1.3372,1.3267,1.3105,1.3097,1.3004,1.2656,1.2632,1.2585,0.0,0.0,0.0,0.0,0.0,0.0,0.0,0.0,0.0,0.0,0.0,0.0,0.0,0.0,0.0,0.0,0.0,0.0,0.0,0.0,0.0,0.0,0.0,0.9761,0.0,0.0,0.0,0.0,0.0,0.0,0.0,0.0,0.0,0.8931,0.9045,0.9111,0.9003,0.908,0.9111,0.9111,0.0,0.0,0.0,0.0,0.0,0.0,0.0,0.9652,0.9664,0.968,0.9603,0.9392,0.9171,0.8949,0.8665,0.0,0.0,0.8538,0.8445,0.8327,0.7986,0.79,0.7875,0.752,0.7491,0.7432,0.0,0.0,0.0,0.0,0.0,0.0,0.0,0.0,1.1158,1.0956,0.0,1.0545,0.0,0.0,0.0,0.0,0.0,0.0,0.0,0.0,1.0251,1.046,1.05,1.0948,1.118,1.118,1.0937,1.0913,1.0878,1.0827,0.0,0.0,0.0,0.0,0.0,0.0,1.2075,1.236,1.2441,1.2564,1.2931,1.264,1.2398,1.239,1.2369,1.2217,1.2,1.1985,1.184,1.1611,1.1597,0.0,0.0,0.0,0.0,0.0,0.0,0.0,0.0,0.0,0.0,0.0,0.0,0.0,0.0,0.0,0.0,0.0,0.0,0.0,0.0,0.9494,0.0,0.0,0.0,0.0,0.0,0.0,0.0,0.0,0.0,0.0,0.9034,0.8934,0.8811,0.8889,0.0,0.0,0.0,0.0,0.8674,0.8886,0.8881,0.9035,0.9405,0.951,0.9511,0.9578,0.0,0.0,0.9316,0.9241,0.9074,0.8775,0.868,0.8581,0.8346,0.8141,0.795,0.7847,0.7772,0.7729,0.7512,0.7468,0.7403,1.3065,0.0,0.0,0.0,0.0,1.2305,1.2075,1.1852,1.1769,1.1455,1.1224,1.0916,0.0,0.0,0.0,0.0,0.0,0.0,0.9844,0.9844,0.9968,1.011,1.0115,1.0321,1.0471,1.0471,1.0562,1.061,1.0599,1.0634,1.0819,1.1144,0.0,0.0,0.0,0.0,1.1794,1.1939,1.2163,1.238,1.2469,1.238,1.223,1.1948,1.173,1.158,1.1492,1.1492,1.1451,1.137,1.137,0.0,0.0,0.0,0.0,0.0,0.0,0.0,0.0,0.0,0.0,0.0,0.0,0.0,0.0,0.0,0.0,0.0,0.0,0.0,0.9482,0.9548,0.9581,0.0,0.0,0.0,0.0,0.0,0.0,0.0,0.0,0.0,0.8566,0.8649,0.8648,0.0,0.0,0.8887,0.8887,0.9028,0.9129,0.9204,0.0,0.0,0.0,0.9376,0.9396,0.9387,0.9165,0.8932,0.8708,0.856,0.8408,0.8331,0.825,0.825,0.8363,0.8174,0.8032,0.7841,0.7702,0.7495,0.7322,0.727,0.7123,1.3567,1.3419,1.2985,1.2644,1.2399,1.216,1.2,1.176,1.1599,1.1358,1.1111,1.0794,1.0552,1.039,0.9984,0.0,0.0,0.0,0.9658,0.9658,0.9746,0.979,0.9795,1.004,1.0075,1.0158,1.0156,1.0115,1.0115,1.0019,1.0168,1.0617,0.0,0.0,1.0545,1.1183,1.1585,1.1661,1.1961,1.212,1.212,1.2011,1.1819,1.1537,1.1287,1.1147,1.1039,1.1032,1.0982,1.0873,1.0867,1.0861,0.0,0.0,0.0,0.0,0.0,0.0,0.0,0.0,0.0,0.0,0.0,1.0341,1.0341,0.0,0.0,0.0,0.9982,0.9778,0.9579,0.9524,0.0,0.0,0.0,0.0,0.0,0.0,0.0,0.8571,0.8428,0.8309,0.8282,0.8342,0.8408,0.8408,0.8586,0.8668,0.8668,0.0,0.8908,0.8913,0.898,0.9037,0.9037,0.9037,0.9037,0.9037,0.8876,0.864,0.8409,0.8251,0.8098,0.7936,0.7936,0.789,0.7994,0.7848,0.7778,0.7857,0.762,0.7383,0.7228,0.7148,0.7049,1.3888,1.3339,1.2541,1.214,1.1966,1.1636,1.1479,1.1229,1.1072,1.0827,1.0582,1.0336,1.0008,0.9606,0.9339,0.0,0.0,0.9252,0.9266,0.9261,0.9541,0.9634,0.9644,0.9826,1.0003,0.9998,0.9723,0.9634,0.963,0.934,0.9408,0.9838,1.0213,1.0497,1.0536,1.0939,1.1192,1.1433,1.1588,1.1674,1.1668,1.1528,1.1278,1.0998,1.0992,1.0873,1.0695,1.0605,1.0498,1.0195,1.0172,1.0172,1.0172,0.0,0.0,0.0,0.0,0.0,0.0,0.0,0.0,0.0,0.0,0.0,0.0,0.0,0.0,0.0,0.977,0.0,0.9637,0.9449,0.0,0.0,0.0,0.8771,0.8634,0.8665,0.8567,0.8425,0.0,0.0,0.0,0.0,0.8073,0.7996,0.806,0.8128,0.8146,0.8299,0.8405,0.8484,0.855,0.8587,0.8638,0.8556,0.8556,0.8474,0.8509,0.841,0.8246,0.8168,0.8016,0.7667,0.7604,0.7529,0.7375,0.7292,0.7386,0.7804,0.7529,0.727,0.7259,0.7109,0.6957,1.3332,1.2848,1.2338,1.2237,1.2503,1.2237,1.1965,1.1793,1.1526,1.1169,1.0811,1.0546,1.0187,0.9741,0.9737,0.9646,0.9646,0.9642,0.9646,0.9651,0.9695,0.9717,0.9717,0.9857,0.988,0.9875,0.9835,0.9717,0.9708,0.9522,0.9433,0.9425,0.9543,0.9817,1.0162,1.0308,1.0465,1.0546,1.0708,1.0789,1.0789,1.0729,1.0666,1.0412,1.0407,1.0297,1.0066,1.006,1.0032,0.9977,0.9966,0.9977,0.9972,0.9972,0.0,0.0,0.0,0.0,0.0,0.0,0.0,0.0,0.0,0.9685,0.9552,0.0,0.9491,0.0,0.9136,0.9071,0.9066,0.8944,0.0,0.0,0.8753,0.8702,0.8482,0.8454,0.8406,0.809,0.7962,0.7865,0.7744,0.7596,0.7492,0.7489,0.8011,0.8365,0.843,0.8491,0.8526,0.853,0.8574,0.8513,0.8366,0.818,0.8024,0.7851,0.7855,0.7769,0.7529,0.7533,0.7529,0.7364,0.7364,0.7409,0.7436,0.7208,0.7086,0.7246,0.7193,0.7026,0.7112,0.6867,0.6698,1.3448,1.2967,1.2769,1.2673,1.2641,1.2128,1.1768,1.1671,1.1303,1.0935,1.0662,1.0107,0.974,0.9461,0.9181,0.9177,0.9084,0.9181,0.9177,0.9177,0.9088,0.9177,0.9088,0.9177,0.9177,0.9181,0.9177,0.9084,0.9173,0.8991,0.8942,0.9021,0.9018,0.9042,0.9269,0.9696,1.0026,1.0109,1.0193,1.0226,1.0135,1.013,1.0019,0.9792,0.9782,0.9731,0.9605,0.9519,0.9463,0.9458,0.9443,0.9387,0.9387,0.9382,0.9387,0.0,0.0,0.0,0.0,0.0,0.0,0.0,0.0,0.0,0.0,0.0,0.9161,0.0,0.8865,0.8797,0.8797,0.8697,0.8675,0.8519,0.8549,0.8436,0.819,0.8115,0.8011,0.7873,0.7613,0.75,0.7495,0.7357,0.7311,0.7373,0.7722,0.791,0.802,0.8081,0.8134,0.8134,0.8203,0.826,0.8094,0.8001,0.7828,0.7658,0.7573,0.7491,0.7154,0.7073,0.7069,0.6898,0.6895,0.6919,0.6997,0.6847,0.6705,0.6744,0.675,0.6734,0.6721,0.6615,0.6496,1.3766,1.3265,1.3265,1.2956,1.2382,1.1616,1.1288,1.1288,1.082,1.0538,1.0355,0.951,0.9029,0.9005,0.8627,0.8419,0.84,0.8302,0.8302,0.84,0.84,0.84,0.84,0.84,0.84,0.84,0.8396,0.84,0.84,0.8381,0.846,0.8644,0.8531,0.8516,0.8311,0.9037,0.9565,0.9777,0.9859,0.9693,0.9521,0.9432,0.9331,0.9128,0.9028,0.9019,0.9073,0.8912,0.882,0.8815,0.8723,0.863,0.863,0.8625,0.863,0.0,0.8625,0.0,0.0,0.0,0.0,0.0,0.0,0.0,0.0,0.8964,0.8856,0.8625,0.8625,0.8625,0.8625,0.8562,0.8506,0.8263,0.8171,0.8102,0.7847,0.76,0.748,0.7462,0.7319,0.7188,0.7208,0.7231,0.7231,0.7346,0.7197,0.7151,0.7224,0.7384,0.7547,0.7547,0.7668,0.7727,0.7735,0.7661,0.7566,0.7394,0.7288,0.7224,0.6779,0.6691,0.6609,0.6422,0.6322,0.6331,0.634,0.6248,0.6248,0.626,0.6242,0.6231,0.6322,0.6325,0.6254,1.3054,1.2751,1.223,1.2024,1.1906,1.1239,1.1277,1.1682,1.1074,1.0561,1.0157,0.9753,0.9372,0.9145,0.9149,0.8965,0.8735,0.863,0.863,0.8732,0.8732,0.8732,0.8732,0.8732,0.8732,0.8732,0.8732,0.8735,0.8728,0.8605,0.8542,0.8634,0.8404,0.8333,0.8236,0.0,0.0,0.0,0.8894,0.8882,0.8761,0.8761,0.8673,0.8408,0.84,0.0,0.818,0.8139,0.8122,0.8122,0.8089,0.0,0.0,0.0,0.0,0.0,0.0,0.0,0.0,0.0,0.0,0.0,0.8116,0.828,0.8696,0.8538,0.832,0.8069,0.8069,0.8069,0.8069,0.7861,0.7804,0.7722,0.7589,0.7443,0.7188,0.7109,0.7012,0.674,0.6696,0.6672,0.6611,0.654,0.6621,0.664,0.6568,0.6558,0.653,0.6893,0.7183,0.7186,0.7037,0.6969,0.6969,0.6789,0.6697,0.6605,0.6605,0.6523,0.626,0.626,0.6169,0.5897,0.5808,0.5808,0.5808,0.5716,0.5625,0.562,0.5447,0.5455,0.5991,0.5988,0.5811,1.2866,0.0,1.2235,1.1912,0.0,1.1167,1.1061,1.1256,1.0753,1.016,0.9743,0.9433,0.9179,0.8995,0.8888,0.8844,0.866,0.8554,0.8456,0.8357,0.8456,0.8357,0.8255,0.8258,0.8255,0.8252,0.818,0.8143,0.8136,0.7997,0.7926,0.8024,0.7845,0.7707,0.7607,0.764,0.7962,0.845,0.845,0.8411,0.8333,0.8329,0.8247,0.8084,0.0,0.0,0.0,0.0,0.0,0.0,0.0,0.0,0.0,0.0,0.0,0.727,0.727,0.727,0.727,0.727,0.727,0.7274,0.7344,0.7654,0.8141,0.7971,0.769,0.7514,0.7353,0.727,0.7274,0.7257,0.7224,0.7059,0.7045,0.6919,0.6741,0.6741,0.6655,0.6481,0.6455,0.6449,0.6438,0.6349,0.6254,0.6257,0.608,0.5899,0.5991,0.6346,0.652,0.6432,0.6343,0.6254,0.6257,0.6166,0.5985,0.5899,0.5899,0.5813,0.5547,0.546,0.5371,0.5191,0.5099,0.501,0.501,0.4919,0.4828,0.4825,0.4739,0.4654,0.501,0.5099,0.5191,1.2755,1.2388,1.2279,1.1928,1.1459,1.1131,1.0802,1.0457,0.0,0.0,0.0,0.91,0.8874,0.8741,0.8526,0.8401,0.8377,0.8272,0.8167,0.796,0.796,0.7858,0.7651,0.7651,0.7651,0.7644,0.7535,0.7376,0.7473,0.7342,0.7275,0.7475,0.7253,0.7135,0.7027,0.7033,0.7408,0.8051,0.8088,0.7998,0.7876,0.7872,0.7811,0.7678,0.7731,0.7627,0.7716,0.7472,0.7386,0.7382,0.7264,0.7028,0.6937,0.6937,0.6773,0.6605,0.6521,0.6525,0.6525,0.6525,0.6525,0.6437,0.6626,0.6888,0.7329,0.7264,0.7115,0.6937,0.6689,0.6525,0.6609,0.6708,0.6694,0.6442,0.6546,0.652,0.6254,0.6254,0.6154,0.6163,0.6154,0.6169,0.6094,0.5997,0.5905,0.5816,0.546,0.5193,0.5191,0.5547,0.5813,0.5633,0.5544,0.5542,0.5542,0.5453,0.5366,0.5193,0.5191,0.5102,0.4832,0.4656,0.448,0.4391,0.421,0.4121,0.4032,0.403,0.403,0.4032,0.4032,0.3942,0.3851,0.4032,0.4304,1.2199,1.2172,1.1716,1.1283,1.0802,1.0586,1.0147,0.9592,0.9768,0.964,0.9424,0.9315,0.9022,0.8363,0.8696,0.8408,0.7756,0.797,0.7864,0.0,0.7648,0.7648,0.7651,0.7651,0.7651,0.7648,0.7524,0.762,0.75,0.748,0.7415,0.74,0.7296,0.7138,0.7132,0.712,0.7201,0.7375,0.7145,0.702,0.7001,0.7001,0.6995,0.697,0.685,0.6791,0.6788,0.6656,0.6577,0.6577,0.6562,0.6549,0.6461,0.6455,0.6461,0.6461,0.6461,0.6377,0.6204,0.6204,0.6116,0.5846,0.586,0.6081,0.6649,0.6747,0.6734,0.6546,0.6449,0.6461,0.6461,0.6301,0.6222,0.6139,0.5974,0.5722,0.5547,0.5547,0.5458,0.5275,0.5188,0.5186,0.5191,0.5191,0.5102,0.4926,0.4837,0.4659,0.4387,0.4743,0.5099,0.5099,0.4924,0.4837,0.4837,0.4656,0.4565,0.4478,0.4476,0.4389,0.4117,0.3853,0.3678,0.3497,0.3317,0.3136,0.3136,0.3135,0.3136,0.3139,0.3141,0.3141,0.3051,0.2962,0.3051,1.1986,1.1811,1.1452,1.1057,1.0525,1.0096,0.9672,0.9151,0.9151,0.904,0.893,0.893,0.8673,0.8178,0.8291,0.8147,0.7756,0.7642,0.7533,0.7651,0.7648,0.7434,0.7105,0.7108,0.6999,0.6888,0.6824,0.6794,0.6784,0.6671,0.6612,0.6604,0.6492,0.6436,0.643,0.6369,0.6334,0.6331,0.6822,0.7024,0.6858,0.6954,0.6819,0.6555,0.6491,0.6461,0.6281,0.6221,0.6162,0.6093,0.6091,0.6059,0.5816,0.5813,0.5811,0.563,0.563,0.5633,0.5547,0.5547,0.5481,0.536,0.5368,0.5463,0.5839,0.5947,0.5994,0.5902,0.5722,0.5633,0.563,0.5544,0.5458,0.5455,0.5366,0.5275,0.5191,0.5191,0.5099,0.483,0.4832,0.4835,0.4659,0.4478,0.4385,0.4297,0.4032,0.3765,0.3406,0.3673,0.3941,0.4121,0.4121,0.4123,0.4123,0.4032,0.3853,0.3764,0.3673,0.3583,0.3405,0.3139,0.296,0.2871,0.269,0.2601,0.2601,0.2601,0.2511,0.2513,0.2515,0.2515,0.2515,0.2424,0.2424,1.1794,1.1657,1.1177,1.0686,1.0178,0.9595,0.9246,0.8805,0.8552,0.8422,0.8307,0.839,0.8266,0.7937,0.7823,0.7823,0.7601,0.7149,0.7041,0.7274,0.7274,0.7051,0.6606,0.6604,0.6495,0.6267,0.6189,0.6151,0.6136,0.6043,0.5871,0.5951,0.5872,0.5817,0.5794,0.5715,0.566,0.5636,0.6437,0.6793,0.6703,0.6698,0.6549,0.6263,0.6227,0.6121,0.5934,0.5815,0.5852,0.5768,0.576,0.5629,0.5365,0.5355,0.5265,0.5079,0.5082,0.5082,0.4992,0.4901,0.4936,0.4917,0.4926,0.4866,0.4924,0.4998,0.5177,0.5267,0.5184,0.5089,0.5091,0.4999,0.4901,0.4901,0.4788,0.4692,0.469,0.4757,0.4654,0.4474,0.4389,0.4224,0.408,0.3801,0.3707,0.3547,0.327,0.291,0.2818,0.272,0.289,0.3159,0.3329,0.332,0.332,0.332,0.3229,0.3048,0.3048,0.2959,0.278,0.2602,0.2424,0.2424,0.2244,0.2064,0.2064,0.1885,0.1794,0.1795,0.1795,0.1795,0.1795,0.1795,0.1974,1.1272,1.1647,1.0898,1.0087,0.9388,0.9136,0.8772,0.8509,0.8283,0.8112,0.7873,0.7988,0.7832,0.7607,0.7376,0.7154,0.6826,0.6381,0.6272,0.6386,0.6386,0.6386,0.6386,0.6383,0.6272,0.6274,0.626,0.6248,0.6243,0.6148,0.6051,0.5859,0.5838,0.5894,0.581,0.5789,0.5734,0.5639,0.5737,0.5732,0.5724,0.5722,0.5715,0.5705,0.5618,0.5572,0.5569,0.5477,0.5325,0.541,0.5313,0.5308,0.5296,0.5296,0.5296,0.5294,0.5294,0.5204,0.4915,0.4733,0.4542,0.4271,0.4273,0.4184,0.401,0.3992,0.436,0.5016,0.5298,0.519,0.5207,0.4819,0.4528,0.4518,0.4187,0.3781,0.3867,0.3901,0.3853,0.3757,0.3417,0.3182,0.3377,0.317,0.297,0.2818,0.2634,0.2355,0.2259,0.2234,0.2307,0.2393,0.2457,0.2608,0.2604,0.2424,0.2512,0.2512,0.2424,0.2333,0.2154,0.2064,0.2155,0.1795,0.1705,0.1346,0.1076,0.0807,0.0807,0.0807,0.0807,0.0897,0.0807,0.0808,0.1079,1.088,1.0955,1.0579,0.9884,0.9163,0.8803,0.8521,0.8099,0.793,0.7676,0.7324,0.7161,0.7066,0.7051,0.694,0.6717,0.6495,0.6158,0.6158,0.6272,0.6272,0.6161,0.6047,0.6047,0.5938,0.5828,0.5717,0.5714,0.571,0.5675,0.5636,0.5593,0.5541,0.5491,0.545,0.5393,0.5318,0.5224,0.522,0.5095,0.4943,0.5336,0.5536,0.5334,0.53,0.528,0.5077,0.4847,0.4803,0.4655,0.455,0.4432,0.4385,0.4381,0.4383,0.4383,0.4381,0.4381,0.4286,0.4191,0.4118,0.4062,0.3971,0.3988,0.3939,0.3942,0.4139,0.4422,0.4444,0.4383,0.4385,0.4195,0.4098,0.4095,0.3878,0.3673,0.3484,0.3552,0.3433,0.3039,0.2868,0.2717,0.2678,0.2665,0.2555,0.2381,0.2195,0.2104,0.1812,0.1798,0.1792,0.1785,0.1852,0.2003,0.2254,0.2334,0.2244,0.2155,0.1974,0.1705,0.1076,0.0897,0.0897,0.0897,0.0718,0.0538,0.0359,-0.0,-0.009,-0.009,-0.009,-0.009,-0.0179,-0.0181,0.0091,1.0429,1.0068,0.9943,0.9516,0.8944,0.8705,0.8292,0.785,0.7581,0.7215,0.686,0.6598,0.6498,0.6485,0.6473,0.6362,0.6247,0.6019,0.6016,0.6127,0.6104,0.5978,0.5635,0.5609,0.5377,0.5154,0.5156,0.5156,0.5156,0.5156,0.5156,0.5146,0.5092,0.4939,0.4912,0.496,0.489,0.481,0.48,0.4667,0.4515,0.491,0.509,0.4945,0.4839,0.4738,0.4634,0.4437,0.431,0.4252,0.4051,0.3927,0.3878,0.3873,0.3874,0.3874,0.3874,0.3874,0.3874,0.3874,0.3799,0.3846,0.3754,0.3676,0.3618,0.363,0.353,0.3521,0.3443,0.3491,0.3778,0.3681,0.3584,0.3584,0.3474,0.3267,0.3074,0.3063,0.2946,0.2651,0.2463,0.23,0.2038,0.204,0.1943,0.1847,0.1748,0.1745,0.1355,0.1256,0.125,0.1056,0.1037,0.12,0.1815,0.1619,0.1617,0.1525,0.1166,0.0718,-0.009,-0.0179,-0.0359,-0.0269,-0.0359,-0.0448,-0.0448,-0.0718,-0.0897,-0.0897,-0.0897,-0.0899,-0.0906,-0.0917,-0.1018,0.9579,0.9214,0.8723,0.8599,0.8482,0.8355,0.7983,0.7464,0.7253,0.6971,0.6722,0.6287,0.6116,0.6107,0.6107,0.6105,0.6098,0.5737,0.5616,0.5608,0.5539,0.539,0.5159,0.4968,0.4823,0.4613,0.4606,0.4599,0.4594,0.4592,0.448,0.459,0.4583,0.4439,0.4388,0.4373,0.4331,0.4264,0.4254,0.4251,0.4244,0.4244,0.4174,0.406,0.4034,0.4138,0.4034,0.4033,0.4029,0.4028,0.3922,0.392,0.3919,0.3917,0.3914,0.3915,0.3917,0.3919,0.3912,0.391,0.3817,0.3626,0.3318,0.3124,0.2925,0.2724,0.2623,0.2521,0.2613,0.2806,0.3406,0.3297,0.3106,0.2904,0.2571,0.2452,0.2448,0.2419,0.2404,0.2319,0.1928,0.1645,0.157,0.1097,0.1002,0.0903,0.0804,0.0803,0.08,0.0792,0.0589,0.0195,0.0096,0.0187,0.0555,0.0635,0.0269,0.009,-0.0,-0.0179,-0.0628,-0.0987,-0.1166,-0.1256,-0.1256,-0.1256,-0.1346,-0.1346,-0.1346,-0.1346,-0.1346,-0.1442,-0.1466,-0.1475,-0.1493,0.9098,0.8973,0.8607,0.8366,0.8369,0.8122,0.7875,0.738,0.7101,0.6841,0.6469,0.6075,0.5943,0.5941,0.5698,0.5753,0.577,0.5528,0.5295,0.5293,0.5146,0.4899,0.4895,0.4753,0.474,0.4618,0.4574,0.4526,0.4484,0.448,0.4592,0.4706,0.4592,0.4354,0.4334,0.433,0.4405,0.4233,0.4224,0.4203,0.3948,0.3726,0.3595,0.3451,0.3822,0.4084,0.4036,0.3835,0.3736,0.3734,0.3432,0.3228,0.3229,0.3026,0.2924,0.3025,0.2924,0.2924,0.2925,0.3026,0.2925,0.2826,0.2725,0.2725,0.2522,0.2422,0.2422,0.2522,0.2623,0.2725,0.2726,0.2725,0.2725,0.2722,0.2608,0.2396,0.2398,0.2387,0.2084,0.1592,0.119,0.1192,0.1396,0.1409,0.0808,-0.0404,-0.0707,-0.0505,-0.0303,-0.0201,-0.03,-0.0498,-0.0782,-0.1152,-0.1347,-0.0645,-0.0538,-0.1166,-0.1436,-0.1528,-0.1798,-0.1804,-0.1896,-0.1811,-0.1807,-0.1804,-0.1807,-0.1797,-0.1797,-0.1795,-0.1795,-0.1821,-0.1946,-0.1871,-0.1994,0.8835,0.8673,0.8427,0.8281,0.8244,0.7872,0.7505,0.7266,0.6898,0.653,0.6283,0.5914,0.5794,0.5671,0.5423,0.5245,0.5381,0.5141,0.5141,0.5137,0.4876,0.4624,0.4619,0.4599,0.4472,0.4461,0.4284,0.4222,0.4067,0.4042,0.4145,0.4147,0.4035,0.3921,0.381,0.3921,0.3898,0.3755,0.3749,0.3616,0.347,0.325,0.3133,0.3007,0.3398,0.3556,0.3493,0.337,0.326,0.3258,0.2938,0.2624,0.2624,0.2522,0.2422,0.2422,0.2422,0.2422,0.2522,0.2522,0.2522,0.2422,0.2423,0.2424,0.2424,0.2221,0.2221,0.2322,0.2119,0.2019,0.1717,0.1615,0.1817,0.2221,0.2221,0.2019,0.192,0.1717,0.1211,0.0504,0.0302,0.0404,0.0707,0.0808,0.0101,-0.1212,-0.1415,-0.1415,-0.1111,-0.1212,-0.1313,-0.1312,-0.1694,-0.1968,-0.206,-0.1624,-0.1396,-0.1948,-0.202,-0.2286,-0.2462,-0.2464,-0.2465,-0.2285,-0.2283,-0.2279,-0.2269,-0.2255,-0.2248,-0.2246,-0.2175,-0.2019,-0.2149,-0.2282,-0.2318,0.8661,0.8432,0.8179,0.7997,0.7913,0.7654,0.7273,0.6912,0.653,0.6283,0.5914,0.5546,0.5421,0.5298,0.5056,0.4928,0.4914,0.4785,0.4787,0.4906,0.4729,0.458,0.4213,0.4164,0.4017,0.3777,0.3714,0.3569,0.333,0.3285,0.3148,0.3034,0.292,0.2918,0.3031,0.2917,0.2805,0.2799,0.291,0.2799,0.2692,0.2794,0.2774,0.2631,0.2622,0.26,0.2559,0.2619,0.2698,0.2796,0.2554,0.2425,0.2428,0.2323,0.2321,0.2321,0.2321,0.2522,0.2623,0.2523,0.2321,0.222,0.2324,0.2224,0.2021,0.1718,0.1516,0.1415,0.1111,0.0707,0.0202,0.0101,0.0505,0.1313,0.1111,0.0808,0.0707,0.0303,-0.0202,-0.0606,-0.0707,-0.0808,-0.0808,-0.0606,-0.0808,-0.101,-0.1415,-0.1718,-0.1617,-0.192,-0.2224,-0.2224,-0.2314,-0.2497,-0.2489,-0.238,-0.2444,-0.2603,-0.2474,-0.2452,-0.263,-0.2722,-0.281,-0.2717,-0.2792,-0.2786,-0.2683,-0.2572,-0.2533,-0.2441,-0.2378,-0.2326,-0.2477,-0.2525,-0.2553,0.8339,0.8306,0.8179,0.8033,0.7736,0.7663,0.7254,0.662,0.6436,0.6037,0.5544,0.5421,0.53,0.5054,0.4687,0.4562,0.4562,0.4193,0.4195,0.4435,0.4295,0.4041,0.3792,0.3776,0.3506,0.3234,0.3097,0.3069,0.2916,0.2875,0.2853,0.2735,0.2709,0.2469,0.2244,0.2468,0.2693,0.2693,0.2806,0.2919,0.2918,0.2806,0.2685,0.2674,0.2338,0.1997,0.2096,0.2471,0.2645,0.2536,0.2418,0.219,0.1958,0.183,0.1819,0.1818,0.1818,0.1818,0.1919,0.1615,0.1414,0.1313,0.1313,0.1111,0.0808,0.0606,0.0505,0.0505,0.0303,-0.0,-0.0505,-0.0909,-0.0606,0.0404,-0.0,-0.0303,-0.0303,-0.0707,-0.1111,-0.1313,-0.1313,-0.1313,-0.1313,-0.1313,-0.1415,-0.1617,-0.192,-0.2022,-0.2121,-0.2323,-0.2423,-0.2423,-0.2623,-0.2924,-0.2912,-0.3003,-0.3181,-0.3144,-0.3015,-0.2897,-0.2987,-0.3079,-0.317,-0.3257,-0.3236,-0.3219,-0.3112,-0.2991,-0.2948,-0.2839,-0.2872,-0.2847,-0.2833,-0.2872,-0.2891,0.821,0.8044,0.8041,0.7889,0.7463,0.739,0.6986,0.6593,0.6251,0.584,0.5464,0.5186,0.493,0.4687,0.4195,0.407,0.407,0.3579,0.3577,0.3824,0.3702,0.3455,0.3331,0.3331,0.3194,0.292,0.2901,0.2759,0.2612,0.2574,0.2546,0.2412,0.239,0.2258,0.1908,0.2132,0.2356,0.2356,0.2468,0.2468,0.2244,0.2132,0.2019,0.2019,0.1683,0.157,0.1792,0.1867,0.1949,0.2044,0.1819,0.1378,0.1049,0.0934,0.1029,0.1022,0.102,0.1018,0.1012,0.0707,0.0404,0.0303,0.0202,-0.0,-0.0505,-0.0606,-0.0606,-0.0606,-0.0808,-0.101,-0.1313,-0.1717,-0.1616,-0.101,-0.101,-0.1111,-0.1212,-0.1516,-0.1718,-0.1819,-0.1818,-0.1919,-0.1919,-0.1919,-0.202,-0.2223,-0.2324,-0.2324,-0.2522,-0.2624,-0.2724,-0.2825,-0.3126,-0.3428,-0.353,-0.3629,-0.3729,-0.3698,-0.3662,-0.3549,-0.3538,-0.3636,-0.3731,-0.3635,-0.3718,-0.3594,-0.348,-0.354,-0.3499,-0.3402,-0.3399,-0.3384,-0.3367,-0.3483,-0.3503,0.8254,0.79,0.7898,0.7582,0.7243,0.6841,0.6706,0.6434,0.5841,0.5552,0.5286,0.4729,0.4328,0.42,0.3706,0.3454,0.3455,0.3085,0.296,0.3085,0.2962,0.2961,0.296,0.2961,0.2835,0.2827,0.2798,0.2658,0.2412,0.2259,0.2109,0.1971,0.1847,0.1715,0.1585,0.1688,0.1801,0.1802,0.1797,0.157,0.1121,0.0897,0.0785,0.0785,0.0673,0.0897,0.1121,0.0558,0.0444,0.1314,0.054,-0.0,-0.0107,-0.0214,-0.0211,-0.0104,-0.0104,-0.0103,-0.0102,-0.0204,-0.0407,-0.0812,-0.0913,-0.1112,-0.1516,-0.1616,-0.1616,-0.1616,-0.1919,-0.2223,-0.2223,-0.2323,-0.2422,-0.2321,-0.1918,-0.1717,-0.1718,-0.2021,-0.2122,-0.2122,-0.2221,-0.2422,-0.2321,-0.2422,-0.2422,-0.2522,-0.2623,-0.2724,-0.2925,-0.3228,-0.3429,-0.363,-0.383,-0.4033,-0.4236,-0.4332,-0.4533,-0.4522,-0.4394,-0.4189,-0.4086,-0.4088,-0.4191,-0.4097,-0.4093,-0.3971,-0.3951,-0.3912,-0.3883,-0.3773,-0.3799,-0.3857,-0.3886,-0.3802,-0.3812,0.8174,0.8013,0.7749,0.7332,0.703,0.6575,0.6284,0.6013,0.5413,0.5125,0.4855,0.429,0.4014,0.3761,0.3348,0.3085,0.3087,0.2837,0.259,0.2591,0.2346,0.2469,0.2468,0.2346,0.2223,0.2221,0.2212,0.2209,0.2084,0.2054,0.2034,0.1907,0.1412,0.0935,0.0581,0.0919,0.1143,0.1254,0.1579,0.1684,0.1347,0.0561,-0.0224,-0.1009,-0.1009,-0.0673,-0.0336,-0.0897,-0.1008,-0.0334,-0.0877,-0.1086,-0.0759,-0.1076,-0.128,-0.1274,-0.1271,-0.1269,-0.1263,-0.126,-0.1463,-0.196,-0.1854,-0.2048,-0.2425,-0.2423,-0.2322,-0.222,-0.2322,-0.2423,-0.2423,-0.2523,-0.2522,-0.2624,-0.2422,-0.222,-0.2221,-0.2221,-0.2322,-0.2321,-0.2422,-0.2522,-0.2724,-0.2724,-0.2925,-0.3126,-0.3327,-0.3428,-0.363,-0.3831,-0.4133,-0.4236,-0.4537,-0.4738,-0.4937,-0.5135,-0.5233,-0.5233,-0.5122,-0.482,-0.4716,-0.4518,-0.4522,-0.4628,-0.4518,-0.4497,-0.4307,-0.4294,-0.4175,-0.4141,-0.4072,-0.4107,-0.4011,-0.4021,-0.4024,0.7791,0.7655,0.7388,0.6987,0.6575,0.6259,0.5975,0.5565,0.5106,0.4813,0.4409,0.3972,0.3692,0.3307,0.301,0.2741,0.2738,0.2475,0.2345,0.2221,0.2099,0.2099,0.2222,0.2099,0.1853,0.1606,0.1606,0.1606,0.1603,0.159,0.1701,0.1928,0.1555,0.0949,0.0118,0.0351,0.0232,-0.0116,0.0114,0.034,0.0566,-0.0,-0.0561,-0.1346,-0.157,-0.157,-0.1346,-0.157,-0.157,-0.1455,-0.1556,-0.1658,-0.1325,-0.1754,-0.2066,-0.1944,-0.2049,-0.2044,-0.2136,-0.2027,-0.2228,-0.2419,-0.2518,-0.2505,-0.2585,-0.2669,-0.2552,-0.2452,-0.2638,-0.2727,-0.2826,-0.2925,-0.3126,-0.3328,-0.3126,-0.2925,-0.2725,-0.2825,-0.2924,-0.2924,-0.3026,-0.3127,-0.333,-0.333,-0.353,-0.3831,-0.3934,-0.4133,-0.4435,-0.4638,-0.4839,-0.4939,-0.5037,-0.5238,-0.5338,-0.5436,-0.5534,-0.5634,-0.5634,-0.5436,-0.5236,-0.5035,-0.5035,-0.5035,-0.5035,-0.4937,-0.4736,-0.4638,-0.452,-0.4505,-0.4433,-0.4435,-0.4433,-0.4429,-0.4433,0.7257,0.6985,0.6851,0.6449,0.5912,0.5776,0.5637,0.523,0.4912,0.4491,0.4081,0.3771,0.3362,0.3101,0.2674,0.2403,0.2401,0.2122,0.2105,0.2102,0.1977,0.21,0.21,0.1977,0.173,0.1359,0.1112,0.0865,0.0864,0.0863,0.1226,0.1459,0.1574,0.0961,-0.0119,-0.0355,-0.0827,-0.1413,-0.1511,-0.115,-0.0802,-0.0907,-0.1127,-0.1234,-0.1683,-0.1907,-0.1795,-0.1907,-0.1907,-0.1907,-0.1907,-0.1904,-0.1905,-0.2241,-0.2338,-0.2311,-0.2412,-0.2508,-0.2585,-0.2478,-0.268,-0.2674,-0.2777,-0.2773,-0.2861,-0.2933,-0.2913,-0.2912,-0.3075,-0.3366,-0.3446,-0.374,-0.3932,-0.4033,-0.4133,-0.3833,-0.3632,-0.363,-0.3629,-0.3729,-0.3932,-0.4033,-0.4133,-0.4133,-0.4234,-0.4535,-0.4636,-0.4736,-0.5037,-0.5138,-0.5338,-0.5539,-0.5636,-0.5734,-0.5734,-0.5734,-0.5834,-0.5837,-0.5834,-0.5734,-0.5737,-0.5536,-0.5536,-0.5436,-0.5336,-0.5236,-0.5238,-0.5037,-0.4937,-0.4937,-0.4937,-0.514,-0.524,-0.5133,-0.5135,0.6853,0.6585,0.6315,0.5914,0.5513,0.5243,0.4973,0.4972,0.4561,0.4149,0.3871,0.3433,0.302,0.2755,0.2328,0.2183,0.2178,0.2023,0.1999,0.1977,0.1977,0.1977,0.1977,0.1977,0.1853,0.1482,0.0618,-0.0,-0.0,-0.0,0.0247,0.0369,0.0368,-0.0245,-0.122,-0.1327,-0.1321,-0.1437,-0.1655,-0.1865,-0.1617,-0.1607,-0.1592,-0.1575,-0.1908,-0.2132,-0.2132,-0.2356,-0.2468,-0.2468,-0.2356,-0.2356,-0.2468,-0.258,-0.2574,-0.2679,-0.2676,-0.2672,-0.2665,-0.2765,-0.2867,-0.3265,-0.3367,-0.3459,-0.3945,-0.3828,-0.392,-0.3917,-0.4009,-0.4174,-0.433,-0.4269,-0.4554,-0.4754,-0.4847,-0.4941,-0.4937,-0.4535,-0.4336,-0.4336,-0.4435,-0.4734,-0.4836,-0.4939,-0.5039,-0.5238,-0.5336,-0.5436,-0.5536,-0.5739,-0.5939,-0.6139,-0.6239,-0.6337,-0.6237,-0.6237,-0.6237,-0.6237,-0.6234,-0.6234,-0.6137,-0.6037,-0.5937,-0.5737,-0.5534,-0.5536,-0.5539,-0.5436,-0.5336,-0.5338,-0.5438,-0.5539,-0.5639,-0.5636,-0.5834,0.6449,0.6183,0.5781,0.5513,0.5109,0.4841,0.4705,0.4572,0.4171,0.3901,0.3493,0.307,0.2797,0.2394,0.2231,0.2085,0.2078,0.2054,0.2024,0.2004,0.1998,0.199,0.173,0.1359,0.0988,0.0989,0.0371,-0.0,-0.0,-0.0,-0.037,-0.0865,-0.0865,-0.0987,-0.1606,-0.1837,-0.1831,-0.1582,-0.1803,-0.2016,-0.2002,-0.2101,-0.2193,-0.2271,-0.2367,-0.2468,-0.2468,-0.2581,-0.2805,-0.3029,-0.3029,-0.2805,-0.2806,-0.2803,-0.2915,-0.2917,-0.3141,-0.3253,-0.3365,-0.3475,-0.3681,-0.3983,-0.3978,-0.4071,-0.4361,-0.4444,-0.4527,-0.4625,-0.4704,-0.4974,-0.5246,-0.5212,-0.5366,-0.5415,-0.551,-0.5595,-0.5653,-0.5238,-0.4937,-0.4937,-0.5135,-0.5236,-0.5336,-0.5539,-0.5739,-0.5837,-0.6139,-0.6139,-0.6437,-0.6539,-0.6539,-0.6739,-0.6839,-0.6939,-0.6839,-0.6836,-0.6836,-0.6836,-0.6736,-0.6736,-0.6736,-0.6537,-0.6337,-0.6137,-0.5937,-0.5839,-0.5739,-0.5737,-0.5734,-0.5636,-0.5737,-0.5837,-0.6037,-0.6234,-0.6434,0.5778,0.5778,0.5379,0.5109,0.4708,0.4707,0.4574,0.4307,0.3902,0.3632,0.3228,0.2828,0.2554,0.2282,0.2128,0.2115,0.2101,0.1824,0.1799,0.2032,0.1522,0.1513,0.1252,0.0625,-0.0,-0.0249,-0.0124,-0.0,-0.0,-0.0371,-0.0865,-0.173,-0.1977,-0.173,-0.1482,-0.1729,-0.1973,-0.1967,-0.2071,-0.2172,-0.2402,-0.2495,-0.2581,-0.2771,-0.2844,-0.2937,-0.3045,-0.3149,-0.3251,-0.3698,-0.3699,-0.3477,-0.3253,-0.3139,-0.3362,-0.3361,-0.3811,-0.3923,-0.4035,-0.4258,-0.4479,-0.4592,-0.47,-0.47,-0.4903,-0.5082,-0.5162,-0.5233,-0.5411,-0.5882,-0.6085,-0.6147,-0.6105,-0.6155,-0.613,-0.618,-0.6098,-0.5964,-0.5969,-0.5839,-0.5937,-0.6037,-0.6037,-0.6137,-0.6337,-0.6539,-0.6742,-0.6951,-0.7153,-0.7275,-0.7193,-0.7235,-0.7363,-0.7339,-0.733,-0.7054,-0.715,-0.715,-0.715,-0.7141,-0.7141,-0.6936,-0.6736,-0.6537,-0.6437,-0.6239,-0.6239,-0.6237,-0.6137,-0.5934,-0.6134,-0.6437,-0.6736,-0.6936,-0.7036,0.551,0.4975,0.4975,0.4708,0.4441,0.4441,0.4307,0.4307,0.3902,0.3497,0.3229,0.2828,0.2425,0.2287,0.2152,0.2134,0.1983,0.1709,0.1565,0.1548,0.1029,0.0513,0.0128,-0.0,-0.0767,-0.1273,-0.0879,-0.062,-0.1237,-0.173,-0.1482,-0.1359,-0.1729,-0.1853,-0.1853,-0.1977,-0.2223,-0.2468,-0.2457,-0.2564,-0.2781,-0.3001,-0.3096,-0.34,-0.3464,-0.3666,-0.3878,-0.4065,-0.4257,-0.4367,-0.4367,-0.4258,-0.4258,-0.4257,-0.4257,-0.4257,-0.4369,-0.448,-0.4592,-0.4706,-0.5039,-0.5262,-0.5373,-0.5712,-0.5819,-0.6033,-0.6005,-0.6097,-0.6257,-0.6516,-0.6843,-0.6888,-0.7129,-0.7302,-0.7287,-0.7243,-0.7144,-0.7097,-0.6957,-0.6693,-0.6765,-0.6836,-0.6736,-0.6745,-0.6859,-0.6974,-0.719,-0.7308,-0.7431,-0.7471,-0.7521,-0.7573,-0.7733,-0.7792,-0.7849,-0.7434,-0.7272,-0.7378,-0.7372,-0.7356,-0.725,-0.7238,-0.7036,-0.7135,-0.7036,-0.6836,-0.6836,-0.6839,-0.6736,-0.6634,-0.6836,-0.7036,-0.7235,-0.7335,-0.7335,0.5108,0.4839,0.4574,0.4441,0.4307,0.4307,0.4307,0.4172,0.3767,0.3362,0.3095,0.2693,0.2425,0.229,0.2155,0.2145,0.2002,0.1866,0.1455,0.0916,0.0261,-0.052,-0.1035,-0.1034,-0.1162,-0.1543,-0.1271,-0.1131,-0.1499,-0.1859,-0.1732,-0.1729,-0.2099,-0.2345,-0.2346,-0.2469,-0.2591,-0.2837,-0.2959,-0.3197,-0.3411,-0.3634,-0.3958,-0.4047,-0.4229,-0.4309,-0.4414,-0.4625,-0.4806,-0.5002,-0.4991,-0.5191,-0.528,-0.5375,-0.5154,-0.4927,-0.4927,-0.5039,-0.515,-0.5489,-0.5712,-0.5822,-0.6047,-0.6158,-0.6492,-0.6601,-0.6826,-0.7146,-0.7241,-0.7399,-0.7512,-0.766,-0.7717,-0.7761,-0.7855,-0.7793,-0.7802,-0.7767,-0.7685,-0.748,-0.7308,-0.7169,-0.7135,-0.725,-0.7381,-0.7607,-0.7642,-0.7677,-0.7715,-0.7891,-0.7862,-0.8007,-0.8167,-0.8141,-0.819,-0.7991,-0.7674,-0.7655,-0.7717,-0.7701,-0.7666,-0.7653,-0.7739,-0.7832,-0.7733,-0.7434,-0.7235,-0.7039,-0.7135,-0.7335,-0.7434,-0.7633,-0.7733,-0.7733,-0.7832,0.4705,0.4707,0.4441,0.4307,0.4307,0.4307,0.4307,0.4037,0.3497,0.3228,0.2959,0.2558,0.2155,0.2155,0.2155,0.2154,0.202,0.2019,0.1336,0.0265,-0.0397,-0.1184,-0.183,-0.2085,-0.1959,-0.17,-0.1944,-0.1929,-0.1648,-0.1877,-0.2113,-0.2233,-0.2476,-0.2713,-0.2714,-0.2961,-0.3085,-0.3331,-0.3577,-0.3824,-0.4177,-0.451,-0.4964,-0.4957,-0.5008,-0.5084,-0.5318,-0.5284,-0.5478,-0.5658,-0.5739,-0.5816,-0.6203,-0.6286,-0.6049,-0.5485,-0.5485,-0.5708,-0.5935,-0.627,-0.6492,-0.649,-0.6604,-0.6826,-0.6935,-0.7268,-0.7487,-0.7934,-0.8039,-0.8029,-0.8023,-0.8146,-0.8207,-0.8141,-0.8094,-0.8164,-0.8162,-0.8197,-0.8236,-0.802,-0.769,-0.7648,-0.7658,-0.7629,-0.7877,-0.7958,-0.8097,-0.8117,-0.8163,-0.8256,-0.8431,-0.8461,-0.8488,-0.8481,-0.8543,-0.8486,-0.8377,-0.8309,-0.8343,-0.839,-0.8227,-0.8168,-0.8261,-0.8354,-0.8131,-0.7832,-0.7633,-0.7537,-0.7733,-0.7932,-0.8035,-0.8134,-0.823,-0.8329,-0.8329,0.4572,0.4307,0.4307,0.4307,0.4307,0.4307,0.4171,0.3767,0.3362,0.3095,0.2828,0.2424,0.2155,0.2155,0.2155,0.1885,0.1616,0.1616,0.1075,-0.0268,-0.1206,-0.1874,-0.2142,-0.2144,-0.2268,-0.1996,-0.2509,-0.2349,-0.2191,-0.2413,-0.2518,-0.2513,-0.2736,-0.2962,-0.3093,-0.3458,-0.3577,-0.3822,-0.4193,-0.4439,-0.4807,-0.492,-0.5282,-0.5626,-0.5816,-0.5885,-0.6235,-0.6189,-0.6359,-0.6331,-0.6359,-0.631,-0.6391,-0.6315,-0.6614,-0.6604,-0.6492,-0.6161,-0.6386,-0.6826,-0.7046,-0.7157,-0.7379,-0.7712,-0.7823,-0.7823,-0.7934,-0.7931,-0.8263,-0.8374,-0.8488,-0.8602,-0.8699,-0.8686,-0.8653,-0.8593,-0.8612,-0.8679,-0.8608,-0.8632,-0.8307,-0.827,-0.826,-0.8213,-0.8289,-0.8384,-0.8459,-0.8479,-0.8526,-0.8735,-0.8804,-0.8838,-0.8942,-0.8932,-0.8925,-0.8969,-0.8878,-0.8891,-0.8913,-0.8922,-0.8856,-0.8697,-0.8703,-0.8692,-0.8571,-0.8571,-0.8496,-0.8489,-0.8546,-0.8528,-0.8531,-0.863,-0.8726,-0.8825,-0.8928,0.4441,0.4307,0.4307,0.4307,0.4307,0.4307,0.4171,0.3767,0.3362,0.296,0.2694,0.229,0.2155,0.2155,0.2155,0.202,0.1616,0.1212,0.0135,-0.0943,-0.1885,-0.2155,-0.2288,-0.2425,-0.2559,-0.2554,-0.2811,-0.293,-0.2759,-0.2846,-0.2939,-0.2933,-0.3275,-0.3626,-0.3618,-0.4088,-0.4321,-0.4562,-0.4931,-0.5421,-0.5669,-0.5914,-0.6162,-0.6407,-0.6487,-0.6589,-0.6812,-0.6798,-0.6846,-0.6924,-0.6847,-0.7036,-0.7217,-0.7268,-0.7456,-0.7714,-0.7604,-0.7458,-0.7285,-0.7496,-0.7601,-0.7712,-0.7934,-0.8045,-0.8266,-0.838,-0.8491,-0.8491,-0.8602,-0.8709,-0.8712,-0.8823,-0.8826,-0.8937,-0.9047,-0.891,-0.8961,-0.9067,-0.9124,-0.9036,-0.8959,-0.892,-0.8874,-0.8703,-0.8584,-0.8663,-0.8735,-0.8766,-0.8824,-0.9022,-0.9078,-0.9226,-0.9315,-0.9399,-0.9395,-0.9472,-0.9374,-0.9393,-0.9341,-0.935,-0.925,-0.9168,-0.9274,-0.9334,-0.9244,-0.9232,-0.9404,-0.9111,-0.8836,-0.8829,-0.8931,-0.9027,-0.9031,-0.924,-0.9343,0.4307,0.4307,0.4307,0.4307,0.4307,0.4307,0.4037,0.3632,0.3362,0.296,0.2558,0.229,0.2155,0.2155,0.2155,0.2155,0.202,0.0269,-0.1077,-0.1885,-0.2155,-0.229,-0.2425,-0.2695,-0.2828,-0.2828,-0.3361,-0.3489,-0.3604,-0.3564,-0.3651,-0.3372,-0.4087,-0.4315,-0.4425,-0.4778,-0.5126,-0.534,-0.5808,-0.6164,-0.653,-0.6655,-0.69,-0.7023,-0.7023,-0.7023,-0.7146,-0.7136,-0.7203,-0.7278,-0.7448,-0.7625,-0.7917,-0.7971,-0.815,-0.8314,-0.8304,-0.8385,-0.8289,-0.8227,-0.8171,-0.8156,-0.8266,-0.838,-0.8598,-0.8823,-0.8937,-0.8826,-0.8937,-0.9047,-0.9051,-0.9047,-0.9158,-0.9268,-0.9158,-0.9158,-0.9154,-0.935,-0.9446,-0.9388,-0.9443,-0.9457,-0.9399,-0.9105,-0.8997,-0.896,-0.9008,-0.904,-0.9198,-0.9364,-0.9372,-0.9493,-0.9592,-0.9673,-0.9677,-0.9771,-0.9813,-0.988,-0.9935,-0.9972,-0.9953,-0.9959,-0.9967,-0.9943,-0.9939,-0.9973,-1.012,-0.9562,-0.9027,-0.9126,-0.9229,-0.9232,-0.9335,-0.9557,-0.9701,0.4307,0.4307,0.4307,0.4307,0.4307,0.4307,0.3901,0.3362,0.3228,0.2826,0.2289,0.2155,0.2155,0.2155,0.2155,0.202,0.1885,-0.0808,-0.1751,-0.2155,-0.229,-0.2425,-0.2694,-0.2828,-0.2962,-0.3363,-0.3768,-0.4171,-0.4304,-0.4687,-0.4644,-0.4341,-0.4795,-0.5026,-0.5266,-0.55,-0.5954,-0.615,-0.6589,-0.6789,-0.6903,-0.7023,-0.7146,-0.7266,-0.7385,-0.7508,-0.7752,-0.7752,-0.7744,-0.771,-0.7886,-0.8082,-0.8275,-0.8437,-0.8614,-0.8803,-0.8904,-0.899,-0.8915,-0.8768,-0.852,-0.8497,-0.8712,-0.8826,-0.8933,-0.8937,-0.8937,-0.9047,-0.9268,-0.9379,-0.9379,-0.9599,-0.9596,-0.9596,-0.9489,-0.9489,-0.9485,-0.9706,-0.9805,-0.9812,-0.9801,-0.9885,-0.9987,-0.9671,-0.9432,-0.9385,-0.9399,-0.9431,-0.9548,-0.9702,-0.9695,-0.9809,-0.9816,-0.9805,-0.9908,-0.9991,-1.03,-1.049,-1.0662,-1.0824,-1.0958,-1.0864,-1.0704,-1.0753,-1.0627,-1.0845,-1.0754,-1.0242,-0.9726,-0.9585,-0.9545,-0.9721,-0.9678,-0.9827,-0.9855,0.4307,0.4307,0.4307,0.4307,0.4307,0.4037,0.3632,0.3228,0.2961,0.2692,0.2155,0.2155,0.2155,0.2155,0.202,0.1077,-0.0404,-0.1481,-0.2155,-0.229,-0.2425,-0.2694,-0.2828,-0.3231,-0.3633,-0.3902,-0.444,-0.4844,-0.4978,-0.5513,-0.5503,-0.545,-0.552,-0.5497,-0.5739,-0.6086,-0.6523,-0.683,-0.7139,-0.7343,-0.7271,-0.7385,-0.7627,-0.7627,-0.775,-0.775,-0.7872,-0.7872,-0.7872,-0.7983,-0.819,-0.8412,-0.8642,-0.8815,-0.9116,-0.9298,-0.9288,-0.9365,-0.9408,-0.9154,-0.9061,-0.894,-0.9106,-0.9168,-0.9303,-0.9389,-0.9379,-0.9485,-0.9607,-0.9618,-0.971,-0.971,-0.9706,-0.9816,-0.9816,-0.9816,-0.9926,-1.0036,-1.0036,-1.0036,-1.0257,-1.0464,-1.0351,-1.0339,-1.001,-0.9805,-0.9812,-0.9816,-0.9926,-1.0036,-1.0139,-1.0135,-1.0253,-1.0363,-1.0464,-1.0688,-1.0911,-1.1097,-1.1281,-1.1346,-1.1522,-1.1454,-1.1285,-1.1318,-1.1358,-1.1305,-1.112,-1.0798,-1.0454,-1.0192,-1.0167,-1.0116,-1.0161,-1.0092,-1.0133,0.4349,0.4335,0.4335,0.4323,0.4308,0.3902,0.3632,0.3229,0.2828,0.2559,0.2155,0.2155,0.1885,0.1616,0.1481,0.0269,-0.1481,-0.229,-0.2425,-0.2559,-0.2828,-0.2963,-0.3231,-0.3635,-0.4038,-0.4441,-0.4977,-0.5379,-0.5513,-0.5914,-0.6044,-0.6027,-0.5996,-0.6103,-0.6337,-0.679,-0.7089,-0.7412,-0.7569,-0.7656,-0.7688,-0.7768,-0.7872,-0.7869,-0.7869,-0.7869,-0.7872,-0.7872,-0.7872,-0.7994,-0.8355,-0.8607,-0.8973,-0.9204,-0.9523,-0.959,-0.9659,-0.9612,-0.9534,-0.9521,-0.9456,-0.9453,-0.9603,-0.9662,-0.9738,-0.9842,-0.9883,-0.9902,-0.9898,-0.9987,-0.996,-1.0036,-1.0143,-1.0253,-1.0257,-1.0257,-1.0257,-1.0363,-1.0366,-1.037,-1.0586,-1.0582,-1.0582,-1.0578,-1.0468,-1.0253,-1.0253,-1.0253,-1.0253,-1.0363,-1.0472,-1.0582,-1.0692,-1.0907,-1.1126,-1.1236,-1.124,-1.1455,-1.1647,-1.1764,-1.1864,-1.1791,-1.1787,-1.1909,-1.1756,-1.1666,-1.1599,-1.1482,-1.1098,-1.0806,-1.072,-1.0647,-1.0613,-1.0547,-1.0627,0.4444,0.4399,0.4395,0.4361,0.4179,0.3903,0.3497,0.3229,0.2828,0.2425,0.202,0.202,0.1212,0.0404,0.0135,-0.0943,-0.202,-0.2829,-0.2964,-0.2963,-0.3097,-0.3365,-0.3768,-0.4171,-0.4574,-0.4839,-0.5376,-0.5778,-0.5912,-0.6183,-0.6319,-0.6453,-0.6435,-0.6698,-0.6967,-0.7544,-0.7883,-0.7844,-0.8041,-0.8098,-0.8013,-0.7937,-0.7907,-0.7872,-0.7872,-0.7872,-0.7872,-0.7872,-0.7872,-0.7994,-0.8485,-0.8854,-0.8976,-0.946,-0.9687,-0.9795,-0.9795,-0.9791,-0.9781,-0.9887,-0.9891,-0.9841,-1.0,-1.0208,-1.0249,-1.0249,-1.0299,-1.0288,-1.0389,-1.0436,-1.0461,-1.0492,-1.0614,-1.0614,-1.0512,-1.0472,-1.0472,-1.0582,-1.0586,-1.0586,-1.0586,-1.0692,-1.0692,-1.0692,-1.0798,-1.0688,-1.0692,-1.0692,-1.0692,-1.0802,-1.0911,-1.0911,-1.1021,-1.1236,-1.1455,-1.1564,-1.1678,-1.1896,-1.2005,-1.2005,-1.2114,-1.2114,-1.2223,-1.2332,-1.2205,-1.2054,-1.2186,-1.2295,-1.1875,-1.1375,-1.1063,-1.0966,-1.1024,-1.1024,-1.1018,0.4471,0.445,0.4414,0.4112,0.3678,0.351,0.3362,0.3094,0.2558,0.1751,0.0943,0.0808,0.0269,-0.0539,-0.1212,-0.1885,-0.2559,-0.2829,-0.2963,-0.3095,-0.3363,-0.3768,-0.4171,-0.4438,-0.4975,-0.5376,-0.5912,-0.6048,-0.6317,-0.6453,-0.6453,-0.6587,-0.6855,-0.7259,-0.7519,-0.7875,-0.8106,-0.816,-0.8318,-0.8231,-0.8076,-0.8013,-0.7954,-0.7883,-0.7877,-0.7872,-0.7872,-0.7872,-0.7872,-0.7994,-0.8485,-0.8854,-0.8976,-0.9457,-0.9822,-0.9819,-0.9819,-0.994,-1.0176,-1.0299,-1.0343,-1.0252,-1.0394,-1.0694,-1.0655,-1.0763,-1.0831,-1.0811,-1.0795,-1.0858,-1.0952,-1.0819,-1.0895,-1.0854,-1.0826,-1.0724,-1.0692,-1.0692,-1.0692,-1.0692,-1.0692,-1.0911,-1.0911,-1.1021,-1.1126,-1.1126,-1.1126,-1.1131,-1.1131,-1.124,-1.135,-1.135,-1.1459,-1.1564,-1.1782,-1.1782,-1.1891,-1.2114,-1.2223,-1.2332,-1.2327,-1.2436,-1.2327,-1.2332,-1.2327,-1.2436,-1.2436,-1.2323,-1.2281,-1.1981,-1.1608,-1.1487,-1.1469,-1.1482,-1.1445,0.4514,0.4511,0.4336,0.3879,0.343,0.3247,0.3095,0.2826,0.2289,0.1346,0.0135,-0.0404,-0.0943,-0.1616,-0.2155,-0.2559,-0.2829,-0.3232,-0.3232,-0.3498,-0.3767,-0.4171,-0.444,-0.4841,-0.5243,-0.578,-0.6048,-0.6317,-0.6453,-0.6453,-0.6453,-0.6719,-0.7123,-0.7663,-0.8061,-0.831,-0.8289,-0.8481,-0.8416,-0.8337,-0.8204,-0.8106,-0.8016,-0.7951,-0.7905,-0.7872,-0.7872,-0.7872,-0.7872,-0.8116,-0.8485,-0.8857,-0.9095,-0.9335,-0.9697,-0.9819,-0.9819,-0.9943,-1.0301,-1.0539,-1.0579,-1.0644,-1.0878,-1.1075,-1.118,-1.1338,-1.1274,-1.1354,-1.1325,-1.1273,-1.1224,-1.1094,-1.1057,-1.1017,-1.0972,-1.0879,-1.0908,-1.0917,-1.0965,-1.0961,-1.1021,-1.1131,-1.124,-1.135,-1.1568,-1.1564,-1.1564,-1.1678,-1.1678,-1.1678,-1.1678,-1.1678,-1.1787,-1.1896,-1.2001,-1.211,-1.2219,-1.2327,-1.2436,-1.2436,-1.2436,-1.2436,-1.2436,-1.2436,-1.2436,-1.2436,-1.2436,-1.2313,-1.2295,-1.2295,-1.2068,-1.1969,-1.1896,-1.1787,-1.1787,0.4715,0.4574,0.4147,0.3943,0.3577,0.3251,0.2692,0.2155,0.202,0.1212,-0.0135,-0.1481,-0.202,-0.229,-0.2829,-0.2964,-0.2963,-0.3769,-0.3903,-0.3903,-0.4171,-0.444,-0.4842,-0.5245,-0.5646,-0.5914,-0.6183,-0.6453,-0.6453,-0.6453,-0.6451,-0.6583,-0.7123,-0.7794,-0.8328,-0.8456,-0.8576,-0.8538,-0.8489,-0.8421,-0.8326,-0.8201,-0.8103,-0.8024,-0.7959,-0.7902,-0.7883,-0.7872,-0.7872,-0.8116,-0.8485,-0.8732,-0.9098,-0.9457,-0.97,-0.9819,-0.9819,-0.9943,-1.0308,-1.0668,-1.0906,-1.111,-1.1483,-1.1748,-1.1727,-1.1671,-1.1602,-1.1541,-1.15,-1.1399,-1.1305,-1.1269,-1.1236,-1.1212,-1.1196,-1.1216,-1.1113,-1.116,-1.1188,-1.1347,-1.1485,-1.1568,-1.1568,-1.1678,-1.1896,-1.2114,-1.2114,-1.211,-1.2114,-1.1896,-1.1896,-1.2005,-1.2005,-1.2114,-1.2223,-1.2332,-1.2327,-1.2436,-1.2436,-1.2436,-1.2436,-1.2436,-1.2436,-1.2436,-1.2436,-1.2436,-1.2436,-1.2436,-1.2432,-1.2332,-1.2223,-1.2223,-1.2114,-1.2223,-1.2223,0.4574,0.4716,0.4148,0.3683,0.3198,0.2719,0.2019,0.1346,0.0943,-0.0,-0.0808,-0.1751,-0.229,-0.2559,-0.2829,-0.3098,-0.35,-0.3768,-0.4037,-0.4172,-0.4447,-0.4845,-0.5245,-0.5512,-0.5914,-0.6183,-0.6453,-0.6453,-0.6453,-0.6453,-0.6585,-0.6579,-0.7254,-0.7925,-0.8323,-0.8587,-0.8587,-0.8579,-0.8538,-0.8494,-0.844,-0.8331,-0.8214,-0.8103,-0.8024,-0.7962,-0.7905,-0.7877,-0.7872,-0.7994,-0.8366,-0.8613,-0.8976,-0.9217,-0.9457,-0.9819,-0.9822,-0.9943,-1.0304,-1.0668,-1.091,-1.1277,-1.1647,-1.1772,-1.1772,-1.1768,-1.174,-1.1687,-1.1654,-1.1569,-1.1508,-1.1589,-1.1548,-1.1524,-1.1599,-1.1615,-1.1523,-1.1587,-1.1716,-1.1864,-1.2,-1.2064,-1.2055,-1.2114,-1.2332,-1.2555,-1.2663,-1.2659,-1.255,-1.2332,-1.2228,-1.2332,-1.2332,-1.2441,-1.2332,-1.2332,-1.2327,-1.2436,-1.2436,-1.2436,-1.2436,-1.2436,-1.2436,-1.2436,-1.2436,-1.2436,-1.2436,-1.2436,-1.2436,-1.2436,-1.2332,-1.2327,-1.2436,-1.2436,-1.2436,0.4518,0.4397,0.3974,0.338,0.2637,0.2311,0.1616,0.0673,-0.0404,-0.1212,-0.1616,-0.202,-0.2425,-0.2693,-0.2828,-0.3231,-0.377,-0.4066,-0.4201,-0.4311,-0.4729,-0.4994,-0.5391,-0.578,-0.6049,-0.6319,-0.6453,-0.6453,-0.6587,-0.6585,-0.6717,-0.6577,-0.7254,-0.8056,-0.8456,-0.8587,-0.8587,-0.8587,-0.8573,-0.8541,-0.8497,-0.8443,-0.8312,-0.8212,-0.813,-0.8019,-0.7945,-0.7913,-0.7875,-0.7994,-0.8244,-0.8613,-0.8979,-0.9217,-0.9579,-0.9819,-0.9822,-1.0065,-1.0425,-1.0668,-1.1035,-1.1402,-1.1647,-1.1772,-1.1776,-1.1772,-1.1768,-1.1748,-1.176,-1.1752,-1.1836,-1.1914,-1.1873,-1.1954,-1.198,-1.2121,-1.2074,-1.2147,-1.2319,-1.2553,-1.2557,-1.2616,-1.2669,-1.2711,-1.2767,-1.2881,-1.2989,-1.2989,-1.2989,-1.2876,-1.2772,-1.2881,-1.2659,-1.2659,-1.255,-1.2441,-1.2441,-1.2436,-1.2436,-1.2436,-1.2436,-1.2436,-1.2436,-1.2436,-1.2436,-1.2436,-1.2436,-1.2436,-1.2436,-1.2436,-1.2436,-1.2436,-1.2436,-1.2436,-1.2436,0.4155,0.392,0.35,0.2921,0.2198,0.2033,0.1212,-0.0135,-0.1481,-0.2155,-0.2155,-0.229,-0.2425,-0.2828,-0.3095,-0.3498,-0.3912,-0.4208,-0.4339,-0.4309,-0.4745,-0.5151,-0.5524,-0.578,-0.6183,-0.6453,-0.6453,-0.6453,-0.6587,-0.6719,-0.6851,-0.6577,-0.7519,-0.8189,-0.8587,-0.8587,-0.8587,-0.8587,-0.8587,-0.8571,-0.8554,-0.8494,-0.8421,-0.8367,-0.8231,-0.8081,-0.803,-0.7962,-0.788,-0.8,-0.8244,-0.8491,-0.8976,-0.946,-0.9697,-0.9819,-0.9819,-1.0061,-1.0425,-1.0668,-1.116,-1.1405,-1.1772,-1.1776,-1.1776,-1.1776,-1.1776,-1.1893,-1.1889,-1.213,-1.2097,-1.2204,-1.2299,-1.2401,-1.2469,-1.264,-1.2718,-1.2908,-1.3152,-1.3284,-1.3262,-1.3297,-1.3216,-1.3257,-1.3163,-1.335,-1.3315,-1.3315,-1.3428,-1.3423,-1.3207,-1.3212,-1.2989,-1.2767,-1.2772,-1.2659,-1.2441,-1.2436,-1.2436,-1.2436,-1.2436,-1.2436,-1.2436,-1.2436,-1.2436,-1.2436,-1.2436,-1.2436,-1.2436,-1.2436,-1.2436,-1.2436,-1.2436,-1.2436,-1.2436,0.3991,0.3867,0.3316,0.2481,0.1372,0.0812,-0.0,-0.0943,-0.1751,-0.2155,-0.229,-0.2424,-0.2827,-0.3096,-0.3498,-0.3767,-0.4179,-0.4337,-0.4455,-0.4716,-0.5008,-0.542,-0.5787,-0.6049,-0.6319,-0.6453,-0.6453,-0.6453,-0.6587,-0.6853,-0.7121,-0.7254,-0.7925,-0.832,-0.8587,-0.8587,-0.8587,-0.8587,-0.8587,-0.8587,-0.8576,-0.856,-0.8516,-0.8443,-0.8318,-0.8209,-0.8138,-0.804,-0.7951,-0.8019,-0.825,-0.861,-0.9214,-0.9576,-0.9819,-0.9819,-0.9819,-1.0061,-1.0425,-1.0789,-1.1156,-1.1402,-1.1647,-1.1772,-1.1776,-1.1776,-1.1893,-1.2005,-1.2122,-1.2363,-1.2483,-1.2599,-1.2719,-1.284,-1.296,-1.3159,-1.3361,-1.367,-1.3966,-1.3946,-1.3904,-1.3828,-1.3735,-1.3688,-1.3586,-1.3619,-1.3666,-1.3645,-1.3867,-1.3862,-1.3537,-1.3428,-1.3098,-1.2876,-1.2881,-1.2663,-1.2441,-1.2436,-1.2436,-1.2436,-1.2436,-1.2436,-1.2436,-1.2436,-1.2436,-1.2436,-1.2436,-1.2436,-1.2436,-1.2436,-1.2436,-1.2436,-1.2436,-1.2436,-1.2436,0.3677,0.3268,0.2861,0.2316,0.136,-0.027,-0.1212,-0.1616,-0.202,-0.2155,-0.229,-0.2559,-0.2962,-0.3229,-0.3632,-0.4037,-0.4312,-0.4341,-0.4463,-0.4856,-0.5267,-0.5539,-0.5934,-0.6317,-0.6453,-0.6453,-0.6453,-0.6587,-0.6587,-0.6989,-0.739,-0.7524,-0.7922,-0.8454,-0.8587,-0.8587,-0.8587,-0.8587,-0.8587,-0.8587,-0.8587,-0.8576,-0.8565,-0.8497,-0.8421,-0.8326,-0.8266,-0.8168,-0.806,-0.8212,-0.8532,-0.8861,-0.9339,-0.9576,-0.9819,-0.9819,-0.994,-1.0186,-1.0547,-1.0789,-1.1152,-1.1522,-1.1635,-1.1877,-1.2001,-1.2001,-1.2122,-1.2238,-1.2363,-1.2603,-1.284,-1.296,-1.308,-1.3204,-1.3564,-1.3784,-1.4013,-1.4232,-1.443,-1.4611,-1.4569,-1.441,-1.4411,-1.4267,-1.4161,-1.4061,-1.3988,-1.3909,-1.412,-1.4288,-1.393,-1.3593,-1.3292,-1.3133,-1.3098,-1.2767,-1.2441,-1.2436,-1.2436,-1.2436,-1.2436,-1.2436,-1.2436,-1.2436,-1.2436,-1.2436,-1.2436,-1.2436,-1.2436,-1.2436,-1.2436,-1.2436,-1.2436,-1.2436,-1.2436,0.3232,0.2559,0.2291,0.2021,0.1616,-0.0808,-0.202,-0.2155,-0.2155,-0.2155,-0.2289,-0.2558,-0.2961,-0.3229,-0.3632,-0.4037,-0.418,-0.4338,-0.4468,-0.5005,-0.5303,-0.5683,-0.6063,-0.6317,-0.6453,-0.6453,-0.6453,-0.6587,-0.6587,-0.7123,-0.7524,-0.7658,-0.8056,-0.8587,-0.8587,-0.8587,-0.8587,-0.8587,-0.8587,-0.8587,-0.8587,-0.8587,-0.8579,-0.8543,-0.85,-0.8437,-0.8388,-0.8315,-0.8193,-0.8335,-0.8726,-0.917,-0.9371,-0.9724,-0.9819,-0.994,-1.0183,-1.0425,-1.0789,-1.1031,-1.1398,-1.176,-1.1868,-1.1985,-1.223,-1.2354,-1.2479,-1.2479,-1.2719,-1.284,-1.308,-1.3324,-1.3564,-1.3688,-1.4047,-1.4406,-1.453,-1.4655,-1.4873,-1.5095,-1.5098,-1.5062,-1.4844,-1.4692,-1.4558,-1.4562,-1.446,-1.4358,-1.4326,-1.4329,-1.4272,-1.3925,-1.3709,-1.3517,-1.3257,-1.291,-1.2479,-1.2436,-1.2436,-1.2436,-1.2436,-1.2436,-1.2436,-1.2436,-1.2436,-1.2436,-1.2436,-1.2436,-1.2436,-1.2436,-1.2436,-1.2436,-1.2436,-1.2436,-1.2436,0.2694,0.229,0.2155,0.1481,0.0269,-0.0808,-0.1616,-0.2155,-0.2155,-0.2155,-0.2424,-0.2827,-0.3229,-0.3228,-0.3902,-0.4307,-0.4309,-0.4331,-0.4729,-0.5257,-0.5408,-0.5798,-0.6189,-0.6453,-0.6453,-0.6453,-0.6587,-0.6721,-0.6855,-0.7257,-0.7522,-0.7517,-0.8187,-0.8587,-0.8587,-0.8587,-0.8587,-0.8587,-0.8587,-0.8587,-0.8587,-0.8587,-0.8587,-0.8573,-0.8568,-0.8497,-0.8437,-0.8399,-0.8307,-0.8325,-0.8842,-0.9405,-0.9721,-0.991,-0.9985,-1.0207,-1.0329,-1.0668,-1.1031,-1.1269,-1.1639,-1.2001,-1.2113,-1.2354,-1.2719,-1.3089,-1.3089,-1.296,-1.32,-1.3324,-1.3564,-1.3808,-1.4052,-1.4167,-1.4525,-1.4759,-1.4997,-1.5121,-1.5359,-1.5472,-1.5435,-1.5296,-1.5146,-1.5074,-1.4977,-1.4869,-1.4756,-1.4665,-1.4627,-1.4569,-1.4607,-1.4249,-1.3897,-1.3482,-1.3078,-1.2869,-1.254,-1.2484,-1.2469,-1.2531,-1.2531,-1.2446,-1.2436,-1.2441,-1.2441,-1.2436,-1.2436,-1.2436,-1.2436,-1.2436,-1.2436,-1.2436,-1.2441,-1.2436,-1.2436]},{"header":{"parameterUnit":"m.s-1","parameterCategory":1,"la1":31.0,"la2":29.5877,"lo1":-88.7671,"lo2":-86.6584,"dy":0.0162,"dx":0.0185,"nx":115,"ny":88,"refTime":"2023-06-06T12:00:00:Z","depth":0,"parameterNumber":3,"parameterNumberName":"V-component_of_WINDS"},"data":[0.0,0.0,0.0,0.0,0.0,0.0,0.0,0.0,0.0,0.0,0.0,0.0,0.0,0.0,0.0,0.0,0.0,0.0,0.0,0.0,0.0,0.0,0.0,0.0,0.0,0.0,0.0,0.0,0.0,0.0,0.0,0.0,0.0,0.0,0.0,0.0,0.0,0.0,0.0,0.0,0.0,0.0,0.0,0.0,0.0,0.0,0.0,0.0,0.0,0.0,0.0,0.0,0.0,0.0,0.0,0.0,0.0,0.0,0.0,0.0,0.0,0.0,0.0,0.0,0.0,0.0,0.0,0.0,0.0,0.0,0.0,0.0,0.0,0.0,0.0,0.0,0.0,0.0,0.0,0.0,0.0,0.0,0.0,0.0,0.0,0.0,0.0,0.0,0.0,0.0,0.0,0.0,0.0,0.0,0.0,0.0,0.0,0.0,0.0,0.0,0.0,0.0,0.0,0.0,0.0,0.0,0.0,0.0,0.0,0.0,0.0,0.0,0.0,0.0,0.0,0.0,0.0,0.0,0.0,0.0,0.0,0.0,0.0,0.0,0.0,0.0,0.0,0.0,0.0,0.0,0.0,0.0,0.0,0.0,0.0,0.0,0.0,0.0,0.0,0.0,0.0,0.0,0.0,0.0,0.0,0.0,0.0,0.0,0.0,0.0,0.0,0.0,0.0,0.0,0.0,0.0,0.0,0.0,0.0,0.0,0.0,0.0,0.0,0.0,0.0,0.0,0.0,0.0,0.0,0.0,0.0,0.0,0.0,0.0,0.0,0.0,0.0,0.0,0.0,0.0,0.0,0.0,0.0,0.0,0.0,0.0,0.0,0.0,0.0,0.0,0.0,0.0,0.0,0.0,0.0,0.0,0.0,0.0,0.0,0.0,0.0,0.0,0.0,0.0,0.0,0.0,0.0,0.0,0.0,0.0,0.0,0.0,0.0,0.0,0.0,0.0,0.0,0.0,0.0,0.0,0.0,0.0,0.0,0.0,0.0,0.0,0.0,0.0,0.0,0.0,0.0,0.0,0.0,0.0,0.0,0.0,0.0,0.0,0.0,0.0,0.0,0.0,0.0,0.0,0.0,0.0,0.0,0.0,0.0,0.0,0.0,0.0,0.0,0.0,0.0,0.0,0.0,0.0,0.0,0.0,0.0,0.0,0.0,0.0,0.0,0.0,0.0,0.0,0.0,0.0,0.0,0.0,0.0,0.0,0.0,0.0,0.0,0.0,0.0,0.0,0.0,0.0,0.0,0.0,0.0,0.0,0.0,0.0,0.0,0.0,0.0,0.0,0.0,0.0,0.0,0.0,0.0,0.0,0.0,0.0,0.0,0.0,0.0,0.0,0.0,0.0,0.0,0.0,0.0,0.0,0.0,0.0,0.0,0.0,0.0,0.0,0.0,0.0,0.0,0.0,0.0,0.0,0.0,0.0,0.0,0.0,0.0,0.0,0.0,0.0,0.0,0.0,0.0,0.0,0.0,0.0,0.0,0.0,0.0,0.0,0.0,0.0,0.0,0.0,0.0,0.0,0.0,0.0,0.0,0.0,0.0,0.0,0.0,0.0,0.0,0.0,0.0,0.0,0.0,0.0,0.0,0.0,0.0,0.0,0.0,0.0,0.0,0.0,0.0,0.0,0.0,0.0,0.0,0.0,0.0,0.0,0.0,0.0,0.0,0.0,0.0,0.0,0.0,0.0,0.0,0.0,0.0,0.0,0.0,0.0,0.0,0.0,0.0,0.0,0.0,0.0,0.0,0.0,0.0,0.0,0.0,0.0,0.0,0.0,0.0,0.0,0.0,0.0,0.0,0.0,0.0,0.0,0.0,0.0,0.0,0.0,0.0,0.0,0.0,0.0,0.0,0.0,0.0,0.0,0.0,0.0,0.0,0.0,0.0,0.0,0.0,0.0,0.0,0.0,0.0,0.0,0.0,0.0,0.0,0.0,0.0,0.0,0.0,0.0,0.0,0.0,0.0,0.0,0.0,0.0,0.0,0.0,0.0,0.0,0.0,0.0,0.0,0.0,0.0,0.0,0.0,0.0,0.0,0.0,0.0,0.0,0.0,0.0,0.0,0.0,0.0,0.0,0.0,0.0,0.0,0.0,0.0,0.0,0.0,0.0,0.0,0.0,0.0,0.0,0.0,0.0,0.0,0.0,0.0,0.0,0.0,0.0,0.0,0.0,0.0,0.0,0.0,0.0,0.0,0.0,0.0,0.0,0.0,0.0,0.0,0.0,0.0,0.0,0.0,0.0,0.0,0.0,0.0,0.0,0.0,0.0,0.0,0.0,0.0,0.0,0.0,0.0,0.0,0.0,0.0,0.0,0.0,0.0,0.0,0.0,0.0,0.0,0.0,0.0,0.0,0.0,0.0,0.0,0.0,0.0,0.0,0.0,0.0,0.0,0.0,0.0,0.0,0.0,0.0,0.0,0.0,0.0,0.0,0.0,0.0,0.0,0.0,0.0,0.0,0.0,0.0,0.0,0.0,0.0,0.0,0.0,0.0,0.0,0.0,0.0,0.0,0.0,0.0,0.0,0.0,0.0,0.0,0.0,0.0,0.0,0.0,0.0,0.0,0.0,0.0,0.0,0.0,0.0,0.0,0.0,0.0,0.0,0.0,0.0,0.0,0.0,0.0,0.0,0.0,0.0,0.0,0.0,0.0,0.0,0.0,0.0,0.0,0.0,0.0,0.0,0.0,0.0,0.0,0.0,0.0,0.0,0.0,0.0,0.0,0.0,0.0,0.0,0.0,0.0,0.0,0.0,0.0,0.0,0.0,0.0,0.0,0.0,0.0,0.0,0.0,0.0,0.0,0.0,0.0,0.0,0.0,0.0,0.0,0.0,0.0,0.0,0.0,0.0,0.0,0.0,0.0,0.0,0.0,0.0,0.0,0.0,0.0,0.0,0.0,0.0,0.0,0.0,0.0,0.0,0.0,0.0,0.0,0.0,0.0,0.0,0.0,0.0,0.0,0.0,0.0,0.0,0.0,0.0,0.0,0.0,0.0,0.0,0.0,0.0,0.0,0.0,0.0,0.0,0.0,0.0,0.0,0.0,0.0,0.0,0.0,0.0,0.0,0.0,0.0,0.0,0.0,0.0,0.0,0.0,0.0,0.0,0.0,0.0,0.0,0.0,0.0,0.0,0.0,0.0,0.0,0.0,0.0,0.0,0.0,0.0,0.0,0.0,0.0,0.0,0.0,0.0,0.0,0.0,0.0,0.0,0.0,0.0,0.0,0.0,0.0,0.0,0.0,0.0,0.0,0.0,0.0,0.0,0.0,0.0,0.0,0.0,0.0,0.0,0.0,0.0,0.0,0.0,0.0,0.0,0.0,0.0,0.0,0.0,0.0,0.0,0.0,0.0,0.0,0.0,0.0,0.0,0.0,0.0,0.0,0.0,0.0,0.0,0.0,0.0,0.0,0.0,0.0,0.0,0.0,0.0,0.0,0.0,0.0,0.0,0.0,0.0,0.0,0.0,0.0,0.0,0.0,0.0,0.0,0.0,0.0,0.0,0.0,0.0,0.0,0.0,0.0,0.0,0.0,0.0,0.0,0.0,0.0,0.0,0.0,0.0,0.0,0.0,0.0,0.0,0.0,0.0,0.0,0.0,0.0,0.0,0.0,0.0,0.0,0.0,0.0,0.0,0.0,0.0,0.0,0.0,0.0,0.0,0.0,0.0,0.0,0.0,0.0,0.0,0.0,0.0,0.0,0.0,0.0,0.0,0.0,0.0,0.0,0.0,0.0,0.0,0.0,0.0,0.0,0.0,0.0,0.0,0.0,0.0,0.0,0.0,0.0,0.0,0.0,0.0,0.0,0.0,0.0,0.0,0.0,0.0,0.0,0.0,0.0,0.0,0.0,0.0,0.0,0.0,0.0,0.0,0.0,0.0,0.0,0.0,0.0,0.0,0.0,0.0,0.0,0.0,0.0,0.0,0.0,0.0,0.0,0.0,0.0,0.0,0.0,0.0,0.0,0.0,0.0,0.0,0.0,0.0,0.0,0.0,0.0,0.0,0.0,0.0,0.0,0.0,0.0,0.0,0.0,0.0,0.0,0.0,0.0,0.0,0.0,0.0,0.0,0.0,0.0,0.0,0.0,0.0,0.0,0.0,0.0,0.0,0.0,0.0,0.0,0.0,0.0,0.0,0.0,0.0,0.0,0.0,0.0,0.0,0.0,0.0,0.0,0.0,0.0,0.0,0.0,0.0,0.0,0.0,0.0,0.0,0.0,0.0,0.0,0.0,0.0,0.0,0.0,0.0,-1.43,0.0,0.0,0.0,0.0,0.0,0.0,0.0,0.0,0.0,0.0,0.0,0.0,0.0,0.0,0.0,0.0,0.0,0.0,0.0,0.0,0.0,0.0,0.0,0.0,0.0,0.0,0.0,0.0,0.0,0.0,0.0,0.0,0.0,0.0,0.0,0.0,0.0,0.0,0.0,0.0,0.0,0.0,0.0,0.0,0.0,0.0,0.0,0.0,0.0,0.0,0.0,0.0,0.0,0.0,0.0,0.0,0.0,0.0,0.0,0.0,0.0,0.0,0.0,0.0,0.0,0.0,0.0,0.0,0.0,0.0,0.0,0.0,0.0,0.0,0.0,0.0,0.0,0.0,0.0,0.0,0.0,0.0,0.0,0.0,0.0,0.0,0.0,0.0,0.0,0.0,0.0,0.0,0.0,0.0,0.0,0.0,0.0,0.0,0.0,0.0,0.0,0.0,0.0,0.0,0.0,0.0,0.0,0.0,0.0,0.0,-1.4365,-1.43,-1.43,-1.43,-1.43,0.0,0.0,0.0,0.0,0.0,0.0,0.0,0.0,0.0,0.0,0.0,0.0,0.0,0.0,0.0,0.0,0.0,0.0,0.0,0.0,0.0,0.0,0.0,0.0,0.0,0.0,0.0,0.0,0.0,0.0,0.0,0.0,0.0,0.0,0.0,0.0,0.0,0.0,0.0,0.0,0.0,0.0,0.0,0.0,0.0,0.0,0.0,0.0,0.0,0.0,0.0,0.0,0.0,0.0,0.0,0.0,0.0,0.0,0.0,0.0,0.0,0.0,0.0,0.0,0.0,0.0,0.0,0.0,0.0,0.0,0.0,0.0,0.0,0.0,0.0,0.0,0.0,0.0,0.0,0.0,0.0,0.0,0.0,0.0,0.0,0.0,0.0,0.0,0.0,0.0,0.0,0.0,0.0,0.0,0.0,0.0,0.0,0.0,0.0,0.0,0.0,0.0,0.0,0.0,0.0,0.0,0.0,0.0,0.0,0.0,0.0,0.0,-1.43,-1.43,-1.4222,0.0,0.0,0.0,0.0,0.0,0.0,0.0,0.0,0.0,0.0,0.0,0.0,0.0,0.0,0.0,0.0,0.0,0.0,0.0,0.0,0.0,0.0,0.0,0.0,0.0,0.0,0.0,0.0,0.0,0.0,0.0,0.0,0.0,0.0,0.0,0.0,0.0,0.0,0.0,0.0,0.0,0.0,0.0,0.0,0.0,0.0,0.0,0.0,0.0,0.0,0.0,0.0,0.0,0.0,0.0,0.0,0.0,0.0,0.0,0.0,0.0,0.0,0.0,0.0,0.0,0.0,0.0,0.0,0.0,0.0,0.0,0.0,0.0,0.0,0.0,0.0,0.0,0.0,0.0,0.0,0.0,0.0,0.0,0.0,0.0,0.0,0.0,0.0,0.0,0.0,0.0,0.0,0.0,0.0,0.0,0.0,0.0,0.0,0.0,0.0,0.0,0.0,0.0,0.0,0.0,0.0,0.0,0.0,0.0,0.0,-1.4365,-1.43,-1.43,0.0,-1.4032,0.0,0.0,0.0,0.0,0.0,0.0,0.0,0.0,0.0,0.0,0.0,0.0,0.0,0.0,0.0,0.0,0.0,0.0,0.0,0.0,0.0,0.0,0.0,0.0,0.0,0.0,0.0,0.0,0.0,0.0,0.0,0.0,0.0,0.0,0.0,0.0,0.0,0.0,0.0,0.0,0.0,0.0,0.0,0.0,0.0,0.0,0.0,0.0,0.0,0.0,0.0,0.0,0.0,0.0,0.0,0.0,0.0,0.0,0.0,0.0,0.0,0.0,0.0,0.0,0.0,0.0,0.0,0.0,0.0,0.0,0.0,0.0,0.0,0.0,0.0,0.0,0.0,0.0,0.0,0.0,0.0,0.0,0.0,0.0,0.0,0.0,0.0,0.0,0.0,0.0,0.0,0.0,0.0,0.0,0.0,0.0,0.0,0.0,0.0,0.0,0.0,0.0,0.0,0.0,0.0,0.0,0.0,0.0,0.0,0.0,-1.4319,-1.43,-1.4254,-1.4124,0.0,0.0,0.0,0.0,0.0,0.0,0.0,0.0,0.0,0.0,0.0,0.0,0.0,0.0,0.0,0.0,0.0,0.0,0.0,0.0,0.0,0.0,0.0,0.0,0.0,0.0,0.0,0.0,0.0,0.0,0.0,0.0,0.0,0.0,0.0,0.0,0.0,0.0,0.0,0.0,0.0,0.0,0.0,0.0,0.0,0.0,0.0,0.0,0.0,0.0,0.0,0.0,0.0,0.0,0.0,0.0,0.0,0.0,0.0,0.0,0.0,0.0,0.0,0.0,0.0,0.0,0.0,0.0,0.0,0.0,0.0,0.0,0.0,0.0,0.0,0.0,0.0,0.0,0.0,0.0,0.0,0.0,0.0,0.0,0.0,0.0,0.0,0.0,0.0,0.0,0.0,0.0,0.0,0.0,0.0,0.0,0.0,0.0,0.0,0.0,0.0,0.0,0.0,0.0,0.0,0.0,0.0,0.0,0.0,0.0,-1.4287,-1.4254,-1.4222,-1.417,-1.404,-1.3908,0.0,0.0,0.0,0.0,0.0,0.0,0.0,0.0,0.0,0.0,0.0,0.0,0.0,0.0,0.0,0.0,0.0,0.0,0.0,0.0,0.0,0.0,0.0,0.0,0.0,0.0,0.0,0.0,0.0,0.0,0.0,0.0,0.0,0.0,0.0,0.0,0.0,0.0,0.0,0.0,0.0,0.0,0.0,0.0,0.0,0.0,0.0,0.0,0.0,0.0,0.0,0.0,0.0,0.0,0.0,0.0,0.0,0.0,0.0,0.0,0.0,0.0,0.0,0.0,0.0,0.0,0.0,0.0,0.0,0.0,0.0,0.0,0.0,0.0,0.0,0.0,0.0,0.0,0.0,0.0,0.0,0.0,0.0,0.0,0.0,0.0,0.0,0.0,0.0,0.0,0.0,0.0,0.0,0.0,0.0,0.0,0.0,0.0,0.0,0.0,0.0,0.0,0.0,0.0,0.0,0.0,0.0,0.0,-1.43,-1.4235,-1.4157,-1.4032,-1.396,-1.3921,0.0,0.0,0.0,0.0,0.0,0.0,0.0,0.0,0.0,0.0,0.0,0.0,0.0,0.0,0.0,0.0,0.0,0.0,0.0,0.0,0.0,0.0,0.0,0.0,0.0,0.0,0.0,0.0,0.0,0.0,0.0,0.0,0.0,0.0,0.0,0.0,0.0,0.0,0.0,0.0,0.0,0.0,0.0,0.0,0.0,0.0,0.0,0.0,0.0,0.0,0.0,0.0,0.0,0.0,0.0,0.0,0.0,0.0,0.0,0.0,0.0,0.0,0.0,0.0,0.0,0.0,0.0,0.0,0.0,0.0,0.0,0.0,0.0,0.0,0.0,0.0,0.0,0.0,0.0,0.0,0.0,0.0,0.0,0.0,0.0,0.0,0.0,0.0,0.0,0.0,0.0,0.0,0.0,0.0,0.0,0.0,0.0,0.0,0.0,0.0,0.0,0.0,0.0,0.0,0.0,0.0,0.0,0.0,0.0,-1.4222,-1.4111,-1.4013,-1.3927,-1.3908,-1.3888,0.0,0.0,0.0,0.0,0.0,0.0,0.0,0.0,0.0,0.0,0.0,0.0,0.0,0.0,0.0,0.0,0.0,0.0,0.0,0.0,0.0,0.0,0.0,0.0,0.0,0.0,0.0,0.0,0.0,0.0,0.0,0.0,0.0,0.0,0.0,0.0,0.0,0.0,0.0,0.0,0.0,0.0,0.0,0.0,0.0,0.0,0.0,0.0,0.0,0.0,0.0,0.0,0.0,0.0,0.0,0.0,0.0,0.0,0.0,0.0,0.0,0.0,0.0,0.0,0.0,0.0,0.0,0.0,0.0,0.0,0.0,0.0,0.0,0.0,0.0,0.0,0.0,0.0,0.0,0.0,0.0,0.0,0.0,0.0,0.0,0.0,0.0,0.0,0.0,0.0,0.0,0.0,0.0,0.0,0.0,0.0,0.0,0.0,0.0,0.0,0.0,0.0,0.0,0.0,0.0,0.0,0.0,0.0,0.0,-1.4105,0.0,-1.396,0.0,-1.3888,-1.3854,0.0,0.0,0.0,0.0,0.0,0.0,0.0,0.0,0.0,0.0,0.0,0.0,0.0,0.0,0.0,0.0,0.0,0.0,0.0,0.0,0.0,0.0,0.0,0.0,0.0,0.0,0.0,0.0,0.0,0.0,0.0,0.0,0.0,0.0,0.0,0.0,0.0,0.0,0.0,0.0,0.0,0.0,0.0,0.0,0.0,0.0,0.0,0.0,0.0,0.0,0.0,0.0,0.0,0.0,0.0,0.0,0.0,0.0,0.0,0.0,0.0,0.0,0.0,0.0,0.0,0.0,0.0,0.0,0.0,0.0,0.0,0.0,0.0,0.0,0.0,0.0,0.0,0.0,0.0,0.0,0.0,0.0,0.0,0.0,0.0,0.0,0.0,0.0,0.0,0.0,0.0,0.0,0.0,0.0,0.0,0.0,0.0,0.0,0.0,0.0,0.0,0.0,0.0,0.0,0.0,0.0,0.0,0.0,-1.4132,-1.3908,-1.3908,-1.3854,-1.3775,-1.3788,-1.3788,0.0,0.0,0.0,0.0,0.0,0.0,0.0,0.0,0.0,0.0,0.0,0.0,0.0,0.0,0.0,0.0,0.0,0.0,0.0,0.0,0.0,0.0,0.0,0.0,0.0,0.0,0.0,0.0,0.0,0.0,0.0,0.0,0.0,0.0,0.0,0.0,0.0,0.0,0.0,0.0,0.0,0.0,0.0,0.0,0.0,0.0,0.0,0.0,0.0,0.0,0.0,0.0,0.0,0.0,0.0,0.0,0.0,0.0,0.0,0.0,0.0,0.0,0.0,0.0,0.0,0.0,0.0,0.0,0.0,0.0,0.0,0.0,0.0,0.0,0.0,0.0,0.0,0.0,0.0,0.0,0.0,0.0,0.0,0.0,0.0,0.0,0.0,0.0,0.0,0.0,0.0,0.0,0.0,0.0,0.0,0.0,0.0,0.0,0.0,0.0,0.0,0.0,0.0,0.0,0.0,0.0,0.0,0.0,0.0,-1.3754,-1.3695,-1.3661,-1.3607,-1.3628,-1.3661,0.0,0.0,0.0,0.0,0.0,0.0,0.0,0.0,0.0,0.0,0.0,0.0,0.0,0.0,0.0,0.0,0.0,0.0,0.0,0.0,0.0,0.0,0.0,0.0,0.0,0.0,0.0,0.0,0.0,0.0,0.0,0.0,0.0,0.0,0.0,0.0,0.0,0.0,0.0,0.0,0.0,0.0,0.0,0.0,0.0,0.0,0.0,0.0,0.0,0.0,0.0,0.0,0.0,0.0,0.0,0.0,0.0,0.0,0.0,0.0,0.0,0.0,0.0,0.0,0.0,0.0,0.0,0.0,0.0,0.0,0.0,0.0,0.0,0.0,0.0,0.0,0.0,0.0,0.0,0.0,0.0,0.0,0.0,0.0,0.0,0.0,0.0,0.0,0.0,0.0,0.0,0.0,0.0,0.0,0.0,0.0,0.0,0.0,0.0,0.0,0.0,0.0,0.0,0.0,0.0,0.0,0.0,0.0,0.0,-1.4265,-1.4227,-1.4191,-1.4133,-1.4156,-1.4227,-1.4214,0.0,0.0,0.0,0.0,0.0,0.0,0.0,0.0,0.0,0.0,0.0,0.0,0.0,0.0,0.0,0.0,0.0,0.0,0.0,0.0,0.0,0.0,0.0,0.0,0.0,0.0,0.0,0.0,0.0,0.0,0.0,0.0,0.0,0.0,0.0,0.0,0.0,0.0,0.0,0.0,0.0,0.0,0.0,0.0,0.0,0.0,0.0,0.0,0.0,0.0,0.0,0.0,0.0,0.0,0.0,0.0,0.0,0.0,0.0,0.0,0.0,0.0,0.0,0.0,0.0,0.0,0.0,0.0,0.0,0.0,0.0,0.0,0.0,0.0,0.0,0.0,0.0,0.0,0.0,0.0,0.0,0.0,0.0,0.0,0.0,0.0,0.0,0.0,0.0,0.0,0.0,0.0,0.0,0.0,0.0,0.0,0.0,0.0,0.0,0.0,0.0,0.0,0.0,0.0,0.0,0.0,0.0,0.0,-1.5299,-1.5376,-1.5337,-1.5146,-1.5146,-1.5235,0.0,0.0,0.0,0.0,0.0,0.0,0.0,0.0,0.0,0.0,0.0,0.0,0.0,0.0,0.0,0.0,0.0,0.0,0.0,0.0,0.0,0.0,0.0,0.0,0.0,0.0,0.0,0.0,0.0,0.0,0.0,0.0,0.0,0.0,0.0,0.0,0.0,0.0,0.0,0.0,0.0,0.0,0.0,0.0,0.0,0.0,0.0,0.0,0.0,0.0,0.0,0.0,0.0,0.0,0.0,0.0,0.0,0.0,0.0,0.0,0.0,0.0,0.0,0.0,0.0,0.0,0.0,0.0,0.0,0.0,0.0,0.0,0.0,0.0,0.0,0.0,0.0,0.0,0.0,0.0,0.0,0.0,0.0,0.0,0.0,0.0,0.0,0.0,0.0,0.0,0.0,0.0,0.0,0.0,0.0,0.0,0.0,0.0,0.0,0.0,0.0,0.0,0.0,0.0,0.0,0.0,0.0,0.0,0.0,-1.655,-1.6481,-1.599,-1.5043,-1.5031,-1.5108,0.0,0.0,0.0,0.0,0.0,0.0,0.0,0.0,0.0,0.0,0.0,0.0,0.0,0.0,0.0,0.0,0.0,0.0,0.0,0.0,0.0,0.0,0.0,0.0,0.0,0.0,0.0,0.0,0.0,0.0,0.0,0.0,0.0,0.0,0.0,0.0,0.0,0.0,0.0,0.0,0.0,0.0,0.0,0.0,0.0,0.0,0.0,0.0,0.0,0.0,0.0,0.0,0.0,0.0,0.0,0.0,0.0,0.0,0.0,0.0,0.0,0.0,0.0,0.0,0.0,0.0,0.0,0.0,0.0,0.0,0.0,0.0,0.0,0.0,0.0,0.0,0.0,0.0,0.0,0.0,0.0,0.0,0.0,0.0,0.0,0.0,0.0,0.0,0.0,0.0,0.0,0.0,0.0,0.0,0.0,0.0,0.0,0.0,0.0,0.0,0.0,0.0,0.0,0.0,0.0,0.0,0.0,0.0,-1.7406,-1.7086,-1.7002,-1.6568,-1.5754,-1.5729,-1.5782,0.0,0.0,0.0,0.0,0.0,0.0,0.0,0.0,0.0,0.0,0.0,0.0,0.0,0.0,0.0,0.0,0.0,0.0,0.0,0.0,0.0,0.0,0.0,0.0,0.0,0.0,0.0,0.0,0.0,0.0,0.0,0.0,0.0,0.0,0.0,0.0,0.0,0.0,0.0,0.0,0.0,0.0,0.0,0.0,0.0,0.0,0.0,0.0,0.0,0.0,0.0,0.0,0.0,0.0,0.0,0.0,0.0,0.0,0.0,0.0,0.0,0.0,0.0,0.0,0.0,0.0,0.0,0.0,0.0,0.0,0.0,0.0,0.0,0.0,0.0,0.0,0.0,0.0,0.0,0.0,0.0,0.0,0.0,0.0,0.0,0.0,0.0,0.0,0.0,0.0,0.0,0.0,0.0,0.0,0.0,0.0,0.0,0.0,0.0,0.0,0.0,0.0,0.0,0.0,0.0,0.0,0.0,0.0,-1.7636,-1.7332,-1.7271,-1.7144,-1.705,-1.6829,-1.6761,0.0,0.0,0.0,0.0,0.0,0.0,0.0,0.0,0.0,0.0,0.0,0.0,0.0,0.0,0.0,0.0,0.0,0.0,0.0,0.0,0.0,0.0,0.0,0.0,0.0,0.0,0.0,0.0,0.0,0.0,0.0,0.0,0.0,0.0,0.0,0.0,0.0,0.0,0.0,0.0,0.0,0.0,0.0,0.0,0.0,0.0,0.0,0.0,0.0,0.0,0.0,0.0,0.0,0.0,0.0,0.0,0.0,0.0,0.0,0.0,0.0,0.0,0.0,0.0,0.0,0.0,0.0,0.0,0.0,0.0,0.0,0.0,0.0,0.0,0.0,0.0,0.0,0.0,0.0,0.0,0.0,0.0,0.0,0.0,0.0,0.0,0.0,0.0,0.0,0.0,0.0,0.0,0.0,0.0,0.0,0.0,0.0,0.0,0.0,0.0,0.0,0.0,0.0,0.0,0.0,0.0,0.0,0.0,-1.849,-1.8291,-1.8601,-1.8482,-1.8004,-1.7248,-1.6876,0.0,0.0,0.0,0.0,0.0,0.0,0.0,0.0,0.0,0.0,0.0,0.0,0.0,0.0,0.0,0.0,0.0,0.0,0.0,0.0,0.0,0.0,0.0,0.0,0.0,0.0,0.0,0.0,0.0,0.0,0.0,0.0,0.0,0.0,0.0,0.0,0.0,0.0,0.0,0.0,0.0,0.0,0.0,0.0,0.0,0.0,0.0,0.0,-2.3003,0.0,0.0,0.0,0.0,0.0,0.0,0.0,0.0,0.0,0.0,0.0,0.0,0.0,0.0,0.0,0.0,0.0,0.0,0.0,0.0,0.0,0.0,0.0,0.0,0.0,0.0,0.0,0.0,0.0,0.0,0.0,0.0,0.0,0.0,0.0,0.0,0.0,0.0,0.0,0.0,0.0,0.0,0.0,0.0,0.0,0.0,0.0,0.0,0.0,0.0,0.0,0.0,0.0,0.0,0.0,0.0,0.0,0.0,0.0,-1.8975,-1.882,-1.9172,-1.9066,-1.8465,-1.7945,-1.7529,0.0,0.0,0.0,0.0,0.0,0.0,0.0,0.0,0.0,0.0,0.0,0.0,0.0,0.0,0.0,0.0,0.0,0.0,0.0,0.0,0.0,0.0,0.0,0.0,0.0,0.0,0.0,0.0,0.0,0.0,0.0,0.0,0.0,0.0,0.0,0.0,0.0,0.0,0.0,0.0,0.0,0.0,0.0,0.0,0.0,0.0,0.0,0.0,0.0,0.0,0.0,0.0,0.0,0.0,0.0,0.0,0.0,0.0,0.0,0.0,0.0,0.0,0.0,0.0,0.0,0.0,0.0,0.0,0.0,0.0,0.0,0.0,0.0,0.0,0.0,0.0,0.0,0.0,0.0,0.0,0.0,0.0,0.0,0.0,0.0,0.0,0.0,0.0,0.0,0.0,0.0,0.0,0.0,0.0,0.0,0.0,0.0,0.0,0.0,0.0,0.0,0.0,0.0,0.0,0.0,0.0,0.0,-1.9315,-1.9489,-1.9503,-1.9751,-1.9578,-1.8886,-1.8843,-1.8448,-1.7583,0.0,0.0,0.0,0.0,0.0,0.0,0.0,0.0,0.0,0.0,0.0,0.0,0.0,0.0,0.0,0.0,0.0,0.0,0.0,0.0,0.0,0.0,0.0,0.0,0.0,0.0,0.0,0.0,0.0,0.0,0.0,0.0,0.0,0.0,0.0,0.0,0.0,0.0,-2.0686,-2.1516,0.0,0.0,0.0,0.0,0.0,0.0,0.0,0.0,-2.3389,0.0,0.0,0.0,0.0,0.0,0.0,0.0,0.0,0.0,0.0,0.0,0.0,0.0,0.0,0.0,0.0,0.0,0.0,0.0,0.0,0.0,0.0,0.0,0.0,0.0,0.0,0.0,0.0,0.0,0.0,0.0,0.0,0.0,0.0,0.0,0.0,0.0,0.0,0.0,0.0,0.0,0.0,0.0,0.0,0.0,0.0,0.0,0.0,0.0,0.0,0.0,0.0,0.0,0.0,0.0,0.0,-2.0132,-2.0306,-2.0614,-2.1182,-2.1552,-2.1147,-1.9988,-1.999,-1.9419,-1.8244,0.0,0.0,0.0,0.0,0.0,0.0,0.0,0.0,0.0,0.0,0.0,0.0,0.0,0.0,0.0,0.0,0.0,0.0,0.0,0.0,0.0,0.0,0.0,0.0,0.0,0.0,0.0,0.0,0.0,0.0,0.0,0.0,0.0,0.0,0.0,0.0,0.0,0.0,0.0,-2.2452,-2.3052,0.0,0.0,0.0,0.0,0.0,0.0,0.0,0.0,-2.3624,0.0,0.0,0.0,0.0,0.0,0.0,0.0,0.0,0.0,0.0,0.0,0.0,0.0,0.0,0.0,0.0,0.0,0.0,0.0,0.0,0.0,0.0,0.0,0.0,0.0,0.0,0.0,0.0,0.0,0.0,0.0,0.0,0.0,0.0,0.0,0.0,0.0,0.0,0.0,0.0,0.0,0.0,0.0,0.0,0.0,0.0,0.0,0.0,0.0,0.0,0.0,0.0,0.0,0.0,0.0,-2.0692,-2.0896,-2.132,-2.1931,-2.2302,-2.1865,-2.0628,-2.0585,-1.9946,0.0,0.0,0.0,0.0,0.0,0.0,0.0,0.0,0.0,0.0,0.0,0.0,0.0,0.0,0.0,0.0,0.0,0.0,0.0,0.0,0.0,0.0,0.0,0.0,0.0,0.0,0.0,0.0,0.0,0.0,0.0,0.0,0.0,0.0,0.0,0.0,0.0,0.0,0.0,0.0,-2.3012,-2.3265,-2.3271,0.0,0.0,0.0,0.0,0.0,0.0,-2.3643,-2.3683,0.0,0.0,0.0,0.0,0.0,0.0,0.0,0.0,0.0,0.0,0.0,0.0,0.0,0.0,0.0,0.0,0.0,0.0,0.0,0.0,0.0,0.0,0.0,0.0,0.0,0.0,0.0,0.0,0.0,0.0,0.0,0.0,0.0,0.0,0.0,0.0,0.0,0.0,0.0,0.0,0.0,0.0,0.0,0.0,0.0,0.0,0.0,0.0,0.0,0.0,0.0,0.0,0.0,0.0,0.0,-2.1338,-2.1657,-2.2062,-2.2649,-2.2849,-2.2338,-2.1131,-2.1003,-2.0353,0.0,0.0,0.0,0.0,0.0,0.0,0.0,0.0,0.0,0.0,0.0,0.0,0.0,0.0,0.0,0.0,0.0,0.0,0.0,0.0,0.0,0.0,0.0,0.0,0.0,0.0,0.0,0.0,0.0,0.0,0.0,0.0,0.0,0.0,0.0,0.0,0.0,0.0,0.0,0.0,0.0,-2.3383,-2.3383,-2.3476,0.0,0.0,0.0,0.0,-2.37,-2.3974,0.0,0.0,0.0,0.0,0.0,0.0,0.0,0.0,0.0,0.0,0.0,0.0,0.0,0.0,0.0,0.0,0.0,0.0,0.0,0.0,0.0,0.0,0.0,0.0,0.0,0.0,0.0,0.0,0.0,0.0,0.0,0.0,0.0,0.0,0.0,0.0,0.0,0.0,0.0,0.0,0.0,0.0,0.0,0.0,0.0,0.0,0.0,0.0,0.0,0.0,0.0,0.0,0.0,0.0,0.0,0.0,-2.2462,-2.2887,-2.335,-2.3842,-2.3736,-2.3023,-2.1655,-2.16,-2.0935,0.0,0.0,0.0,0.0,0.0,0.0,0.0,0.0,0.0,0.0,0.0,0.0,0.0,0.0,0.0,0.0,0.0,0.0,0.0,0.0,0.0,0.0,0.0,0.0,0.0,0.0,0.0,0.0,0.0,0.0,0.0,0.0,0.0,0.0,0.0,0.0,0.0,0.0,0.0,0.0,0.0,-2.3656,-2.3656,-2.3674,-2.3678,0.0,0.0,-2.3682,-2.3718,-2.4932,0.0,0.0,0.0,0.0,0.0,0.0,0.0,0.0,0.0,0.0,0.0,0.0,0.0,0.0,0.0,0.0,0.0,0.0,0.0,0.0,0.0,0.0,0.0,0.0,0.0,0.0,0.0,0.0,0.0,0.0,0.0,0.0,0.0,0.0,0.0,0.0,0.0,0.0,0.0,0.0,0.0,0.0,0.0,0.0,0.0,0.0,0.0,0.0,0.0,0.0,0.0,0.0,0.0,0.0,0.0,-2.3351,-2.369,-2.3771,-2.4053,-2.4527,-2.4354,-2.3784,-2.2801,-2.2394,-2.1765,0.0,0.0,0.0,0.0,0.0,0.0,0.0,0.0,0.0,0.0,0.0,0.0,0.0,0.0,0.0,0.0,0.0,0.0,0.0,0.0,0.0,0.0,0.0,0.0,0.0,0.0,0.0,0.0,0.0,0.0,0.0,0.0,0.0,0.0,0.0,0.0,0.0,0.0,0.0,0.0,0.0,0.0,-2.4382,-2.4458,0.0,0.0,0.0,-2.4122,-2.5067,0.0,0.0,0.0,0.0,0.0,0.0,0.0,0.0,0.0,0.0,0.0,0.0,0.0,0.0,0.0,0.0,0.0,0.0,0.0,0.0,0.0,0.0,0.0,0.0,0.0,0.0,0.0,0.0,0.0,0.0,0.0,0.0,0.0,0.0,0.0,0.0,0.0,0.0,0.0,0.0,0.0,0.0,0.0,0.0,0.0,0.0,0.0,0.0,0.0,0.0,0.0,0.0,0.0,0.0,0.0,0.0,0.0,-2.468,-2.4681,-2.4852,-2.5137,-2.4974,-2.4547,-2.3891,-2.3333,0.0,0.0,0.0,0.0,0.0,0.0,0.0,0.0,0.0,0.0,0.0,0.0,0.0,0.0,0.0,0.0,0.0,0.0,0.0,0.0,0.0,0.0,0.0,0.0,0.0,0.0,0.0,-2.2194,0.0,0.0,0.0,0.0,0.0,0.0,0.0,0.0,0.0,0.0,0.0,0.0,0.0,0.0,-2.4668,-2.527,-2.5387,-2.5627,0.0,0.0,-2.4896,-2.618,-2.6753,-2.6976,0.0,0.0,0.0,0.0,0.0,0.0,0.0,0.0,0.0,0.0,0.0,0.0,0.0,0.0,0.0,0.0,0.0,0.0,0.0,0.0,0.0,0.0,0.0,0.0,0.0,0.0,0.0,0.0,0.0,0.0,0.0,0.0,0.0,0.0,0.0,0.0,0.0,0.0,0.0,0.0,0.0,0.0,0.0,0.0,0.0,0.0,0.0,0.0,0.0,0.0,0.0,0.0,0.0,0.0,0.0,-2.528,-2.5725,-2.5911,-2.5844,-2.5701,-2.5306,-2.4658,-2.4437,-2.4029,0.0,0.0,0.0,0.0,0.0,0.0,0.0,0.0,0.0,0.0,0.0,0.0,0.0,0.0,0.0,0.0,0.0,0.0,0.0,0.0,0.0,0.0,0.0,0.0,0.0,0.0,0.0,0.0,0.0,0.0,0.0,0.0,0.0,0.0,0.0,0.0,0.0,0.0,0.0,0.0,0.0,-2.6239,-2.6293,-2.6312,-2.633,0.0,0.0,-2.6275,-2.6385,-2.7753,-2.8572,-2.7757,0.0,0.0,0.0,0.0,0.0,0.0,0.0,0.0,0.0,0.0,0.0,0.0,0.0,0.0,0.0,0.0,0.0,0.0,0.0,0.0,0.0,0.0,0.0,0.0,0.0,0.0,0.0,0.0,0.0,0.0,0.0,0.0,0.0,0.0,0.0,0.0,0.0,0.0,0.0,0.0,0.0,0.0,0.0,0.0,0.0,0.0,0.0,0.0,0.0,0.0,0.0,0.0,0.0,-2.6688,-2.648,-2.6589,-2.6573,-2.64,-2.6245,-2.6042,-2.5758,-2.5292,-2.4928,0.0,0.0,0.0,0.0,0.0,0.0,0.0,0.0,0.0,0.0,0.0,0.0,0.0,0.0,0.0,0.0,0.0,0.0,0.0,0.0,0.0,0.0,0.0,0.0,0.0,0.0,0.0,0.0,-2.3634,-2.3718,-2.3768,0.0,0.0,0.0,0.0,0.0,0.0,0.0,0.0,0.0,0.0,-2.678,-2.7298,-2.7393,0.0,0.0,-2.8092,-2.8092,-2.8128,-2.8684,-2.9001,-2.8647,-2.8909,0.0,0.0,0.0,0.0,0.0,0.0,0.0,0.0,0.0,0.0,0.0,0.0,0.0,0.0,0.0,0.0,0.0,0.0,0.0,0.0,0.0,0.0,0.0,0.0,0.0,0.0,0.0,0.0,0.0,0.0,0.0,0.0,0.0,0.0,0.0,0.0,0.0,0.0,0.0,0.0,0.0,0.0,0.0,0.0,0.0,0.0,0.0,0.0,0.0,0.0,0.0,0.0,-2.7674,-2.7747,-2.7365,-2.7223,-2.7263,-2.6959,-2.6757,-2.6691,-2.6266,-2.6012,0.0,0.0,0.0,0.0,0.0,0.0,0.0,0.0,0.0,0.0,0.0,0.0,0.0,0.0,0.0,0.0,0.0,0.0,0.0,0.0,0.0,0.0,0.0,0.0,0.0,0.0,0.0,0.0,-2.4411,-2.4641,-2.4707,0.0,0.0,0.0,0.0,0.0,0.0,0.0,0.0,0.0,0.0,-2.7703,-2.8318,-2.8392,-2.8595,-2.9166,-2.9163,-2.9237,-2.9514,-2.9643,-2.9776,-2.9906,0.0,0.0,0.0,0.0,0.0,0.0,0.0,0.0,0.0,0.0,0.0,0.0,0.0,0.0,0.0,0.0,0.0,0.0,0.0,0.0,0.0,0.0,0.0,0.0,0.0,0.0,0.0,0.0,0.0,0.0,0.0,0.0,0.0,0.0,0.0,0.0,0.0,0.0,0.0,0.0,0.0,0.0,0.0,0.0,0.0,0.0,0.0,0.0,0.0,0.0,0.0,0.0,0.0,-2.8346,-2.8946,-2.8097,-2.7923,-2.8537,-2.7861,-2.7513,-2.7483,-2.7448,-2.743,-2.743,0.0,0.0,0.0,0.0,0.0,0.0,0.0,0.0,0.0,0.0,0.0,0.0,0.0,0.0,0.0,0.0,0.0,0.0,0.0,0.0,0.0,0.0,0.0,0.0,0.0,0.0,-2.5002,-2.5899,-2.6423,0.0,0.0,0.0,0.0,0.0,0.0,0.0,0.0,0.0,0.0,-2.8751,-2.9237,-2.9275,-2.9293,-2.9328,-2.9357,-2.9283,-2.9502,-3.0294,-3.0668,-3.1061,0.0,0.0,0.0,0.0,0.0,0.0,0.0,0.0,0.0,0.0,0.0,0.0,0.0,0.0,0.0,0.0,0.0,0.0,0.0,0.0,0.0,0.0,0.0,0.0,0.0,0.0,0.0,0.0,-2.9625,0.0,0.0,0.0,0.0,0.0,0.0,0.0,0.0,0.0,0.0,0.0,-3.1265,-3.1496,0.0,0.0,0.0,0.0,0.0,0.0,0.0,0.0,0.0,0.0,0.0,0.0,-2.9955,-3.0177,-2.9799,-2.9644,-2.9783,-2.9554,-2.9135,-2.8564,-2.8564,-2.8317,-2.7789,0.0,0.0,0.0,0.0,0.0,0.0,0.0,0.0,0.0,0.0,0.0,0.0,0.0,0.0,0.0,0.0,0.0,0.0,0.0,0.0,0.0,0.0,0.0,0.0,0.0,-2.5673,0.0,0.0,0.0,0.0,0.0,0.0,0.0,0.0,0.0,0.0,0.0,-2.8981,-2.9021,-2.9712,-3.0234,-3.0234,-3.074,-3.1094,0.0,0.0,0.0,0.0,0.0,0.0,0.0,0.0,0.0,0.0,0.0,0.0,0.0,0.0,-3.1412,-3.1431,-3.177,-3.1826,-3.1105,0.0,0.0,0.0,0.0,0.0,0.0,0.0,0.0,0.0,0.0,0.0,0.0,0.0,0.0,0.0,0.0,-3.147,0.0,0.0,0.0,0.0,0.0,0.0,0.0,0.0,-3.2449,-3.2709,-3.2747,-3.3264,-3.352,0.0,-3.3194,-3.2974,0.0,0.0,0.0,0.0,0.0,0.0,0.0,0.0,-3.1056,-3.1309,-3.0962,-3.083,-3.1004,-3.0754,-3.0331,-2.9783,-2.9765,-2.938,-2.8594,-2.854,-2.8433,0.0,0.0,0.0,0.0,0.0,0.0,0.0,0.0,0.0,0.0,0.0,0.0,0.0,0.0,0.0,0.0,0.0,0.0,0.0,0.0,0.0,0.0,0.0,-2.7001,0.0,0.0,0.0,0.0,0.0,0.0,0.0,0.0,0.0,-2.9212,-2.9586,-3.0035,-3.0394,-3.0901,-3.1258,-3.1258,0.0,0.0,0.0,0.0,0.0,0.0,0.0,-3.2585,-3.2887,-3.2943,-3.2945,-3.3026,-3.3068,-3.3109,-3.3204,0.0,0.0,-3.243,-3.2656,-3.2787,-3.2329,-3.2591,-3.312,-3.3922,-3.3789,-3.3522,0.0,0.0,0.0,0.0,0.0,0.0,0.0,0.0,-3.1728,-3.1819,0.0,-3.1978,0.0,0.0,0.0,0.0,0.0,0.0,0.0,0.0,-3.3792,-3.4483,-3.4614,-3.6091,-3.6857,-3.6857,-3.6053,-3.5693,-3.5581,-3.3078,0.0,0.0,0.0,0.0,0.0,0.0,-3.1662,-3.2411,-3.1583,-3.1492,-3.2208,-3.1483,-3.1075,-3.1057,-3.1003,-3.0622,-2.9888,-2.9852,-2.9489,-2.8739,-2.8703,0.0,0.0,0.0,0.0,0.0,0.0,0.0,0.0,0.0,0.0,0.0,0.0,0.0,0.0,0.0,0.0,0.0,0.0,0.0,0.0,-2.7571,0.0,0.0,0.0,0.0,0.0,0.0,0.0,0.0,0.0,0.0,-3.0995,-3.0902,-3.1242,-3.2052,0.0,0.0,0.0,0.0,-3.2374,-3.2316,-3.2297,-3.2579,-3.3347,-3.344,-3.3723,-3.4536,0.0,0.0,-3.4769,-3.479,-3.4773,-3.487,-3.4813,-3.4415,-3.2863,-3.2653,-3.28,-3.3327,-3.3665,-3.4156,-3.4964,-3.5133,-3.5207,-3.4713,0.0,0.0,0.0,0.0,-3.4989,-3.5069,-3.5166,-3.5173,-3.5256,-3.533,-3.5427,0.0,0.0,0.0,0.0,0.0,0.0,-3.58,-3.58,-3.6252,-3.6456,-3.6475,-3.6904,-3.7126,-3.7126,-3.6836,-3.67,-3.6663,-3.5899,-3.4843,-3.3549,0.0,0.0,0.0,0.0,-3.3305,-3.3482,-3.3193,-3.3113,-3.3351,-3.3113,-3.271,-3.2169,-3.1583,-3.1181,-3.0943,-3.0943,-3.0833,-3.0613,-3.0613,0.0,0.0,0.0,0.0,0.0,0.0,0.0,0.0,0.0,0.0,0.0,0.0,0.0,0.0,0.0,0.0,0.0,0.0,0.0,-2.8544,-2.9386,-2.993,0.0,0.0,0.0,0.0,0.0,0.0,0.0,0.0,0.0,-3.2826,-3.2279,-3.1996,0.0,0.0,-3.3166,-3.3166,-3.3694,-3.4071,-3.4051,0.0,0.0,0.0,-3.4389,-3.4465,-3.473,-3.481,-3.485,-3.4927,-3.4983,-3.502,-3.5039,-3.5038,-3.5038,-3.5172,-3.4715,-3.4447,-3.4651,-3.4742,-3.4887,-3.5203,-3.5733,-3.622,-3.8313,-3.8158,-3.6924,-3.6464,-3.6527,-3.6607,-3.666,-3.6738,-3.6789,-3.6864,-3.6919,-3.7033,-3.7103,-3.7149,-3.726,0.0,0.0,0.0,-3.7345,-3.7345,-3.7686,-3.7856,-3.7875,-3.8134,-3.8266,-3.8244,-3.7901,-3.775,-3.775,-3.7392,-3.6663,-3.5558,0.0,0.0,-3.5315,-3.52,-3.5131,-3.5106,-3.4984,-3.495,-3.495,-3.4637,-3.4083,-3.3271,-3.2779,-3.2373,-3.2059,-3.204,-3.1893,-3.1579,-3.156,-3.1542,0.0,0.0,0.0,0.0,0.0,0.0,0.0,0.0,0.0,0.0,0.0,-2.9613,-2.9613,0.0,0.0,0.0,-3.0272,-3.0318,-3.0381,-3.091,0.0,0.0,0.0,0.0,0.0,0.0,0.0,-3.2845,-3.3185,-3.3637,-3.4167,-3.377,-3.3411,-3.3411,-3.3809,-3.4131,-3.4131,0.0,-3.54,-3.5419,-3.5684,-3.5912,-3.5912,-3.5912,-3.5912,-3.5912,-3.5932,-3.5989,-3.6064,-3.61,-3.6155,-3.6171,-3.6171,-3.6341,-3.6818,-3.653,-3.6205,-3.6188,-3.6239,-3.6288,-3.6339,-3.6773,-3.713,-4.1508,-4.1359,-3.8312,-3.7087,-3.7102,-3.7187,-3.7256,-3.7312,-3.7379,-3.7451,-3.7521,-3.7589,-3.7678,-3.7823,-3.7809,0.0,0.0,-3.781,-3.7867,-3.7848,-3.8624,-3.9003,-3.9041,-3.9781,-4.0119,-4.01,-3.9364,-3.9003,-3.8984,-3.8171,-3.7732,-3.7702,-3.7461,-3.722,-3.7047,-3.6929,-3.6894,-3.682,-3.6752,-3.6745,-3.6726,-3.6012,-3.5231,-3.4357,-3.4338,-3.3966,-3.3162,-3.3129,-3.2794,-3.2091,-3.2017,-3.2017,-3.2017,0.0,0.0,0.0,0.0,0.0,0.0,0.0,0.0,0.0,0.0,0.0,0.0,0.0,0.0,0.0,-3.1958,0.0,-3.2019,-3.2156,0.0,0.0,0.0,-3.2449,-3.2506,-3.3204,-3.3734,-3.379,0.0,0.0,0.0,0.0,-3.5319,-3.5337,-3.5262,-3.5207,-3.5283,-3.5949,-3.6406,-3.6387,-3.7034,-3.7566,-3.7414,-3.7433,-3.7433,-3.7452,-3.7604,-3.7546,-3.7583,-3.7619,-3.7712,-3.7685,-3.7797,-3.7852,-3.7942,-3.7958,-3.8,-3.7936,-3.7852,-3.7843,-3.7785,-3.7894,-3.8001,-4.1649,-4.1698,-4.0996,-4.0659,-4.0578,-4.0659,-4.072,-4.079,-4.0867,-4.0966,-4.1062,-4.115,-4.1241,-4.1369,-4.135,-4.1371,-4.1371,-4.1352,-4.1371,-4.139,-4.158,-4.1675,-4.1675,-4.1863,-4.1958,-4.1939,-4.1768,-4.1675,-4.1637,-4.0838,-4.0458,-4.042,-3.9749,-3.8656,-3.7272,-3.7171,-3.7107,-3.7084,-3.7038,-3.7014,-3.7014,-3.6808,-3.6297,-3.5435,-3.5417,-3.5042,-3.4255,-3.4236,-3.4142,-3.3955,-3.3918,-3.3955,-3.3936,-3.3936,0.0,0.0,0.0,0.0,0.0,0.0,0.0,0.0,0.0,-3.1678,-3.1738,0.0,-3.2042,0.0,-3.2125,-3.2163,-3.2144,-3.2806,0.0,0.0,-3.3847,-3.4264,-3.4339,-3.4547,-3.4679,-3.4694,-3.5545,-3.6226,-3.6432,-3.6922,-3.7242,-3.7223,-3.6514,-3.6234,-3.6881,-3.7147,-3.73,-3.7319,-3.7509,-3.7623,-3.7736,-3.7677,-3.775,-3.7747,-3.7766,-3.7764,-3.7852,-3.7871,-3.7852,-3.7885,-3.7885,-3.8115,-3.8706,-3.8888,-3.9189,-3.9576,-3.8812,-3.7909,-3.7913,-3.8454,-3.8979,-4.3986,-4.413,-4.4168,-4.4195,-4.4083,-4.2645,-4.2077,-4.2083,-4.2184,-4.2281,-4.237,-4.2506,-4.2612,-4.2675,-4.2736,-4.2717,-4.2737,-4.2736,-4.2717,-4.2717,-4.2756,-4.2717,-4.2756,-4.2717,-4.2717,-4.2736,-4.2717,-4.2737,-4.2698,-4.2297,-4.2068,-4.1991,-4.1532,-4.0787,-3.9754,-3.8888,-3.842,-3.8398,-3.8376,-3.8165,-3.7826,-3.7807,-3.7392,-3.6543,-3.6505,-3.6316,-3.5845,-3.5524,-3.5317,-3.5298,-3.4938,-3.473,-3.473,-3.4711,-3.473,0.0,0.0,0.0,0.0,0.0,0.0,0.0,0.0,0.0,0.0,0.0,-3.3314,0.0,-3.3374,-3.3412,-3.3412,-3.4245,-3.4794,-3.4813,-3.5609,-3.6178,-3.6194,-3.6231,-3.6134,-3.5885,-3.6599,-3.728,-3.768,-3.7846,-3.8054,-3.838,-3.7953,-3.7615,-3.7731,-3.8018,-3.8266,-3.8266,-3.8591,-3.8858,-3.8913,-3.8892,-3.8908,-3.8942,-3.8958,-3.8994,-3.9077,-3.9112,-3.9092,-3.9123,-3.9104,-3.9238,-3.9681,-3.9846,-4.0068,-4.0299,-3.9803,-3.9191,-3.9114,-3.9528,-3.9885,-4.6847,-4.7032,-4.7032,-4.7118,-4.703,-4.4121,-4.2875,-4.2875,-4.2995,-4.3065,-4.313,-4.3344,-4.3407,-4.3292,-4.3369,-4.331,-4.3215,-4.3214,-4.3214,-4.3215,-4.3215,-4.3215,-4.3215,-4.3215,-4.3215,-4.3215,-4.3195,-4.3215,-4.3215,-4.3119,-4.3024,-4.2967,-4.289,-4.2813,-4.2754,-4.1188,-4.0226,-3.9954,-3.9914,-3.9612,-3.8911,-3.8912,-3.8495,-3.7659,-3.7603,-3.7565,-3.7432,-3.6767,-3.6388,-3.6369,-3.5647,-3.5268,-3.5268,-3.5249,-3.5268,0.0,-3.5249,0.0,0.0,0.0,0.0,0.0,0.0,0.0,0.0,-3.466,-3.5192,-3.5249,-3.5249,-3.5249,-3.5249,-3.6008,-3.6482,-3.6518,-3.7239,-3.7714,-3.7728,-3.7778,-3.7603,-3.7089,-3.7655,-3.8316,-3.8888,-3.8546,-3.8546,-3.9161,-3.9307,-3.9058,-3.8508,-3.8895,-3.9282,-3.9282,-3.9915,-4.0221,-4.026,-4.0353,-4.0332,-4.0383,-4.0303,-4.0454,-4.0511,-4.0526,-4.0579,-4.0549,-4.0486,-4.0544,-4.0602,-4.0596,-4.0596,-4.0673,-4.0557,-4.048,-4.0486,-4.0505,-4.0635,-4.7071,-4.7174,-4.7292,-4.7345,-4.7314,-4.6814,-4.6524,-4.6424,-4.6573,-4.6672,-4.6781,-4.6887,-4.6586,-4.5974,-4.5993,-4.5592,-4.494,-4.4921,-4.4921,-4.4921,-4.4921,-4.4921,-4.4921,-4.4921,-4.4921,-4.4921,-4.4921,-4.494,-4.4902,-4.4269,-4.3943,-4.3905,-4.3234,-4.2869,-4.2868,0.0,0.0,0.0,-4.012,-4.0062,-3.9929,-3.9929,-3.9528,-3.8727,-3.8688,0.0,-3.7677,-3.7486,-3.741,-3.741,-3.7257,0.0,0.0,0.0,0.0,0.0,0.0,0.0,0.0,0.0,0.0,0.0,-3.6991,-3.6594,-3.5875,-3.6615,-3.7146,-3.7161,-3.7161,-3.7161,-3.7161,-3.7385,-3.7517,-3.7534,-3.7721,-3.7849,-3.7859,-3.7894,-3.7832,-3.7743,-3.8464,-3.9341,-4.0044,-4.0154,-4.0102,-4.0217,-4.0328,-4.027,-4.0097,-4.0115,-4.0223,-4.0242,-4.0427,-4.0558,-4.0558,-4.0569,-4.0564,-4.0559,-4.0559,-4.0612,-4.0673,-4.0673,-4.0668,-4.0668,-4.0681,-4.0681,-4.0681,-4.0674,-4.0667,-4.0629,-4.0692,-4.075,-4.0694,-4.0675,-4.07,-4.8438,0.0,-4.8621,-4.8681,0.0,-4.8857,-4.8881,-4.8756,-4.801,-4.7799,-4.7886,-4.7968,-4.7778,-4.7376,-4.7377,-4.7146,-4.6724,-4.6723,-4.6761,-4.6799,-4.6761,-4.6799,-4.6817,-4.6836,-4.6817,-4.6797,-4.6394,-4.6182,-4.6144,-4.5355,-4.4951,-4.4934,-4.4489,-4.4275,-4.4273,-4.3891,-4.296,-4.1532,-4.1532,-4.134,-4.0958,-4.0939,-4.0537,-3.9733,0.0,0.0,0.0,0.0,0.0,0.0,0.0,0.0,0.0,0.0,0.0,-3.7843,-3.7843,-3.7843,-3.7843,-3.7843,-3.7843,-3.7862,-3.8227,-3.8046,-3.7106,-3.7502,-3.78,-3.7775,-3.7827,-3.7843,-3.7862,-3.8223,-3.8508,-3.8558,-3.8958,-3.9238,-3.923,-3.923,-3.9244,-3.9254,-3.9634,-4.0149,-4.0646,-4.066,-4.0635,-4.0654,-4.0681,-4.0688,-4.0694,-4.064,-4.0593,-4.0607,-4.0621,-4.0635,-4.0654,-4.0648,-4.0655,-4.0688,-4.0688,-4.072,-4.0757,-4.0788,-4.08,-4.0804,-4.0796,-4.0807,-4.0807,-4.0798,-4.0789,-4.077,-4.08,-4.0849,-4.0807,-4.0796,-4.0804,-5.0222,-5.0153,-5.018,-5.0164,-5.0133,-5.0207,-5.0278,-5.0272,0.0,0.0,0.0,-4.8509,-4.8472,-4.8337,-4.8355,-4.8259,-4.8124,-4.8142,-4.816,-4.8214,-4.8214,-4.8251,-4.8304,-4.8304,-4.8304,-4.8265,-4.7571,-4.724,-4.7185,-4.6356,-4.5931,-4.5899,-4.5796,-4.5696,-4.5654,-4.504,-4.4267,-4.344,-4.3115,-4.2635,-4.1982,-4.1963,-4.1637,-4.0927,-4.0718,-4.0658,-4.0641,-3.9832,-3.9372,-3.9353,-3.8719,-3.8385,-3.8362,-3.8362,-3.8411,-3.844,-3.8455,-3.8474,-3.8474,-3.8474,-3.8474,-3.8469,-3.9071,-3.9065,-3.815,-3.8262,-3.8389,-3.8362,-3.8426,-3.8474,-3.846,-3.9037,-3.9475,-3.9557,-4.0193,-4.0593,-4.0635,-4.0635,-4.0571,-4.0629,-4.0571,-4.0668,-4.0777,-4.0733,-4.0726,-4.0739,-4.0788,-4.0823,-4.0804,-4.0757,-4.072,-4.0725,-4.0738,-4.0718,-4.0718,-4.073,-4.0761,-4.0823,-4.0804,-4.0815,-4.0828,-4.0868,-4.0908,-4.0917,-4.0917,-4.0926,-4.0935,-4.0915,-4.0915,-4.0935,-4.0935,-4.0943,-4.0932,-4.0935,-4.0946,-5.1806,-5.119,-5.1256,-5.0893,-5.0278,-5.0344,-5.0435,-5.0523,-5.0251,-5.0176,-5.0237,-5.0257,-4.9894,-4.9315,-4.9317,-4.8931,-4.8287,-4.8272,-4.8289,0.0,-4.8285,-4.8285,-4.8304,-4.8304,-4.8304,-4.8285,-4.8186,-4.8111,-4.8031,-4.7224,-4.6819,-4.6722,-4.6066,-4.5715,-4.5677,-4.56,-4.5468,-4.5282,-4.3875,-4.3104,-4.2988,-4.2988,-4.295,-4.2795,-4.2063,-4.1697,-4.1677,-4.0868,-4.0386,-4.0386,-4.0289,-4.0212,-4.0226,-4.0188,-4.0226,-4.0226,-4.0226,-4.026,-4.0307,-4.0307,-4.032,-4.032,-4.0417,-4.0088,-3.9206,-3.9783,-4.0241,-4.0193,-4.0149,-4.0226,-4.0226,-4.0351,-4.0422,-4.0474,-4.0578,-4.0713,-4.0757,-4.0757,-4.0769,-4.0754,-4.0784,-4.0765,-4.0804,-4.0804,-4.0815,-4.0856,-4.0867,-4.0888,-4.0878,-4.0839,-4.0796,-4.0796,-4.0837,-4.0867,-4.0867,-4.0868,-4.0859,-4.0888,-4.0869,-4.0898,-4.0887,-4.0952,-4.1007,-4.1003,-4.0999,-4.0993,-4.0993,-4.0974,-4.0993,-4.1032,-4.1052,-4.1052,-4.1059,-4.1065,-4.1059,-5.2437,-5.2196,-5.2196,-5.2021,-5.1733,-5.1341,-5.0945,-5.0605,-5.0605,-5.0625,-5.0644,-5.0644,-5.0471,-5.0217,-5.0218,-5.0024,-4.9671,-4.965,-4.9666,-4.9708,-4.9688,-4.974,-4.9769,-4.9788,-4.9803,-4.9799,-4.9335,-4.9122,-4.9045,-4.8232,-4.7806,-4.7748,-4.6936,-4.653,-4.6491,-4.6046,-4.5794,-4.5775,-4.4974,-4.4349,-4.3921,-4.3906,-4.367,-4.3217,-4.2792,-4.2599,-4.2665,-4.2259,-4.1853,-4.139,-4.137,-4.1158,-4.0739,-4.072,-4.07,-4.0706,-4.0706,-4.0725,-4.0757,-4.0757,-4.0943,-4.1412,-4.147,-4.1497,-4.1545,-4.1016,-4.0713,-4.0707,-4.0713,-4.0725,-4.0706,-4.0738,-4.0769,-4.075,-4.0761,-4.0754,-4.0804,-4.0804,-4.0796,-4.0809,-4.0828,-4.0848,-4.0888,-4.0888,-4.0859,-4.0888,-4.0935,-4.098,-4.0991,-4.0949,-4.0924,-4.0926,-4.0926,-4.0945,-4.0945,-4.0935,-4.0952,-4.096,-4.0949,-4.0957,-4.0972,-4.1032,-4.1046,-4.1052,-4.1045,-4.105,-4.105,-4.105,-4.1056,-4.1095,-4.1114,-4.1114,-4.1114,-4.11,-4.11,-5.32,-5.3131,-5.3154,-5.3115,-5.2976,-5.241,-5.1778,-5.1241,-5.1106,-5.1009,-5.1008,-5.0816,-5.0757,-5.0829,-5.0827,-5.0827,-5.0861,-5.0867,-5.0902,-5.0948,-5.0948,-5.0979,-5.1039,-5.102,-5.1053,-5.1042,-5.0403,-5.0092,-4.9976,-4.922,-4.869,-4.8464,-4.7824,-4.7378,-4.7185,-4.6545,-4.6099,-4.5905,-4.58,-4.5452,-4.4853,-4.4815,-4.4481,-4.3871,-4.362,-4.3556,-4.3602,-4.344,-4.3002,-4.2383,-4.2325,-4.2047,-4.1451,-4.1374,-4.1385,-4.1369,-4.1388,-4.1388,-4.1399,-4.141,-4.1701,-4.2333,-4.241,-4.2712,-4.3216,-4.2225,-4.1416,-4.1404,-4.1474,-4.1446,-4.1466,-4.1457,-4.141,-4.141,-4.1227,-4.1179,-4.1159,-4.0955,-4.0849,-4.0849,-4.0898,-4.1053,-4.1421,-4.1369,-4.1338,-4.1587,-4.1551,-4.1617,-4.1604,-4.1493,-4.1325,-4.1286,-4.1155,-4.1038,-4.1038,-4.1038,-4.1025,-4.102,-4.102,-4.1026,-4.1039,-4.107,-4.11,-4.11,-4.1111,-4.11,-4.11,-4.1109,-4.1094,-4.1113,-4.1113,-4.1113,-4.1113,-4.1113,-4.1105,-5.479,-5.4212,-5.4168,-5.3769,-5.3241,-5.3166,-5.3128,-5.2973,-5.2297,-5.1949,-5.1906,-5.1157,-5.0885,-5.0899,-5.0874,-5.0906,-5.099,-5.1048,-5.1081,-5.1087,-5.1087,-5.1087,-5.1087,-5.1067,-5.1081,-5.1101,-5.0984,-5.0887,-5.0848,-5.0073,-4.9278,-4.8593,-4.8419,-4.7999,-4.732,-4.7146,-4.67,-4.5925,-4.5893,-4.5854,-4.5796,-4.5776,-4.5718,-4.5641,-4.4943,-4.4575,-4.4555,-4.3819,-4.3366,-4.3276,-4.3269,-4.323,-4.3133,-4.3133,-4.3133,-4.3114,-4.3114,-4.3164,-4.3139,-4.3218,-4.3219,-4.3364,-4.3384,-4.3451,-4.3644,-4.345,-4.3297,-4.3186,-4.3152,-4.3048,-4.3183,-4.313,-4.3083,-4.2986,-4.2509,-4.2155,-4.2088,-4.1457,-4.0952,-4.0882,-4.1128,-4.1597,-4.2914,-4.2656,-4.2474,-4.2994,-4.3064,-4.3139,-4.3105,-4.2637,-4.2261,-4.2139,-4.1666,-4.1167,-4.1109,-4.11,-4.1075,-4.1075,-4.11,-4.1086,-4.1096,-4.11,-4.1115,-4.1113,-4.1117,-4.1111,-4.1099,-4.1105,-4.1105,-4.1105,-4.1105,-4.1103,-4.1105,-4.1164,-4.1197,-5.5327,-5.5073,-5.5067,-5.466,-5.4033,-5.4053,-5.3802,-5.3393,-5.3063,-5.2942,-5.2953,-5.262,-5.1924,-5.0979,-5.0995,-5.1024,-5.1053,-5.1075,-5.1075,-5.1081,-5.1081,-5.1095,-5.1089,-5.1089,-5.1121,-5.1153,-5.1166,-5.1146,-5.1108,-5.0797,-5.0448,-5.006,-4.9594,-4.9147,-4.8778,-4.8274,-4.7594,-4.676,-4.6721,-4.6519,-4.6064,-4.5941,-4.5917,-4.5922,-4.5631,-4.5456,-4.544,-4.517,-4.4762,-4.4287,-4.422,-4.4016,-4.3549,-4.351,-4.353,-4.353,-4.351,-4.351,-4.352,-4.3529,-4.3771,-4.4208,-4.4275,-4.447,-4.5023,-4.5062,-4.5045,-4.49,-4.4132,-4.353,-4.3549,-4.3568,-4.3558,-4.3519,-4.3244,-4.3066,-4.3062,-4.2743,-4.2439,-4.2137,-4.2344,-4.2883,-4.3785,-4.3571,-4.3323,-4.3607,-4.3714,-4.3797,-4.3693,-4.3361,-4.3205,-4.3049,-4.242,-4.169,-4.1286,-4.1106,-4.1111,-4.1115,-4.1105,-4.1117,-4.1099,-4.1103,-4.1103,-4.1103,-4.1107,-4.111,-4.1112,-4.1113,-4.1113,-4.1113,-4.1113,-4.1113,-4.1113,-4.1503,-4.1777,-5.5593,-5.5679,-5.5682,-5.538,-5.4921,-5.4959,-5.4668,-5.4141,-5.3942,-5.3894,-5.3921,-5.3737,-5.2923,-5.1881,-5.1784,-5.1818,-5.1812,-5.1819,-5.18,-5.1767,-5.1573,-5.147,-5.145,-5.1217,-5.1163,-5.1186,-5.1206,-5.1206,-5.1206,-5.1206,-5.1206,-5.1109,-5.0564,-5.0148,-4.9876,-4.9262,-4.8563,-4.7766,-4.7669,-4.7388,-4.6892,-4.6715,-4.648,-4.6083,-4.6035,-4.6046,-4.6017,-4.6076,-4.5813,-4.5191,-4.517,-4.4887,-4.4323,-4.4264,-4.4284,-4.4284,-4.4284,-4.4284,-4.4284,-4.4284,-4.4545,-4.509,-4.5176,-4.5437,-4.5971,-4.6127,-4.6135,-4.6018,-4.5005,-4.4355,-4.4292,-4.43,-4.4308,-4.4308,-4.4141,-4.3961,-4.3955,-4.3799,-4.3494,-4.3337,-4.3368,-4.3885,-4.4445,-4.4504,-4.4508,-4.4532,-4.4497,-4.4419,-4.4354,-4.4259,-4.4064,-4.3991,-4.321,-4.2307,-4.1581,-4.1218,-4.116,-4.1104,-4.1116,-4.1107,-4.1113,-4.1113,-4.1112,-4.1112,-4.1112,-4.1111,-4.1111,-4.1107,-4.1103,-4.1103,-4.1103,-4.1221,-4.1533,-4.2021,-4.241,-5.5745,-5.5807,-5.5866,-5.5865,-5.5923,-5.5902,-5.5917,-5.5752,-5.5091,-5.4793,-5.4745,-5.4128,-5.3676,-5.3598,-5.3598,-5.3579,-5.3521,-5.3462,-5.3436,-5.3358,-5.2698,-5.238,-5.2383,-5.1597,-5.1258,-5.1434,-5.1356,-5.1278,-5.122,-5.1201,-5.1211,-5.1181,-5.1103,-5.0744,-5.016,-4.9985,-4.9498,-4.8739,-4.8623,-4.8584,-4.8506,-4.8506,-4.7708,-4.6405,-4.6113,-4.6143,-4.6113,-4.6093,-4.6054,-4.6035,-4.5985,-4.5966,-4.5946,-4.5927,-4.5888,-4.5907,-4.5927,-4.5946,-4.5869,-4.5849,-4.5935,-4.6068,-4.6013,-4.6125,-4.6177,-4.6189,-4.6195,-4.6181,-4.602,-4.5871,-4.5831,-4.5721,-4.5852,-4.5845,-4.5279,-4.4913,-4.4835,-4.4309,-4.4036,-4.4256,-4.4157,-4.4325,-4.4953,-4.569,-4.5907,-4.5987,-4.6087,-4.6028,-4.5813,-4.5364,-4.5016,-4.4687,-4.3887,-4.2753,-4.2379,-4.1597,-4.1151,-4.1113,-4.1113,-4.1113,-4.1108,-4.1101,-4.1116,-4.1114,-4.1114,-4.1114,-4.1111,-4.1111,-4.1111,-4.1111,-4.1111,-4.1283,-4.1967,-4.224,-4.2747,-5.5865,-5.5866,-5.5923,-5.598,-5.5999,-5.6016,-5.6031,-5.6059,-5.582,-5.5714,-5.57,-5.5469,-5.5385,-5.5366,-5.5372,-5.4737,-5.3773,-5.372,-5.3763,-5.3744,-5.3444,-5.331,-5.3272,-5.299,-5.2854,-5.2787,-5.2281,-5.1736,-5.1249,-5.1211,-5.1201,-5.121,-5.1201,-5.1045,-5.0811,-5.0773,-5.0354,-4.9624,-4.9527,-4.9274,-4.8805,-4.8705,-4.8382,-4.7844,-4.7248,-4.6677,-4.6132,-4.6149,-4.6177,-4.6158,-4.6181,-4.6157,-4.6176,-4.617,-4.6157,-4.6151,-4.6157,-4.6157,-4.6177,-4.617,-4.6177,-4.6203,-4.6209,-4.6209,-4.6201,-4.6206,-4.6206,-4.6201,-4.6195,-4.6209,-4.6228,-4.6209,-4.6209,-4.615,-4.5922,-4.5718,-4.5757,-4.5543,-4.546,-4.5578,-4.5453,-4.5531,-4.5701,-4.6111,-4.6282,-4.6307,-4.6303,-4.6306,-4.6268,-4.5976,-4.578,-4.5622,-4.4817,-4.4008,-4.41,-4.2261,-4.1129,-4.1116,-4.1127,-4.1182,-4.1191,-4.1308,-4.1363,-4.1484,-4.1386,-4.1328,-4.1386,-4.1152,-4.1152,-4.1113,-4.1113,-4.1698,-4.2455,-4.285,-4.3489,-5.658,-5.6348,-5.6385,-5.6249,-5.5998,-5.6012,-5.6062,-5.6133,-5.618,-5.6223,-5.6232,-5.6272,-5.6304,-5.6317,-5.6321,-5.575,-5.4638,-5.4641,-5.4641,-5.4602,-5.4371,-5.4217,-5.4159,-5.3925,-5.3818,-5.3682,-5.2952,-5.2193,-5.1676,-5.1364,-5.1239,-5.1258,-5.1267,-5.1256,-5.1265,-5.1256,-5.0945,-5.0525,-5.0447,-5.0143,-4.9625,-4.9581,-4.9452,-4.9166,-4.8592,-4.7856,-4.6999,-4.6734,-4.6624,-4.6585,-4.6372,-4.6215,-4.6215,-4.6201,-4.6206,-4.6206,-4.6206,-4.6206,-4.6201,-4.6201,-4.6201,-4.6206,-4.6226,-4.6245,-4.6245,-4.6236,-4.6236,-4.6231,-4.6221,-4.6245,-4.6277,-4.6261,-4.6234,-4.6236,-4.6236,-4.6245,-4.6288,-4.6277,-4.6254,-4.6228,-4.619,-4.6248,-4.6303,-4.6282,-4.6289,-4.6293,-4.6306,-4.6306,-4.6295,-4.6293,-4.629,-4.6251,-4.5652,-4.5074,-4.4933,-4.3759,-4.2653,-4.2494,-4.2061,-4.1871,-4.1744,-4.1783,-4.1802,-4.1852,-4.1813,-4.1735,-4.1559,-4.1306,-4.1169,-4.113,-4.1505,-4.2041,-4.2798,-4.3534,-4.4236,-5.795,-5.7273,-5.729,-5.6902,-5.6302,-5.6239,-5.6191,-5.6296,-5.6223,-5.6232,-5.6272,-5.6309,-5.6302,-5.6314,-5.6375,-5.6328,-5.6172,-5.6105,-5.6124,-5.6075,-5.5443,-5.5122,-5.5073,-5.4431,-5.405,-5.4009,-5.3112,-5.2692,-5.257,-5.1849,-5.1466,-5.1453,-5.1421,-5.1382,-5.1395,-5.1362,-5.1369,-5.1271,-5.1245,-5.1271,-5.1375,-5.1174,-5.0803,-5.0204,-5.0029,-4.9619,-4.882,-4.7975,-4.7521,-4.7418,-4.6786,-4.6265,-4.6323,-4.625,-4.6211,-4.6211,-4.6211,-4.6201,-4.6195,-4.622,-4.6211,-4.6216,-4.627,-4.6294,-4.6284,-4.6296,-4.6303,-4.6306,-4.6295,-4.6303,-4.6289,-4.6289,-4.6306,-4.629,-4.6295,-4.6301,-4.6303,-4.6288,-4.6289,-4.6305,-4.6303,-4.6301,-4.6301,-4.6305,-4.6301,-4.6297,-4.6306,-4.6296,-4.63,-4.6288,-4.6294,-4.6294,-4.6075,-4.5733,-4.5596,-4.5406,-4.4757,-4.4142,-4.3563,-4.3173,-4.3005,-4.2961,-4.2877,-4.2883,-4.2604,-4.2506,-4.2356,-4.205,-4.1407,-4.1393,-4.1886,-4.2612,-4.3621,-4.446,-4.4967,-5.8411,-5.8179,-5.8197,-5.808,-5.7785,-5.7243,-5.7021,-5.7,-5.649,-5.6259,-5.629,-5.6302,-5.6333,-5.6356,-5.6407,-5.6398,-5.6398,-5.6426,-5.6446,-5.6349,-5.6144,-5.6026,-5.5985,-5.5751,-5.5338,-5.4846,-5.4541,-5.4053,-5.3416,-5.2656,-5.2266,-5.2194,-5.1687,-5.1405,-5.1396,-5.1386,-5.1394,-5.1394,-5.1388,-5.1401,-5.1382,-5.1388,-5.1238,-5.1024,-5.1001,-5.084,-5.0542,-4.9196,-4.8443,-4.8391,-4.8142,-4.7762,-4.7205,-4.6585,-4.6292,-4.6273,-4.6273,-4.6273,-4.6269,-4.6261,-4.6267,-4.627,-4.629,-4.6295,-4.6301,-4.6305,-4.6306,-4.6306,-4.6288,-4.6289,-4.6306,-4.63,-4.6305,-4.6287,-4.6289,-4.6288,-4.6288,-4.6303,-4.6295,-4.629,-4.629,-4.629,-4.629,-4.629,-4.6306,-4.63,-4.6288,-4.6303,-4.626,-4.625,-4.6226,-4.6226,-4.6195,-4.6157,-4.5962,-4.582,-4.5494,-4.4968,-4.4507,-4.4202,-4.4098,-4.4033,-4.3948,-4.3824,-4.3552,-4.3318,-4.315,-4.2767,-4.2163,-4.1916,-4.2403,-4.3442,-4.4715,-4.5339,-4.5631,-5.9357,-5.9103,-5.9084,-5.8927,-5.8668,-5.8086,-5.794,-5.7868,-5.708,-5.6751,-5.6749,-5.6442,-5.6347,-5.6407,-5.6446,-5.6435,-5.6435,-5.6488,-5.6469,-5.6453,-5.648,-5.6496,-5.6484,-5.6484,-5.6257,-5.5724,-5.5354,-5.4931,-5.4371,-5.359,-5.3005,-5.262,-5.2133,-5.1708,-5.1429,-5.1401,-5.1391,-5.1391,-5.1386,-5.1386,-5.1396,-5.1401,-5.1386,-5.1386,-5.1398,-5.1402,-5.1316,-5.0317,-4.961,-4.9293,-4.9029,-4.8574,-4.8074,-4.7569,-4.7137,-4.6844,-4.6766,-4.6668,-4.6376,-4.6284,-4.6287,-4.6288,-4.6289,-4.6289,-4.6306,-4.6305,-4.6305,-4.6305,-4.6301,-4.6297,-4.629,-4.6277,-4.628,-4.6278,-4.6297,-4.6295,-4.6293,-4.6303,-4.6296,-4.6292,-4.6273,-4.6269,-4.6269,-4.6269,-4.6264,-4.6275,-4.627,-4.627,-4.6201,-4.6215,-4.6189,-4.6183,-4.6144,-4.6123,-4.6135,-4.6107,-4.6099,-4.571,-4.5262,-4.5095,-4.4959,-4.4951,-4.4904,-4.4931,-4.4748,-4.4425,-4.4219,-4.3763,-4.3257,-4.3226,-4.3187,-4.4226,-4.5305,-4.5531,-4.5784,-6.0652,-6.0009,-5.999,-5.9598,-5.899,-5.8901,-5.8857,-5.875,-5.8007,-5.7663,-5.7531,-5.6913,-5.6573,-5.6524,-5.6539,-5.6476,-5.6496,-5.6498,-5.6485,-5.6498,-5.6524,-5.6504,-5.6485,-5.6504,-5.6452,-5.6296,-5.5711,-5.5346,-5.524,-5.4465,-5.3669,-5.3108,-5.2878,-5.2394,-5.189,-5.1574,-5.157,-5.159,-5.1472,-5.1402,-5.1394,-5.1398,-5.14,-5.14,-5.1402,-5.1398,-5.1355,-5.1188,-5.0877,-5.0198,-4.947,-4.9043,-4.8965,-4.8945,-4.8359,-4.7715,-4.7676,-4.7285,-4.6699,-4.6738,-4.66,-4.6516,-4.6495,-4.6334,-4.6323,-4.628,-4.628,-4.628,-4.6269,-4.6275,-4.6275,-4.625,-4.6206,-4.6211,-4.6249,-4.6277,-4.6296,-4.6284,-4.6279,-4.6279,-4.6236,-4.6206,-4.6211,-4.6206,-4.6206,-4.6201,-4.6195,-4.6189,-4.6177,-4.6157,-4.6142,-4.6127,-4.6091,-4.6093,-4.6095,-4.6047,-4.6027,-4.5911,-4.5629,-4.5589,-4.5559,-4.5579,-4.5609,-4.5676,-4.5637,-4.5393,-4.5159,-4.4712,-4.4381,-4.4234,-4.4545,-4.5226,-4.5557,-4.576,-4.5877,-6.1057,-6.0861,-6.0915,-6.0809,-6.053,-6.0032,-5.9788,-5.9717,-5.8912,-5.8585,-5.8431,-5.7731,-5.7399,-5.7377,-5.6776,-5.6498,-5.6537,-5.6491,-5.6484,-5.6523,-5.6572,-5.6548,-5.6528,-5.6553,-5.6577,-5.6519,-5.6304,-5.6226,-5.6172,-5.5352,-5.4806,-5.4596,-5.3907,-5.3546,-5.3278,-5.2629,-5.237,-5.225,-5.1695,-5.1437,-5.1428,-5.1403,-5.1386,-5.1396,-5.1396,-5.1402,-5.1386,-5.1398,-5.1338,-5.1034,-5.0246,-4.9793,-4.9721,-4.9305,-4.8889,-4.8636,-4.8538,-4.846,-4.8226,-4.8128,-4.7868,-4.7264,-4.719,-4.6908,-4.6265,-4.6226,-4.6231,-4.6216,-4.6231,-4.6226,-4.6226,-4.622,-4.6201,-4.6215,-4.6206,-4.6216,-4.6236,-4.6236,-4.6231,-4.6211,-4.6206,-4.6201,-4.6189,-4.6189,-4.6177,-4.6144,-4.613,-4.6123,-4.6127,-4.6111,-4.6084,-4.6095,-4.6066,-4.6046,-4.6005,-4.5964,-4.5933,-4.5933,-4.5847,-4.5861,-4.5832,-4.5872,-4.5911,-4.5959,-4.5872,-4.5658,-4.5774,-4.5638,-4.5433,-4.5064,-4.5404,-4.5793,-4.584,-4.5957,-4.5996,-6.1245,-6.1242,-6.1275,-6.1322,-6.1269,-6.0831,-6.0663,-6.0565,-5.9861,-5.9493,-5.9328,-5.8635,-5.8281,-5.8246,-5.7441,-5.7063,-5.7004,-5.6684,-5.6533,-5.6538,-5.6582,-5.6582,-5.6558,-5.6582,-5.661,-5.6618,-5.6618,-5.6598,-5.6501,-5.6052,-5.5677,-5.522,-5.4802,-5.4386,-5.3886,-5.3553,-5.3242,-5.3086,-5.2422,-5.1952,-5.193,-5.1582,-5.1403,-5.1389,-5.1402,-5.1402,-5.1389,-5.1402,-5.1402,-5.1288,-5.0914,-5.0637,-5.0608,-5.0223,-4.9801,-4.9473,-4.9391,-4.9274,-4.8918,-4.8864,-4.8601,-4.8162,-4.8039,-4.7805,-4.7351,-4.6995,-4.6747,-4.6791,-4.6449,-4.6248,-4.6203,-4.6177,-4.6144,-4.615,-4.6144,-4.6177,-4.6209,-4.6183,-4.6157,-4.6157,-4.617,-4.6164,-4.6169,-4.6169,-4.6135,-4.6111,-4.6122,-4.6084,-4.6056,-4.6056,-4.6035,-4.6025,-4.5994,-4.5972,-4.596,-4.5929,-4.5898,-4.5886,-4.5886,-4.5929,-4.5953,-4.5975,-4.5975,-4.5975,-4.5975,-4.6005,-4.6026,-4.6056,-4.5891,-4.5736,-4.6037,-4.6056,-4.6037,-4.5998,-4.6037,-6.131,-6.1302,-6.1318,-6.1361,-6.1396,-6.1389,-6.1343,-6.132,-6.0719,-6.0439,-6.0252,-5.9529,-5.9201,-5.9176,-5.8318,-5.7938,-5.7899,-5.7187,-5.6738,-5.6641,-5.6606,-5.6602,-5.6602,-5.6606,-5.6614,-5.6605,-5.661,-5.6614,-5.6575,-5.6536,-5.6178,-5.5703,-5.5485,-5.507,-5.4629,-5.4257,-5.4134,-5.3966,-5.3279,-5.2722,-5.2494,-5.1984,-5.1628,-5.1391,-5.1398,-5.139,-5.1394,-5.139,-5.139,-5.139,-5.139,-5.1312,-5.1332,-5.1338,-5.1001,-5.0416,-5.0215,-4.9937,-4.9327,-4.9352,-4.9087,-4.897,-4.8905,-4.8827,-4.8509,-4.7957,-4.7626,-4.7606,-4.6911,-4.6676,-4.6376,-4.6236,-4.6102,-4.6093,-4.6084,-4.613,-4.6146,-4.6127,-4.6107,-4.6099,-4.6102,-4.6093,-4.6084,-4.6084,-4.6075,-4.6047,-4.6037,-4.6026,-4.5994,-4.5983,-4.596,-4.5937,-4.5905,-4.5873,-4.5873,-4.5873,-4.5861,-4.588,-4.5861,-4.5873,-4.5893,-4.5917,-4.5917,-4.5929,-4.5941,-4.5953,-4.5972,-4.5994,-4.6005,-4.6005,-4.6005,-4.6003,-4.5991,-4.5944,-4.5964,-6.1337,-6.1366,-6.1375,-6.1415,-6.1472,-6.1476,-6.1479,-6.1459,-6.1374,-6.1246,-6.1108,-6.0449,-6.0139,-6.0093,-5.9251,-5.8827,-5.8709,-5.7933,-5.725,-5.6626,-5.6606,-5.6606,-5.6606,-5.6606,-5.661,-5.6602,-5.6618,-5.6621,-5.6621,-5.6601,-5.6523,-5.6346,-5.619,-5.621,-5.5924,-5.5277,-5.5023,-5.4864,-5.4154,-5.3405,-5.2924,-5.2593,-5.2104,-5.1558,-5.141,-5.1401,-5.1401,-5.1391,-5.1386,-5.1386,-5.1391,-5.1391,-5.1386,-5.138,-5.1263,-5.1121,-5.1063,-5.0985,-5.0848,-5.0647,-5.0485,-4.9815,-4.971,-4.9469,-4.8766,-4.8639,-4.8455,-4.8416,-4.8252,-4.7708,-4.7126,-4.6464,-4.6241,-4.6201,-4.6113,-4.6044,-4.6005,-4.6047,-4.6085,-4.6085,-4.6056,-4.6007,-4.6016,-4.6025,-4.6014,-4.5972,-4.5941,-4.5929,-4.5917,-4.5912,-4.5887,-4.586,-4.5847,-4.5814,-4.5827,-4.5827,-4.5827,-4.5827,-4.5808,-4.5808,-4.5841,-4.5854,-4.5867,-4.5893,-4.5898,-4.5917,-4.5937,-4.5929,-4.5941,-4.596,-4.5949,-4.5937,-4.5925,-4.5905,-4.5861,-6.1361,-6.1408,-6.1447,-6.1472,-6.1487,-6.1509,-6.15,-6.1529,-6.1578,-6.1576,-6.1522,-6.1134,-6.101,-6.0929,-6.0134,-5.971,-5.9514,-5.8812,-5.7972,-5.7387,-5.7211,-5.6996,-5.6634,-5.6605,-5.6612,-5.6632,-5.662,-5.6621,-5.6621,-5.6621,-5.66,-5.6614,-5.6614,-5.6534,-5.6598,-5.6122,-5.5946,-5.5759,-5.5068,-5.4337,-5.3947,-5.3474,-5.2865,-5.2021,-5.1625,-5.1386,-5.1386,-5.14,-5.1369,-5.1356,-5.1356,-5.1369,-5.1388,-5.1349,-5.1343,-5.1362,-5.1349,-5.1342,-5.1335,-5.1308,-5.1039,-5.0605,-5.0547,-5.0324,-4.9849,-4.9547,-4.9265,-4.9158,-4.8856,-4.8338,-4.7897,-4.7586,-4.7098,-4.662,-4.655,-4.6402,-4.6041,-4.5972,-4.6005,-4.6005,-4.5964,-4.5953,-4.5941,-4.5937,-4.5912,-4.588,-4.586,-4.586,-4.58,-4.5805,-4.5805,-4.5776,-4.5761,-4.5746,-4.5761,-4.5742,-4.5742,-4.5742,-4.5757,-4.5757,-4.5757,-4.5786,-4.5814,-4.5841,-4.5867,-4.5899,-4.5912,-4.5893,-4.5873,-4.5905,-4.5893,-4.588,-4.5854,-4.5808,-4.578,-6.1408,-6.1408,-6.1484,-6.1487,-6.1539,-6.1519,-6.1549,-6.1588,-6.1595,-6.1592,-6.1595,-6.1673,-6.1568,-6.1501,-6.0939,-6.0568,-6.0178,-5.9699,-5.8879,-5.8187,-5.8105,-5.7793,-5.7369,-5.7262,-5.7246,-5.6992,-5.6718,-5.6621,-5.6621,-5.662,-5.6614,-5.6614,-5.6606,-5.6614,-5.6602,-5.6595,-5.6489,-5.6313,-5.5821,-5.527,-5.5006,-5.4415,-5.3727,-5.2877,-5.209,-5.1713,-5.1629,-5.1486,-5.1323,-5.1273,-5.1292,-5.1328,-5.1342,-5.133,-5.1296,-5.1277,-5.1284,-5.1276,-5.1267,-5.1249,-5.1191,-5.1201,-5.1152,-5.1152,-5.0917,-5.0467,-5.0165,-4.9784,-4.9411,-4.8787,-4.8684,-4.8321,-4.7992,-4.7552,-4.7359,-4.6939,-4.6319,-4.608,-4.6119,-4.5899,-4.5867,-4.5854,-4.5854,-4.5841,-4.5814,-4.5805,-4.5795,-4.5823,-4.5812,-4.5931,-4.6063,-4.6333,-4.6491,-4.6336,-4.6278,-4.5827,-4.5793,-4.5793,-4.5793,-4.5735,-4.5735,-4.5727,-4.5757,-4.5786,-4.58,-4.5847,-4.5847,-4.5827,-4.5841,-4.5848,-4.5822,-4.58,-4.5757,-4.5727,-4.5712,-6.1433,-6.1498,-6.1498,-6.1539,-6.1578,-6.1578,-6.1588,-6.1588,-6.1595,-6.158,-6.1615,-6.1673,-6.171,-6.1637,-6.1622,-6.1115,-6.0573,-6.023,-5.9765,-5.9101,-5.8975,-5.8748,-5.8554,-5.8437,-5.8569,-5.8345,-5.7552,-5.6832,-5.6705,-5.6614,-5.6602,-5.6605,-5.6595,-5.6591,-5.661,-5.6606,-5.6577,-5.6528,-5.6274,-5.5918,-5.5379,-5.4977,-5.4521,-5.3662,-5.2855,-5.243,-5.218,-5.1657,-5.123,-5.1201,-5.1201,-5.1249,-5.1249,-5.123,-5.123,-5.123,-5.122,-5.1211,-5.1201,-5.121,-5.1159,-5.1136,-5.1125,-5.1127,-5.1076,-5.0972,-5.0739,-5.0571,-5.006,-4.9495,-4.947,-4.901,-4.8423,-4.8141,-4.8044,-4.7754,-4.7098,-4.6789,-4.6553,-4.6158,-4.595,-4.5742,-4.5757,-4.5815,-4.5896,-4.5978,-4.6044,-4.6143,-4.6262,-4.6513,-4.6822,-4.7149,-4.748,-4.7193,-4.6906,-4.6282,-4.5912,-4.5935,-4.5896,-4.58,-4.5777,-4.57,-4.5712,-4.5696,-4.5712,-4.5742,-4.5742,-4.5761,-4.5757,-4.5752,-4.5742,-4.5712,-4.568,-4.5665,-4.5665,-6.1468,-6.1489,-6.1549,-6.1578,-6.1588,-6.1588,-6.1588,-6.1597,-6.1584,-6.1588,-6.1621,-6.1679,-6.171,-6.1715,-6.1701,-6.1427,-6.1159,-6.1065,-6.0607,-5.9973,-5.9804,-5.9548,-5.9307,-5.9249,-5.9168,-5.8925,-5.8248,-5.7606,-5.7226,-5.6786,-5.6692,-5.6595,-5.6563,-5.6533,-5.6553,-5.6548,-5.6523,-5.6491,-5.6465,-5.6296,-5.5775,-5.5447,-5.4877,-5.4459,-5.374,-5.3263,-5.3118,-5.2864,-5.2299,-5.1947,-5.183,-5.1556,-5.1311,-5.1144,-5.1186,-5.1169,-5.1169,-5.1159,-5.1147,-5.1152,-5.1127,-5.1095,-5.1089,-5.1075,-5.1034,-5.1,-5.099,-5.0848,-5.0716,-5.0259,-5.0262,-4.9765,-4.9421,-4.8998,-4.8904,-4.8519,-4.7904,-4.7692,-4.7191,-4.6571,-4.6143,-4.5908,-4.5696,-4.5777,-4.5954,-4.6075,-4.6287,-4.6499,-4.6731,-4.7157,-4.7617,-4.785,-4.816,-4.8006,-4.7661,-4.712,-4.648,-4.6364,-4.6116,-4.602,-4.5808,-4.5731,-4.5637,-4.5582,-4.5599,-4.5648,-4.568,-4.5731,-4.5696,-4.5665,-4.5648,-4.5616,-4.5599,-4.5599,-4.5582,-6.15,-6.1519,-6.1578,-6.1588,-6.1588,-6.1588,-6.1588,-6.1586,-6.158,-6.1595,-6.1609,-6.1666,-6.1701,-6.1701,-6.1701,-6.1681,-6.1705,-6.1666,-6.1235,-6.082,-6.0663,-6.0281,-5.9894,-5.971,-5.9831,-5.9917,-5.9382,-5.8933,-5.8101,-5.7332,-5.6933,-5.6831,-5.6704,-5.6478,-5.6497,-5.6504,-5.6498,-5.6484,-5.6469,-5.6453,-5.6212,-5.5755,-5.5344,-5.5266,-5.4497,-5.4039,-5.3996,-5.3647,-5.3234,-5.2725,-5.2401,-5.2059,-5.1444,-5.1197,-5.1108,-5.1113,-5.1113,-5.1088,-5.1102,-5.1062,-5.1034,-5.1015,-5.102,-5.099,-5.0956,-5.0909,-5.0858,-5.081,-5.0754,-5.0696,-5.0657,-5.0717,-5.0391,-4.9986,-4.9697,-4.9448,-4.8775,-4.8333,-4.793,-4.7293,-4.6576,-4.6326,-4.6384,-4.621,-4.6446,-4.6928,-4.7122,-4.7237,-4.7507,-4.8046,-4.8432,-4.8605,-4.8759,-4.872,-4.8452,-4.8125,-4.7509,-4.7124,-4.6722,-4.6396,-4.6068,-4.5741,-4.5685,-4.5628,-4.553,-4.5582,-4.5616,-4.5651,-4.5599,-4.5565,-4.5566,-4.5549,-4.5512,-4.5494,-4.5494,-6.1529,-6.1588,-6.1588,-6.1588,-6.1588,-6.1588,-6.1578,-6.1584,-6.1588,-6.1621,-6.1673,-6.1691,-6.1701,-6.1701,-6.1701,-6.1709,-6.1717,-6.1697,-6.1612,-6.1386,-6.1394,-6.1338,-6.133,-6.1408,-6.111,-6.0963,-6.0495,-5.9797,-5.9041,-5.8173,-5.7679,-5.7562,-5.6965,-5.6524,-5.6654,-5.6535,-5.6469,-5.6433,-5.6426,-5.6407,-5.6358,-5.623,-5.6139,-5.587,-5.534,-5.4841,-5.4724,-5.4316,-5.3726,-5.3494,-5.2743,-5.2336,-5.205,-5.143,-5.1097,-5.102,-5.1034,-5.1095,-5.1087,-5.099,-5.0941,-5.0925,-5.0893,-5.0844,-5.0827,-5.0827,-5.081,-5.0791,-5.0738,-5.072,-5.072,-5.0721,-5.0625,-5.0548,-5.0356,-5.0009,-4.9471,-4.9221,-4.8817,-4.8337,-4.772,-4.7508,-4.745,-4.7181,-4.7009,-4.7548,-4.7971,-4.8086,-4.8355,-4.8914,-4.9298,-4.949,-4.9452,-4.9394,-4.9356,-4.899,-4.8491,-4.7972,-4.7511,-4.6992,-4.6647,-4.6359,-4.5841,-4.5784,-4.5687,-4.5687,-4.584,-4.5802,-4.5553,-4.5457,-4.5476,-4.5457,-4.5419,-4.54,-4.54,-6.1578,-6.1588,-6.1588,-6.1588,-6.1588,-6.1588,-6.1578,-6.1584,-6.1588,-6.1628,-6.1699,-6.1715,-6.1701,-6.1701,-6.1701,-6.1705,-6.1717,-6.1707,-6.1699,-6.1711,-6.1709,-6.1701,-6.1657,-6.171,-6.1705,-6.1588,-6.1322,-6.1004,-6.0171,-5.9248,-5.852,-5.8403,-5.768,-5.7229,-5.7112,-5.6689,-5.6475,-5.6398,-5.6367,-5.6302,-5.6297,-5.6272,-5.6265,-5.6238,-5.5855,-5.5666,-5.5482,-5.5365,-5.4769,-5.4425,-5.3824,-5.3445,-5.3027,-5.2546,-5.2224,-5.1614,-5.165,-5.1435,-5.1025,-5.0916,-5.0861,-5.0844,-5.081,-5.0793,-5.0757,-5.0758,-5.074,-5.074,-5.0721,-5.0683,-5.0702,-5.0683,-5.0702,-5.0683,-5.0663,-5.0529,-5.0183,-5.0144,-4.9836,-4.9355,-4.8933,-4.8721,-4.8472,-4.8126,-4.8068,-4.851,-4.8914,-4.9087,-4.9413,-4.9894,-5.0201,-5.0393,-5.0257,-5.0102,-5.0083,-4.989,-4.9372,-4.8891,-4.8622,-4.8103,-4.7586,-4.7164,-4.6626,-4.6395,-4.6472,-4.6415,-4.6221,-4.5802,-4.5458,-4.5419,-4.5419,-4.538,-4.54,-4.5417,-4.5416,-6.1588,-6.1588,-6.1588,-6.1588,-6.1588,-6.1588,-6.1586,-6.1592,-6.1588,-6.1628,-6.1685,-6.1715,-6.1701,-6.1701,-6.1701,-6.1701,-6.1705,-6.1698,-6.1709,-6.1709,-6.1701,-6.1715,-6.171,-6.1718,-6.1693,-6.1673,-6.1568,-6.1444,-6.1105,-6.0442,-5.9693,-5.9377,-5.8451,-5.8062,-5.7839,-5.7497,-5.7153,-5.6761,-5.644,-5.6284,-5.6223,-5.6228,-5.6199,-5.6184,-5.6184,-5.6184,-5.6168,-5.6091,-5.5649,-5.5285,-5.473,-5.4252,-5.3776,-5.3333,-5.2951,-5.249,-5.2432,-5.2202,-5.1604,-5.1218,-5.0871,-5.0775,-5.0757,-5.0758,-5.0702,-5.0683,-5.0683,-5.0702,-5.0683,-5.0663,-5.0682,-5.0663,-5.0643,-5.0623,-5.0643,-5.0643,-5.0624,-5.0449,-5.0352,-5.0045,-4.9736,-4.9813,-4.9506,-4.9124,-4.9144,-4.9548,-4.9817,-4.999,-5.0239,-5.0526,-5.0565,-5.0602,-5.0523,-5.0349,-5.0368,-5.027,-4.9904,-4.9671,-4.9382,-4.9015,-4.8381,-4.7881,-4.7401,-4.7286,-4.7267,-4.692,-4.6609,-4.5969,-4.538,-4.5361,-4.536,-4.5379,-4.5378,-4.5451,-4.564,-6.1588,-6.1588,-6.1588,-6.1588,-6.1588,-6.1588,-6.1576,-6.1588,-6.1595,-6.1634,-6.1696,-6.1701,-6.1701,-6.1701,-6.1701,-6.1705,-6.1709,-6.1713,-6.1713,-6.1701,-6.1715,-6.171,-6.1699,-6.1693,-6.1667,-6.1607,-6.1603,-6.1578,-6.1549,-6.1266,-6.0701,-6.0195,-5.9279,-5.8927,-5.871,-5.8453,-5.7858,-5.7308,-5.6728,-5.6311,-5.6218,-5.6184,-5.6168,-5.6133,-5.6098,-5.6082,-5.6048,-5.6048,-5.599,-5.5739,-5.5241,-5.4896,-5.4552,-5.4033,-5.3629,-5.3321,-5.3205,-5.3013,-5.257,-5.1703,-5.0913,-5.0778,-5.0702,-5.0702,-5.0664,-5.0683,-5.0683,-5.0663,-5.0623,-5.0603,-5.0603,-5.0562,-5.0542,-5.0542,-5.0582,-5.0582,-5.0563,-5.0521,-5.0442,-5.0481,-5.0423,-5.0268,-5.0208,-4.9752,-4.9679,-5.0026,-5.0102,-5.0275,-5.0293,-5.0502,-5.0464,-5.0462,-5.05,-5.0442,-5.0383,-5.0227,-5.0065,-4.9885,-4.9629,-4.9334,-4.8924,-4.8505,-4.8281,-4.801,-4.7938,-4.7448,-4.7048,-4.6682,-4.6254,-4.5585,-4.5394,-4.5736,-4.6025,-4.6233,-4.6366,-6.1588,-6.1588,-6.1588,-6.1588,-6.1588,-6.1586,-6.1592,-6.1595,-6.1648,-6.166,-6.1701,-6.1701,-6.1701,-6.1701,-6.1705,-6.1709,-6.1717,-6.1701,-6.1701,-6.1715,-6.171,-6.1699,-6.1693,-6.1654,-6.1612,-6.1595,-6.1559,-6.1548,-6.1537,-6.1472,-6.1355,-6.0772,-6.0079,-5.9826,-5.9607,-5.9141,-5.8387,-5.7703,-5.7114,-5.6734,-5.6172,-5.6098,-5.6046,-5.6046,-5.6029,-5.6029,-5.6012,-5.6012,-5.6012,-5.5917,-5.5631,-5.5459,-5.5345,-5.4882,-5.4477,-5.4109,-5.4051,-5.38,-5.3356,-5.2588,-5.2049,-5.1356,-5.099,-5.0701,-5.0815,-5.0661,-5.0603,-5.0563,-5.06,-5.0657,-5.054,-5.054,-5.0521,-5.05,-5.05,-5.05,-5.0478,-5.0457,-5.0457,-5.0457,-5.0412,-5.031,-5.0313,-5.0256,-5.0323,-5.0442,-5.0481,-5.05,-5.0478,-5.0457,-5.0396,-5.0377,-5.0393,-5.0371,-5.031,-5.0283,-5.0255,-5.0054,-4.9853,-4.9638,-4.9417,-4.9613,-4.9371,-4.9023,-4.8713,-4.8485,-4.8167,-4.7719,-4.7156,-4.6454,-4.6339,-4.659,-4.68,-4.6975,-4.7166,-6.2192,-6.1997,-6.1997,-6.1822,-6.1607,-6.1595,-6.1592,-6.1615,-6.1673,-6.1705,-6.1701,-6.1701,-6.1709,-6.1717,-6.1701,-6.1698,-6.1701,-6.1715,-6.171,-6.1705,-6.1693,-6.1687,-6.1654,-6.1631,-6.1606,-6.1578,-6.1518,-6.1484,-6.1472,-6.1415,-6.1363,-6.1188,-6.0877,-6.0611,-6.0293,-5.9595,-5.8793,-5.8261,-5.7492,-5.7185,-5.6491,-5.6164,-5.6012,-5.5993,-5.5993,-5.5993,-5.6012,-5.6012,-5.6012,-5.5995,-5.5902,-5.5923,-5.5866,-5.5749,-5.5418,-5.5089,-5.478,-5.4511,-5.4068,-5.3317,-5.2951,-5.2277,-5.1813,-5.1504,-5.1291,-5.1231,-5.1442,-5.0941,-5.0922,-5.0785,-5.0651,-5.0457,-5.0416,-5.0393,-5.0412,-5.0412,-5.0412,-5.0371,-5.039,-5.0409,-5.0344,-5.0325,-5.0325,-5.0306,-5.0329,-5.0393,-5.0393,-5.0393,-5.0393,-5.0371,-5.0348,-5.0325,-5.0302,-5.0236,-5.0188,-5.0163,-5.0182,-5.0114,-4.9949,-4.9962,-4.9898,-5.0076,-5.0057,-4.9606,-4.9442,-4.9543,-4.9258,-4.8764,-4.8071,-4.7277,-4.7376,-4.7533,-4.7381,-4.7575,-4.7938,-6.3556,-6.2913,-6.2854,-6.2367,-6.1694,-6.1615,-6.158,-6.1615,-6.1673,-6.171,-6.1705,-6.1705,-6.1707,-6.1717,-6.1699,-6.1711,-6.1705,-6.1712,-6.1706,-6.1687,-6.166,-6.1627,-6.1603,-6.1578,-6.1549,-6.1489,-6.1445,-6.1408,-6.1396,-6.1408,-6.1414,-6.14,-6.1225,-6.1158,-6.1147,-6.0351,-5.9874,-5.9583,-5.8138,-5.7617,-5.7018,-5.6476,-5.6263,-5.6012,-5.6012,-5.6012,-5.6012,-5.6012,-5.6012,-5.5995,-5.5942,-5.5905,-5.5885,-5.5785,-5.5647,-5.5549,-5.5549,-5.553,-5.5472,-5.4005,-5.3368,-5.3099,-5.2672,-5.2513,-5.2724,-5.2724,-5.2376,-5.1721,-5.1641,-5.1293,-5.0849,-5.0444,-5.0478,-5.0478,-5.0539,-5.0348,-5.0348,-5.0325,-5.0344,-5.0344,-5.0344,-5.0302,-5.0302,-5.0302,-5.0259,-5.0283,-5.0302,-5.0302,-5.0302,-5.0278,-5.0255,-5.0255,-5.0231,-5.0163,-5.0114,-5.0089,-5.0082,-5.0031,-5.0005,-5.0005,-4.9978,-4.9978,-4.9952,-4.9925,-4.9876,-4.9732,-4.98,-4.9773,-4.8991,-4.8308,-4.84,-4.8462,-4.8229,-4.8229,-4.8691,-6.3945,-6.3634,-6.3127,-6.2736,-6.2372,-6.1814,-6.1588,-6.1602,-6.1666,-6.1713,-6.1711,-6.1713,-6.1698,-6.1716,-6.1707,-6.1709,-6.1705,-6.1712,-6.1687,-6.1621,-6.1607,-6.1603,-6.1578,-6.1539,-6.1498,-6.1445,-6.1396,-6.1402,-6.1394,-6.14,-6.14,-6.1386,-6.1356,-6.133,-6.1239,-6.084,-6.0553,-5.9955,-5.9184,-5.8565,-5.7462,-5.7018,-5.6592,-5.6089,-5.6051,-5.6012,-5.6012,-5.6012,-5.6012,-5.5995,-5.5942,-5.5905,-5.5885,-5.5766,-5.5703,-5.5684,-5.5684,-5.5662,-5.558,-5.4902,-5.4476,-5.3996,-5.3472,-5.3154,-5.2962,-5.29,-5.2647,-5.2552,-5.2475,-5.2203,-5.2084,-5.1453,-5.1257,-5.1066,-5.0932,-5.0455,-5.0302,-5.0302,-5.0302,-5.0302,-5.0302,-5.0255,-5.0255,-5.0231,-5.0188,-5.0188,-5.0188,-5.0207,-5.0207,-5.0182,-5.0158,-5.0158,-5.0133,-5.0089,-5.0038,-5.0038,-5.0012,-4.9978,-4.9952,-4.9925,-4.9906,-4.9879,-4.9906,-4.9925,-4.9906,-4.9879,-4.9879,-4.9887,-4.9717,-4.9428,-4.9296,-4.9264,-4.9188,-4.9245,-4.9575,-6.4549,-6.451,-6.4013,-6.3417,-6.2816,-6.1966,-6.1621,-6.1634,-6.1696,-6.1704,-6.1699,-6.1717,-6.1711,-6.1697,-6.1701,-6.1705,-6.1712,-6.1673,-6.1673,-6.16,-6.1584,-6.1578,-6.1559,-6.1509,-6.1476,-6.1428,-6.1402,-6.1394,-6.14,-6.14,-6.14,-6.1352,-6.1326,-6.13,-6.1229,-6.1058,-6.0903,-6.0344,-5.988,-5.9319,-5.8372,-5.7675,-5.7037,-5.6573,-5.6244,-5.6012,-5.6012,-5.6012,-5.6012,-5.5977,-5.5942,-5.5924,-5.5846,-5.5787,-5.5705,-5.5684,-5.5684,-5.5682,-5.5577,-5.5512,-5.5067,-5.4756,-5.4073,-5.3833,-5.3752,-5.3918,-5.3613,-5.3416,-5.3282,-5.3034,-5.2805,-5.2193,-5.2021,-5.183,-5.162,-5.1181,-5.0775,-5.0813,-5.0503,-5.0484,-5.0231,-5.0207,-5.0182,-5.0158,-5.0108,-5.0089,-5.0089,-5.0082,-5.0082,-5.0082,-5.0082,-5.0082,-5.0057,-5.0031,-4.9986,-4.9959,-4.9933,-4.9906,-4.9879,-4.9879,-4.9879,-4.9879,-4.9879,-4.9879,-4.9879,-4.9879,-4.9879,-4.9849,-4.9773,-4.9773,-4.9789,-4.9853,-5.0031,-5.0057,-5.0057,-6.5377,-6.5407,-6.5455,-6.4469,-6.2984,-6.2024,-6.166,-6.1701,-6.1705,-6.1707,-6.1699,-6.1701,-6.1705,-6.1715,-6.1712,-6.1706,-6.1687,-6.1623,-6.1615,-6.1615,-6.1578,-6.1559,-6.1528,-6.1495,-6.144,-6.1415,-6.1408,-6.14,-6.14,-6.14,-6.1381,-6.1347,-6.1326,-6.1264,-6.1194,-6.1137,-6.1021,-6.075,-6.0402,-5.9919,-5.9242,-5.8352,-5.7656,-5.7095,-5.6631,-5.6225,-5.6089,-5.6012,-5.6012,-5.5977,-5.5942,-5.5924,-5.5865,-5.5766,-5.5724,-5.5684,-5.5684,-5.5682,-5.5615,-5.5527,-5.5461,-5.5222,-5.5205,-5.5269,-5.5174,-5.4906,-5.4581,-5.4295,-5.4104,-5.3626,-5.3187,-5.3015,-5.2862,-5.2747,-5.2671,-5.2207,-5.173,-5.14,-5.0994,-5.0659,-5.0247,-5.0108,-5.0108,-5.0082,-5.0031,-4.9978,-4.9978,-4.9959,-4.9978,-5.0031,-5.0031,-5.0005,-5.0005,-4.9978,-4.9952,-4.9925,-4.9906,-4.9879,-4.9879,-4.9879,-4.9879,-4.9879,-4.9879,-4.9879,-4.9879,-4.9879,-4.9879,-4.9879,-4.986,-4.9925,-4.9952,-4.9952,-4.9978,-4.9952,-4.9952,-6.5407,-6.5396,-6.5474,-6.4856,-6.3689,-6.2284,-6.1686,-6.1704,-6.1711,-6.1699,-6.1713,-6.1713,-6.1715,-6.1705,-6.1712,-6.168,-6.1639,-6.1603,-6.1586,-6.1597,-6.1656,-6.1567,-6.1495,-6.1452,-6.1415,-6.1408,-6.14,-6.14,-6.14,-6.14,-6.1366,-6.1308,-6.1291,-6.1227,-6.1155,-6.1099,-6.1099,-6.1041,-6.075,-6.0441,-6.0054,-5.9281,-5.8449,-5.7656,-5.7095,-5.665,-5.6244,-5.6051,-5.6012,-5.5995,-5.598,-5.5962,-5.5885,-5.5826,-5.5766,-5.5684,-5.5703,-5.5682,-5.5596,-5.5527,-5.548,-5.5427,-5.539,-5.5384,-5.5384,-5.5365,-5.5231,-5.4982,-5.483,-5.4428,-5.4142,-5.3945,-5.3754,-5.3639,-5.3423,-5.294,-5.252,-5.2266,-5.1777,-5.0881,-5.0468,-5.0252,-5.0214,-4.9978,-4.9925,-4.989,-4.9862,-4.9843,-4.9871,-4.9925,-4.9971,-4.9925,-4.9925,-4.9898,-4.9925,-4.9925,-4.9906,-4.9879,-4.9879,-4.9879,-4.9879,-4.9879,-4.9879,-4.9879,-4.9879,-4.9879,-4.9879,-4.9879,-4.9879,-4.9879,-4.9925,-4.9906,-4.9879,-4.9879,-4.9879,-6.4608,-6.491,-6.4976,-6.4501,-6.3578,-6.2281,-6.1717,-6.1715,-6.1717,-6.1707,-6.1697,-6.1705,-6.171,-6.1679,-6.1673,-6.1654,-6.1642,-6.2035,-6.2026,-6.1646,-6.1811,-6.1732,-6.162,-6.1428,-6.1421,-6.1414,-6.14,-6.14,-6.1386,-6.1366,-6.1332,-6.1289,-6.1291,-6.1191,-6.1137,-6.1099,-6.1099,-6.1099,-6.1002,-6.077,-6.046,-6.0074,-5.9145,-5.843,-5.7849,-5.7056,-5.6534,-5.6302,-5.6031,-5.5995,-5.5998,-5.5962,-5.5904,-5.5826,-5.5745,-5.5684,-5.5703,-5.566,-5.5573,-5.5527,-5.5476,-5.5421,-5.539,-5.5384,-5.5403,-5.5384,-5.5365,-5.5269,-5.5326,-5.5288,-5.5091,-5.4874,-5.4683,-5.4485,-5.4039,-5.3568,-5.3358,-5.3141,-5.2319,-5.1299,-5.0835,-5.0599,-5.0344,-5.0052,-4.9816,-4.9807,-4.9778,-4.9778,-4.9778,-4.9788,-4.9835,-4.9807,-4.9843,-4.9843,-4.9871,-4.9898,-4.9898,-4.9879,-4.9879,-4.9879,-4.9879,-4.9879,-4.9879,-4.9879,-4.9879,-4.9879,-4.9879,-4.9879,-4.9879,-4.9879,-4.9879,-4.9879,-4.9879,-4.9879,-4.9879,-6.3399,-6.4099,-6.4104,-6.3722,-6.293,-6.2095,-6.1707,-6.1699,-6.1701,-6.1701,-6.1701,-6.1715,-6.171,-6.1673,-6.1621,-6.16,-6.1751,-6.2123,-6.2055,-6.1627,-6.2026,-6.1993,-6.1589,-6.1428,-6.1408,-6.14,-6.14,-6.14,-6.1386,-6.1352,-6.1318,-6.1289,-6.1239,-6.1173,-6.1099,-6.1099,-6.1099,-6.1099,-6.1099,-6.0983,-6.0867,-6.0441,-5.9919,-5.9532,-5.8565,-5.7501,-5.7134,-5.665,-5.607,-5.6033,-5.5998,-5.5981,-5.5885,-5.5785,-5.5705,-5.5684,-5.5684,-5.564,-5.5573,-5.5527,-5.547,-5.544,-5.5384,-5.5403,-5.5403,-5.5403,-5.5403,-5.5358,-5.5339,-5.5286,-5.5134,-5.505,-5.4909,-5.4806,-5.455,-5.421,-5.4011,-5.3765,-5.3243,-5.2304,-5.1745,-5.1414,-5.0648,-5.0354,-4.9995,-4.9824,-4.9692,-4.9692,-4.9682,-4.9663,-4.9721,-4.974,-4.9778,-4.9816,-4.9835,-4.9843,-4.9898,-4.9879,-4.9879,-4.9879,-4.9879,-4.9879,-4.9879,-4.9879,-4.9879,-4.9879,-4.9879,-4.9879,-4.9879,-4.9879,-4.9879,-4.9879,-4.9879,-4.9879,-4.9879,-6.2999,-6.3222,-6.3272,-6.3154,-6.2895,-6.2065,-6.1699,-6.1711,-6.1713,-6.1701,-6.1715,-6.1691,-6.1654,-6.1641,-6.16,-6.1584,-6.1694,-6.2016,-6.1773,-6.1636,-6.1907,-6.1951,-6.1506,-6.1421,-6.1414,-6.14,-6.14,-6.14,-6.1386,-6.1337,-6.1306,-6.1291,-6.1227,-6.1136,-6.1099,-6.1099,-6.1099,-6.1099,-6.1099,-6.1099,-6.1021,-6.0905,-6.0596,-6.0074,-5.9184,-5.841,-5.7907,-5.7211,-5.6573,-5.6169,-5.6036,-5.5943,-5.5807,-5.5726,-5.5684,-5.5684,-5.5684,-5.564,-5.5573,-5.5504,-5.5451,-5.5421,-5.539,-5.5384,-5.5403,-5.5403,-5.5358,-5.5294,-5.5248,-5.5195,-5.5168,-5.5121,-5.5094,-5.5066,-5.5038,-5.481,-5.46,-5.4322,-5.4004,-5.3445,-5.281,-5.2062,-5.1258,-5.0644,-5.0266,-4.9954,-4.9698,-4.9623,-4.9582,-4.9563,-4.9653,-4.9682,-4.975,-4.9788,-4.9807,-4.9862,-4.9898,-4.9879,-4.9879,-4.9879,-4.9879,-4.9879,-4.9879,-4.9879,-4.9879,-4.9879,-4.9879,-4.9879,-4.9879,-4.9879,-4.9879,-4.9879,-4.9879,-4.9879,-4.9879,-6.2352,-6.2356,-6.2395,-6.2418,-6.2329,-6.1894,-6.1707,-6.1717,-6.1705,-6.1701,-6.1715,-6.1705,-6.1667,-6.1615,-6.1592,-6.1586,-6.1666,-6.2075,-6.189,-6.1704,-6.1748,-6.1764,-6.1629,-6.1394,-6.14,-6.14,-6.14,-6.1386,-6.1386,-6.1341,-6.1294,-6.1278,-6.1208,-6.1117,-6.1099,-6.1099,-6.1099,-6.1099,-6.1099,-6.1099,-6.1099,-6.1021,-6.0944,-6.046,-5.9919,-5.9242,-5.8816,-5.812,-5.7346,-5.6634,-5.6251,-5.5943,-5.5806,-5.5726,-5.5684,-5.5684,-5.5662,-5.5638,-5.5551,-5.5504,-5.5432,-5.5396,-5.5333,-5.5281,-5.5275,-5.5275,-5.5248,-5.5203,-5.5195,-5.514,-5.5066,-5.5038,-5.5009,-5.5,-5.4912,-5.4776,-5.4678,-5.4541,-5.4327,-5.4056,-5.344,-5.2856,-5.1964,-5.1011,-5.0635,-5.0278,-5.0014,-4.9732,-4.9652,-4.9828,-4.9807,-4.986,-5.0042,-4.9882,-4.975,-4.9816,-4.9898,-4.9879,-4.9879,-4.9879,-4.9879,-4.9879,-4.9879,-4.9879,-4.9879,-4.9879,-4.9879,-4.9879,-4.9879,-4.9879,-4.9879,-4.9879,-4.9879,-4.9879,-4.9879,-6.1673,-6.1705,-6.1735,-6.1725,-6.1717,-6.1713,-6.1705,-6.1701,-6.1701,-6.1701,-6.1696,-6.1685,-6.1648,-6.1615,-6.1592,-6.1586,-6.1714,-6.2036,-6.1948,-6.1868,-6.2176,-6.1849,-6.1557,-6.1394,-6.14,-6.14,-6.14,-6.1386,-6.1386,-6.1326,-6.1278,-6.1261,-6.1191,-6.1099,-6.1099,-6.1099,-6.1099,-6.1099,-6.1099,-6.1099,-6.1099,-6.1099,-6.1041,-6.0789,-6.048,-6.0035,-5.9687,-5.9165,-5.8294,-5.7485,-5.6696,-5.6309,-5.5999,-5.5859,-5.5684,-5.5662,-5.5618,-5.5573,-5.5504,-5.5456,-5.5402,-5.5326,-5.5243,-5.5198,-5.5164,-5.5157,-5.5149,-5.5149,-5.5094,-5.5066,-5.5009,-5.4971,-5.4912,-5.4901,-5.481,-5.4717,-5.4705,-5.4692,-5.4552,-5.443,-5.3983,-5.3405,-5.2634,-5.1662,-5.1193,-5.0785,-5.0429,-5.0072,-4.9959,-5.0385,-5.0604,-5.064,-5.0719,-5.0447,-4.991,-4.992,-5.005,-4.9879,-4.9879,-4.9879,-4.9879,-4.9879,-4.9879,-4.9879,-4.9879,-4.9879,-4.9879,-4.9879,-4.9879,-4.9879,-4.9879,-4.9879,-4.9879,-4.9879,-4.9879,-6.1699,-6.1715,-6.1701,-6.1701,-6.1698,-6.1713,-6.1717,-6.1701,-6.1701,-6.1701,-6.1691,-6.1654,-6.1615,-6.1595,-6.1595,-6.1588,-6.1627,-6.1938,-6.1811,-6.1632,-6.1815,-6.1622,-6.1466,-6.14,-6.14,-6.14,-6.1386,-6.1371,-6.1356,-6.131,-6.1259,-6.122,-6.1154,-6.1099,-6.1099,-6.1099,-6.1099,-6.1099,-6.1099,-6.1099,-6.1099,-6.1099,-6.1099,-6.1002,-6.0963,-6.046,-6.0035,-5.9764,-5.9106,-5.8315,-5.7448,-5.6963,-5.6573,-5.6203,-5.5912,-5.5753,-5.573,-5.5527,-5.5456,-5.5389,-5.5352,-5.5275,-5.521,-5.5157,-5.5094,-5.5047,-5.5047,-5.5038,-5.4981,-5.4971,-5.4912,-5.4871,-5.4829,-5.478,-5.4686,-5.4603,-5.4538,-5.4524,-5.4458,-5.4405,-5.4274,-5.3785,-5.3259,-5.2569,-5.2231,-5.1855,-5.1461,-5.1142,-5.1011,-5.123,-5.1362,-5.1381,-5.1417,-5.0759,-5.0118,-5.0213,-5.0296,-5.0069,-5.0012,-5.0258,-5.0258,-4.9917,-4.9879,-4.9898,-4.9898,-4.9879,-4.9879,-4.9879,-4.9879,-4.9879,-4.9879,-4.9879,-4.9898,-4.9879,-4.9879]}]]